[[{"header":{"parameterUnit":"m.s-1","parameterCategory":1,"la1":31.0,"la2":29.5877,"lo1":-88.7671,"lo2":-86.6584,"dy":0.0162,"dx":0.0185,"nx":115,"ny":88,"refTime":"2024-02-16T18:00:00:Z","depth":0,"parameterNumber":2,"parameterNumberName":"U-component_of_WINDS"},"data":[0.0,0.0,0.0,0.0,0.0,0.0,0.0,0.0,0.0,0.0,0.0,0.0,0.0,0.0,0.0,0.0,0.0,0.0,0.0,0.0,0.0,0.0,0.0,0.0,0.0,0.0,0.0,0.0,0.0,0.0,0.0,0.0,0.0,0.0,0.0,0.0,0.0,0.0,0.0,0.0,0.0,0.0,0.0,0.0,0.0,0.0,0.0,0.0,0.0,0.0,0.0,0.0,0.0,0.0,0.0,0.0,0.0,0.0,0.0,0.0,0.0,0.0,0.0,0.0,0.0,0.0,0.0,0.0,0.0,0.0,0.0,0.0,0.0,0.0,0.0,0.0,0.0,0.0,0.0,0.0,0.0,0.0,0.0,0.0,0.0,0.0,0.0,0.0,0.0,0.0,0.0,0.0,0.0,0.0,0.0,0.0,0.0,0.0,0.0,0.0,0.0,0.0,0.0,0.0,0.0,0.0,0.0,0.0,0.0,0.0,0.0,0.0,0.0,0.0,0.0,0.0,0.0,0.0,0.0,0.0,0.0,0.0,0.0,0.0,0.0,0.0,0.0,0.0,0.0,0.0,0.0,0.0,0.0,0.0,0.0,0.0,0.0,0.0,0.0,0.0,0.0,0.0,0.0,0.0,0.0,0.0,0.0,0.0,0.0,0.0,0.0,0.0,0.0,0.0,0.0,0.0,0.0,0.0,0.0,0.0,0.0,0.0,0.0,0.0,0.0,0.0,0.0,0.0,0.0,0.0,0.0,0.0,0.0,0.0,0.0,0.0,0.0,0.0,0.0,0.0,0.0,0.0,0.0,0.0,0.0,0.0,0.0,0.0,0.0,0.0,0.0,0.0,0.0,0.0,0.0,0.0,0.0,0.0,0.0,0.0,0.0,0.0,0.0,0.0,0.0,0.0,0.0,0.0,0.0,0.0,0.0,0.0,0.0,0.0,0.0,0.0,0.0,0.0,0.0,0.0,0.0,0.0,0.0,0.0,0.0,0.0,0.0,0.0,0.0,0.0,0.0,0.0,0.0,0.0,0.0,0.0,0.0,0.0,0.0,0.0,0.0,0.0,0.0,0.0,0.0,0.0,0.0,0.0,0.0,0.0,0.0,0.0,0.0,0.0,0.0,0.0,0.0,0.0,0.0,0.0,0.0,0.0,0.0,0.0,0.0,0.0,0.0,0.0,0.0,0.0,0.0,0.0,0.0,0.0,0.0,0.0,0.0,0.0,0.0,0.0,0.0,0.0,0.0,0.0,0.0,0.0,0.0,0.0,0.0,0.0,0.0,0.0,0.0,0.0,0.0,0.0,0.0,0.0,0.0,0.0,0.0,0.0,0.0,0.0,0.0,0.0,0.0,0.0,0.0,0.0,0.0,0.0,0.0,0.0,0.0,0.0,0.0,0.0,0.0,0.0,0.0,0.0,0.0,0.0,0.0,0.0,0.0,0.0,0.0,0.0,0.0,0.0,0.0,0.0,0.0,0.0,0.0,0.0,0.0,0.0,0.0,0.0,0.0,0.0,0.0,0.0,0.0,0.0,0.0,0.0,0.0,0.0,0.0,0.0,0.0,0.0,0.0,0.0,0.0,0.0,0.0,0.0,0.0,0.0,0.0,0.0,0.0,0.0,0.0,0.0,0.0,0.0,0.0,0.0,0.0,0.0,0.0,0.0,0.0,0.0,0.0,0.0,0.0,0.0,0.0,0.0,0.0,0.0,0.0,0.0,0.0,0.0,0.0,0.0,0.0,0.0,0.0,0.0,0.0,0.0,0.0,0.0,0.0,0.0,0.0,0.0,0.0,0.0,0.0,0.0,0.0,0.0,0.0,0.0,0.0,0.0,0.0,0.0,0.0,0.0,0.0,0.0,0.0,0.0,0.0,0.0,0.0,0.0,0.0,0.0,0.0,0.0,0.0,0.0,0.0,0.0,0.0,0.0,0.0,0.0,0.0,0.0,0.0,0.0,0.0,0.0,0.0,0.0,0.0,0.0,0.0,0.0,0.0,0.0,0.0,0.0,0.0,0.0,0.0,0.0,0.0,0.0,0.0,0.0,0.0,0.0,0.0,0.0,0.0,0.0,0.0,0.0,0.0,0.0,0.0,0.0,0.0,0.0,0.0,0.0,0.0,0.0,0.0,0.0,0.0,0.0,0.0,0.0,0.0,0.0,0.0,0.0,0.0,0.0,0.0,0.0,0.0,0.0,0.0,0.0,0.0,0.0,0.0,0.0,0.0,0.0,0.0,0.0,0.0,0.0,0.0,0.0,0.0,0.0,0.0,0.0,0.0,0.0,0.0,0.0,0.0,0.0,0.0,0.0,0.0,0.0,0.0,0.0,0.0,0.0,0.0,0.0,0.0,0.0,0.0,0.0,0.0,0.0,0.0,0.0,0.0,0.0,0.0,0.0,0.0,0.0,0.0,0.0,0.0,0.0,0.0,0.0,0.0,0.0,0.0,0.0,0.0,0.0,0.0,0.0,0.0,0.0,0.0,0.0,0.0,0.0,0.0,0.0,0.0,0.0,0.0,0.0,0.0,0.0,0.0,0.0,0.0,0.0,0.0,0.0,0.0,0.0,0.0,0.0,0.0,0.0,0.0,0.0,0.0,0.0,0.0,0.0,0.0,0.0,0.0,0.0,0.0,0.0,0.0,0.0,0.0,0.0,0.0,0.0,0.0,0.0,0.0,0.0,0.0,0.0,0.0,0.0,0.0,0.0,0.0,0.0,0.0,0.0,0.0,0.0,0.0,0.0,0.0,0.0,0.0,0.0,0.0,0.0,0.0,0.0,0.0,0.0,0.0,0.0,0.0,0.0,0.0,0.0,0.0,0.0,0.0,0.0,0.0,0.0,0.0,0.0,0.0,0.0,0.0,0.0,0.0,0.0,0.0,0.0,0.0,0.0,0.0,0.0,0.0,0.0,0.0,0.0,0.0,0.0,0.0,0.0,0.0,0.0,0.0,0.0,0.0,0.0,0.0,0.0,0.0,0.0,0.0,0.0,0.0,0.0,0.0,0.0,0.0,0.0,0.0,0.0,0.0,0.0,0.0,0.0,0.0,0.0,0.0,0.0,0.0,0.0,0.0,0.0,0.0,0.0,0.0,0.0,0.0,0.0,0.0,0.0,0.0,0.0,0.0,0.0,0.0,0.0,0.0,0.0,0.0,0.0,0.0,0.0,0.0,0.0,0.0,0.0,0.0,0.0,0.0,0.0,0.0,0.0,0.0,0.0,0.0,0.0,0.0,0.0,0.0,0.0,0.0,0.0,0.0,0.0,0.0,0.0,0.0,0.0,0.0,0.0,0.0,0.0,0.0,0.0,0.0,0.0,0.0,0.0,0.0,0.0,0.0,0.0,0.0,0.0,0.0,0.0,0.0,0.0,0.0,0.0,0.0,0.0,0.0,0.0,0.0,0.0,0.0,0.0,0.0,0.0,0.0,0.0,0.0,0.0,0.0,0.0,0.0,0.0,0.0,0.0,0.0,0.0,0.0,0.0,0.0,0.0,0.0,0.0,0.0,0.0,0.0,0.0,0.0,0.0,0.0,0.0,0.0,0.0,0.0,0.0,0.0,0.0,0.0,0.0,0.0,0.0,0.0,0.0,0.0,0.0,0.0,0.0,0.0,0.0,0.0,0.0,0.0,0.0,0.0,0.0,0.0,0.0,0.0,0.0,0.0,0.0,0.0,0.0,0.0,0.0,0.0,0.0,0.0,0.0,0.0,0.0,0.0,0.0,0.0,0.0,0.0,0.0,0.0,0.0,0.0,0.0,0.0,0.0,0.0,0.0,0.0,0.0,0.0,0.0,0.0,0.0,0.0,0.0,0.0,0.0,0.0,0.0,0.0,0.0,0.0,0.0,0.0,0.0,0.0,0.0,0.0,0.0,0.0,0.0,0.0,0.0,0.0,0.0,0.0,0.0,0.0,0.0,0.0,0.0,0.0,0.0,0.0,0.0,0.0,0.0,0.0,0.0,0.0,0.0,0.0,0.0,0.0,0.0,0.0,0.0,0.0,0.0,0.0,0.0,0.0,0.0,0.0,0.0,0.0,0.0,0.0,0.0,0.0,0.0,0.0,0.0,0.0,0.0,0.0,0.0,0.0,0.0,0.0,0.0,0.0,0.0,0.0,0.0,0.0,0.0,0.0,0.0,0.0,0.0,0.0,0.0,0.0,0.0,0.0,0.0,0.0,0.0,0.0,0.0,0.0,0.0,0.0,0.0,0.0,0.0,0.0,0.0,0.0,0.0,0.0,0.0,0.0,0.0,0.0,0.0,-1.159,0.0,0.0,0.0,0.0,0.0,0.0,0.0,0.0,0.0,0.0,0.0,0.0,0.0,0.0,0.0,0.0,0.0,0.0,0.0,0.0,0.0,0.0,0.0,0.0,0.0,0.0,0.0,0.0,0.0,0.0,0.0,0.0,0.0,0.0,0.0,0.0,0.0,0.0,0.0,0.0,0.0,0.0,0.0,0.0,0.0,0.0,0.0,0.0,0.0,0.0,0.0,0.0,0.0,0.0,0.0,0.0,0.0,0.0,0.0,0.0,0.0,0.0,0.0,0.0,0.0,0.0,0.0,0.0,0.0,0.0,0.0,0.0,0.0,0.0,0.0,0.0,0.0,0.0,0.0,0.0,0.0,0.0,0.0,0.0,0.0,0.0,0.0,0.0,0.0,0.0,0.0,0.0,0.0,0.0,0.0,0.0,0.0,0.0,0.0,0.0,0.0,0.0,0.0,0.0,0.0,0.0,0.0,0.0,0.0,0.0,-1.133,-1.1505,-1.1431,-1.1282,-1.1067,0.0,0.0,0.0,0.0,0.0,0.0,0.0,0.0,0.0,0.0,0.0,0.0,0.0,0.0,0.0,0.0,0.0,0.0,0.0,0.0,0.0,0.0,0.0,0.0,0.0,0.0,0.0,0.0,0.0,0.0,0.0,0.0,0.0,0.0,0.0,0.0,0.0,0.0,0.0,0.0,0.0,0.0,0.0,0.0,0.0,0.0,0.0,0.0,0.0,0.0,0.0,0.0,0.0,0.0,0.0,0.0,0.0,0.0,0.0,0.0,0.0,0.0,0.0,0.0,0.0,0.0,0.0,0.0,0.0,0.0,0.0,0.0,0.0,0.0,0.0,0.0,0.0,0.0,0.0,0.0,0.0,0.0,0.0,0.0,0.0,0.0,0.0,0.0,0.0,0.0,0.0,0.0,0.0,0.0,0.0,0.0,0.0,0.0,0.0,0.0,0.0,0.0,0.0,0.0,0.0,0.0,0.0,0.0,0.0,0.0,0.0,0.0,-1.0905,-1.0715,-1.0467,0.0,0.0,0.0,0.0,0.0,0.0,0.0,0.0,0.0,0.0,0.0,0.0,0.0,0.0,0.0,0.0,0.0,0.0,0.0,0.0,0.0,0.0,0.0,0.0,0.0,0.0,0.0,0.0,0.0,0.0,0.0,0.0,0.0,0.0,0.0,0.0,0.0,0.0,0.0,0.0,0.0,0.0,0.0,0.0,0.0,0.0,0.0,0.0,0.0,0.0,0.0,0.0,0.0,0.0,0.0,0.0,0.0,0.0,0.0,0.0,0.0,0.0,0.0,0.0,0.0,0.0,0.0,0.0,0.0,0.0,0.0,0.0,0.0,0.0,0.0,0.0,0.0,0.0,0.0,0.0,0.0,0.0,0.0,0.0,0.0,0.0,0.0,0.0,0.0,0.0,0.0,0.0,0.0,0.0,0.0,0.0,0.0,0.0,0.0,0.0,0.0,0.0,0.0,0.0,0.0,0.0,0.0,0.0,0.0,0.0,-1.0108,-1.039,-1.0351,0.0,-0.9725,0.0,0.0,0.0,0.0,0.0,0.0,0.0,0.0,0.0,0.0,0.0,0.0,0.0,0.0,0.0,0.0,0.0,0.0,0.0,0.0,0.0,0.0,0.0,0.0,0.0,0.0,0.0,0.0,0.0,0.0,0.0,0.0,0.0,0.0,0.0,0.0,0.0,0.0,0.0,0.0,0.0,0.0,0.0,0.0,0.0,0.0,0.0,0.0,0.0,0.0,0.0,0.0,0.0,0.0,0.0,0.0,0.0,0.0,0.0,0.0,0.0,0.0,0.0,0.0,0.0,0.0,0.0,0.0,0.0,0.0,0.0,0.0,0.0,0.0,0.0,0.0,0.0,0.0,0.0,0.0,0.0,0.0,0.0,0.0,0.0,0.0,0.0,0.0,0.0,0.0,0.0,0.0,0.0,0.0,0.0,0.0,0.0,0.0,0.0,0.0,0.0,0.0,0.0,0.0,0.0,0.0,0.0,0.0,0.0,0.0,-0.9509,-0.9843,-0.9765,-0.9558,0.0,0.0,0.0,0.0,0.0,0.0,0.0,0.0,0.0,0.0,0.0,0.0,0.0,0.0,0.0,0.0,0.0,0.0,0.0,0.0,0.0,0.0,0.0,0.0,0.0,0.0,0.0,0.0,0.0,0.0,0.0,0.0,0.0,0.0,0.0,0.0,0.0,0.0,0.0,0.0,0.0,0.0,0.0,0.0,0.0,0.0,0.0,0.0,0.0,0.0,0.0,0.0,0.0,0.0,0.0,0.0,0.0,0.0,0.0,0.0,0.0,0.0,0.0,0.0,0.0,0.0,0.0,0.0,0.0,0.0,0.0,0.0,0.0,0.0,0.0,0.0,0.0,0.0,0.0,0.0,0.0,0.0,0.0,0.0,0.0,0.0,0.0,0.0,0.0,0.0,0.0,0.0,0.0,0.0,0.0,0.0,0.0,0.0,0.0,0.0,0.0,0.0,0.0,0.0,0.0,0.0,0.0,0.0,0.0,0.0,-0.878,-0.907,-0.9359,-0.9248,-0.9088,-0.8895,0.0,0.0,0.0,0.0,0.0,0.0,0.0,0.0,0.0,0.0,0.0,0.0,0.0,0.0,0.0,0.0,0.0,0.0,0.0,0.0,0.0,0.0,0.0,0.0,0.0,0.0,0.0,0.0,0.0,0.0,0.0,0.0,0.0,0.0,0.0,0.0,0.0,0.0,0.0,0.0,0.0,0.0,0.0,0.0,0.0,0.0,0.0,0.0,0.0,0.0,0.0,0.0,0.0,0.0,0.0,0.0,0.0,0.0,0.0,0.0,0.0,0.0,0.0,0.0,0.0,0.0,0.0,0.0,0.0,0.0,0.0,0.0,0.0,0.0,0.0,0.0,0.0,0.0,0.0,0.0,0.0,0.0,0.0,0.0,0.0,0.0,0.0,0.0,0.0,0.0,0.0,0.0,0.0,0.0,0.0,0.0,0.0,0.0,0.0,0.0,0.0,0.0,0.0,0.0,0.0,0.0,0.0,0.0,-0.8054,-0.8472,-0.8797,-0.9007,-0.8952,-0.8781,0.0,0.0,0.0,0.0,0.0,0.0,0.0,0.0,0.0,0.0,0.0,0.0,0.0,0.0,0.0,0.0,0.0,0.0,0.0,0.0,0.0,0.0,0.0,0.0,0.0,0.0,0.0,0.0,0.0,0.0,0.0,0.0,0.0,0.0,0.0,0.0,0.0,0.0,0.0,0.0,0.0,0.0,0.0,0.0,0.0,0.0,0.0,0.0,0.0,0.0,0.0,0.0,0.0,0.0,0.0,0.0,0.0,0.0,0.0,0.0,0.0,0.0,0.0,0.0,0.0,0.0,0.0,0.0,0.0,0.0,0.0,0.0,0.0,0.0,0.0,0.0,0.0,0.0,0.0,0.0,0.0,0.0,0.0,0.0,0.0,0.0,0.0,0.0,0.0,0.0,0.0,0.0,0.0,0.0,0.0,0.0,0.0,0.0,0.0,0.0,0.0,0.0,0.0,0.0,0.0,0.0,0.0,0.0,0.0,-0.7829,-0.8283,-0.8529,-0.8618,-0.8578,-0.8414,0.0,0.0,0.0,0.0,0.0,0.0,0.0,0.0,0.0,0.0,0.0,0.0,0.0,0.0,0.0,0.0,0.0,0.0,0.0,0.0,0.0,0.0,0.0,0.0,0.0,0.0,0.0,0.0,0.0,0.0,0.0,0.0,0.0,0.0,0.0,0.0,0.0,0.0,0.0,0.0,0.0,0.0,0.0,0.0,0.0,0.0,0.0,0.0,0.0,0.0,0.0,0.0,0.0,0.0,0.0,0.0,0.0,0.0,0.0,0.0,0.0,0.0,0.0,0.0,0.0,0.0,0.0,0.0,0.0,0.0,0.0,0.0,0.0,0.0,0.0,0.0,0.0,0.0,0.0,0.0,0.0,0.0,0.0,0.0,0.0,0.0,0.0,0.0,0.0,0.0,0.0,0.0,0.0,0.0,0.0,0.0,0.0,0.0,0.0,0.0,0.0,0.0,0.0,0.0,0.0,0.0,0.0,0.0,0.0,-0.7677,0.0,-0.8209,-0.8283,-0.8242,-0.8126,0.0,0.0,0.0,0.0,0.0,0.0,0.0,0.0,0.0,0.0,0.0,0.0,0.0,0.0,0.0,0.0,0.0,0.0,0.0,0.0,0.0,0.0,0.0,0.0,0.0,0.0,0.0,0.0,0.0,0.0,0.0,0.0,0.0,0.0,0.0,0.0,0.0,0.0,0.0,0.0,0.0,0.0,0.0,0.0,0.0,0.0,0.0,0.0,0.0,0.0,0.0,0.0,0.0,0.0,0.0,0.0,0.0,0.0,0.0,0.0,0.0,0.0,0.0,0.0,0.0,0.0,0.0,0.0,0.0,0.0,0.0,0.0,0.0,0.0,0.0,0.0,0.0,0.0,0.0,0.0,0.0,0.0,0.0,0.0,0.0,0.0,0.0,0.0,0.0,0.0,0.0,0.0,0.0,0.0,0.0,0.0,0.0,0.0,0.0,0.0,0.0,0.0,0.0,0.0,0.0,0.0,0.0,0.0,-0.7342,-0.767,-0.7712,-0.7787,-0.7979,-0.7946,-0.7836,0.0,0.0,0.0,0.0,0.0,0.0,0.0,0.0,0.0,0.0,0.0,0.0,0.0,0.0,0.0,0.0,0.0,0.0,0.0,0.0,0.0,0.0,0.0,0.0,0.0,0.0,0.0,0.0,0.0,0.0,0.0,0.0,0.0,0.0,0.0,0.0,0.0,0.0,0.0,0.0,0.0,0.0,0.0,0.0,0.0,0.0,0.0,0.0,0.0,0.0,0.0,0.0,0.0,0.0,0.0,0.0,0.0,0.0,0.0,0.0,0.0,0.0,0.0,0.0,0.0,0.0,0.0,0.0,0.0,0.0,0.0,0.0,0.0,0.0,0.0,0.0,0.0,0.0,0.0,0.0,0.0,0.0,0.0,0.0,0.0,0.0,0.0,0.0,0.0,0.0,0.0,0.0,0.0,0.0,0.0,0.0,0.0,0.0,0.0,0.0,0.0,0.0,0.0,0.0,0.0,0.0,0.0,0.0,0.0,-0.7238,-0.7447,-0.7572,-0.7579,-0.7614,-0.7489,0.0,0.0,0.0,0.0,0.0,0.0,0.0,0.0,0.0,0.0,0.0,0.0,0.0,0.0,0.0,0.0,0.0,0.0,0.0,0.0,0.0,0.0,0.0,0.0,0.0,0.0,0.0,0.0,0.0,0.0,0.0,0.0,0.0,0.0,0.0,0.0,0.0,0.0,0.0,0.0,0.0,0.0,0.0,0.0,0.0,0.0,0.0,0.0,0.0,0.0,0.0,0.0,0.0,0.0,0.0,0.0,0.0,0.0,0.0,0.0,0.0,0.0,0.0,0.0,0.0,0.0,0.0,0.0,0.0,0.0,0.0,0.0,0.0,0.0,0.0,0.0,0.0,0.0,0.0,0.0,0.0,0.0,0.0,0.0,0.0,0.0,0.0,0.0,0.0,0.0,0.0,0.0,0.0,0.0,0.0,0.0,0.0,0.0,0.0,0.0,0.0,0.0,0.0,0.0,0.0,0.0,0.0,0.0,0.0,-0.681,-0.7147,-0.7321,-0.7328,-0.7321,-0.7231,-0.7021,0.0,0.0,0.0,0.0,0.0,0.0,0.0,0.0,0.0,0.0,0.0,0.0,0.0,0.0,0.0,0.0,0.0,0.0,0.0,0.0,0.0,0.0,0.0,0.0,0.0,0.0,0.0,0.0,0.0,0.0,0.0,0.0,0.0,0.0,0.0,0.0,0.0,0.0,0.0,0.0,0.0,0.0,0.0,0.0,0.0,0.0,0.0,0.0,0.0,0.0,0.0,0.0,0.0,0.0,0.0,0.0,0.0,0.0,0.0,0.0,0.0,0.0,0.0,0.0,0.0,0.0,0.0,0.0,0.0,0.0,0.0,0.0,0.0,0.0,0.0,0.0,0.0,0.0,0.0,0.0,0.0,0.0,0.0,0.0,0.0,0.0,0.0,0.0,0.0,0.0,0.0,0.0,0.0,0.0,0.0,0.0,0.0,0.0,0.0,0.0,0.0,0.0,0.0,0.0,0.0,0.0,0.0,0.0,-0.6502,-0.6855,-0.7074,-0.7201,-0.7081,-0.7032,0.0,0.0,0.0,0.0,0.0,0.0,0.0,0.0,0.0,0.0,0.0,0.0,0.0,0.0,0.0,0.0,0.0,0.0,0.0,0.0,0.0,0.0,0.0,0.0,0.0,0.0,0.0,0.0,0.0,0.0,0.0,0.0,0.0,0.0,0.0,0.0,0.0,0.0,0.0,0.0,0.0,0.0,0.0,0.0,0.0,0.0,0.0,0.0,0.0,0.0,0.0,0.0,0.0,0.0,0.0,0.0,0.0,0.0,0.0,0.0,0.0,0.0,0.0,0.0,0.0,0.0,0.0,0.0,0.0,0.0,0.0,0.0,0.0,0.0,0.0,0.0,0.0,0.0,0.0,0.0,0.0,0.0,0.0,0.0,0.0,0.0,0.0,0.0,0.0,0.0,0.0,0.0,0.0,0.0,0.0,0.0,0.0,0.0,0.0,0.0,0.0,0.0,0.0,0.0,0.0,0.0,0.0,0.0,0.0,-0.6803,-0.708,-0.7184,-0.716,-0.7302,-0.7319,0.0,0.0,0.0,0.0,0.0,0.0,0.0,0.0,0.0,0.0,0.0,0.0,0.0,0.0,0.0,0.0,0.0,0.0,0.0,0.0,0.0,0.0,0.0,0.0,0.0,0.0,0.0,0.0,0.0,0.0,0.0,0.0,0.0,0.0,0.0,0.0,0.0,0.0,0.0,0.0,0.0,0.0,0.0,0.0,0.0,0.0,0.0,0.0,0.0,0.0,0.0,0.0,0.0,0.0,0.0,0.0,0.0,0.0,0.0,0.0,0.0,0.0,0.0,0.0,0.0,0.0,0.0,0.0,0.0,0.0,0.0,0.0,0.0,0.0,0.0,0.0,0.0,0.0,0.0,0.0,0.0,0.0,0.0,0.0,0.0,0.0,0.0,0.0,0.0,0.0,0.0,0.0,0.0,0.0,0.0,0.0,0.0,0.0,0.0,0.0,0.0,0.0,0.0,0.0,0.0,0.0,0.0,0.0,-0.6912,-0.708,-0.7333,-0.7394,-0.7282,-0.7373,-0.735,0.0,0.0,0.0,0.0,0.0,0.0,0.0,0.0,0.0,0.0,0.0,0.0,0.0,0.0,0.0,0.0,0.0,0.0,0.0,0.0,0.0,0.0,0.0,0.0,0.0,0.0,0.0,0.0,0.0,0.0,0.0,0.0,0.0,0.0,0.0,0.0,0.0,0.0,0.0,0.0,0.0,0.0,0.0,0.0,0.0,0.0,0.0,0.0,0.0,0.0,0.0,0.0,0.0,0.0,0.0,0.0,0.0,0.0,0.0,0.0,0.0,0.0,0.0,0.0,0.0,0.0,0.0,0.0,0.0,0.0,0.0,0.0,0.0,0.0,0.0,0.0,0.0,0.0,0.0,0.0,0.0,0.0,0.0,0.0,0.0,0.0,0.0,0.0,0.0,0.0,0.0,0.0,0.0,0.0,0.0,0.0,0.0,0.0,0.0,0.0,0.0,0.0,0.0,0.0,0.0,0.0,0.0,0.0,-0.7028,-0.7448,-0.756,-0.7638,-0.7631,-0.7462,-0.7334,0.0,0.0,0.0,0.0,0.0,0.0,0.0,0.0,0.0,0.0,0.0,0.0,0.0,0.0,0.0,0.0,0.0,0.0,0.0,0.0,0.0,0.0,0.0,0.0,0.0,0.0,0.0,0.0,0.0,0.0,0.0,0.0,0.0,0.0,0.0,0.0,0.0,0.0,0.0,0.0,0.0,0.0,0.0,0.0,0.0,0.0,0.0,0.0,0.0,0.0,0.0,0.0,0.0,0.0,0.0,0.0,0.0,0.0,0.0,0.0,0.0,0.0,0.0,0.0,0.0,0.0,0.0,0.0,0.0,0.0,0.0,0.0,0.0,0.0,0.0,0.0,0.0,0.0,0.0,0.0,0.0,0.0,0.0,0.0,0.0,0.0,0.0,0.0,0.0,0.0,0.0,0.0,0.0,0.0,0.0,0.0,0.0,0.0,0.0,0.0,0.0,0.0,0.0,0.0,0.0,0.0,0.0,0.0,-0.7351,-0.7785,-0.7841,-0.7811,-0.7817,-0.781,-0.778,0.0,0.0,0.0,0.0,0.0,0.0,0.0,0.0,0.0,0.0,0.0,0.0,0.0,0.0,0.0,0.0,0.0,0.0,0.0,0.0,0.0,0.0,0.0,0.0,0.0,0.0,0.0,0.0,0.0,0.0,0.0,0.0,0.0,0.0,0.0,0.0,0.0,0.0,0.0,0.0,0.0,0.0,0.0,0.0,0.0,0.0,0.0,0.0,-0.7878,0.0,0.0,0.0,0.0,0.0,0.0,0.0,0.0,0.0,0.0,0.0,0.0,0.0,0.0,0.0,0.0,0.0,0.0,0.0,0.0,0.0,0.0,0.0,0.0,0.0,0.0,0.0,0.0,0.0,0.0,0.0,0.0,0.0,0.0,0.0,0.0,0.0,0.0,0.0,0.0,0.0,0.0,0.0,0.0,0.0,0.0,0.0,0.0,0.0,0.0,0.0,0.0,0.0,0.0,0.0,0.0,0.0,0.0,0.0,-0.7522,-0.7899,-0.7882,-0.7901,-0.7901,-0.7901,-0.7848,0.0,0.0,0.0,0.0,0.0,0.0,0.0,0.0,0.0,0.0,0.0,0.0,0.0,0.0,0.0,0.0,0.0,0.0,0.0,0.0,0.0,0.0,0.0,0.0,0.0,0.0,0.0,0.0,0.0,0.0,0.0,0.0,0.0,0.0,0.0,0.0,0.0,0.0,0.0,0.0,0.0,0.0,0.0,0.0,0.0,0.0,0.0,0.0,0.0,0.0,0.0,0.0,0.0,0.0,0.0,0.0,0.0,0.0,0.0,0.0,0.0,0.0,0.0,0.0,0.0,0.0,0.0,0.0,0.0,0.0,0.0,0.0,0.0,0.0,0.0,0.0,0.0,0.0,0.0,0.0,0.0,0.0,0.0,0.0,0.0,0.0,0.0,0.0,0.0,0.0,0.0,0.0,0.0,0.0,0.0,0.0,0.0,0.0,0.0,0.0,0.0,0.0,0.0,0.0,0.0,0.0,0.0,-0.7238,-0.7729,-0.7889,-0.7901,-0.7901,-0.7955,-0.7955,-0.7895,-0.7824,0.0,0.0,0.0,0.0,0.0,0.0,0.0,0.0,0.0,0.0,0.0,0.0,0.0,0.0,0.0,0.0,0.0,0.0,0.0,0.0,0.0,0.0,0.0,0.0,0.0,0.0,0.0,0.0,0.0,0.0,0.0,0.0,0.0,0.0,0.0,0.0,0.0,0.0,-0.5621,-0.5548,0.0,0.0,0.0,0.0,0.0,0.0,0.0,0.0,-0.8256,0.0,0.0,0.0,0.0,0.0,0.0,0.0,0.0,0.0,0.0,0.0,0.0,0.0,0.0,0.0,0.0,0.0,0.0,0.0,0.0,0.0,0.0,0.0,0.0,0.0,0.0,0.0,0.0,0.0,0.0,0.0,0.0,0.0,0.0,0.0,0.0,0.0,0.0,0.0,0.0,0.0,0.0,0.0,0.0,0.0,0.0,0.0,0.0,0.0,0.0,0.0,0.0,0.0,0.0,0.0,0.0,-0.7044,-0.7406,-0.7677,-0.7895,-0.7901,-0.8008,-0.8168,-0.8168,-0.8162,-0.8256,0.0,0.0,0.0,0.0,0.0,0.0,0.0,0.0,0.0,0.0,0.0,0.0,0.0,0.0,0.0,0.0,0.0,0.0,0.0,0.0,0.0,0.0,0.0,0.0,0.0,0.0,0.0,0.0,0.0,0.0,0.0,0.0,0.0,0.0,0.0,0.0,0.0,0.0,0.0,-0.6259,-0.6317,0.0,0.0,0.0,0.0,0.0,0.0,0.0,0.0,-0.8939,0.0,0.0,0.0,0.0,0.0,0.0,0.0,0.0,0.0,0.0,0.0,0.0,0.0,0.0,0.0,0.0,0.0,0.0,0.0,0.0,0.0,0.0,0.0,0.0,0.0,0.0,0.0,0.0,0.0,0.0,0.0,0.0,0.0,0.0,0.0,0.0,0.0,0.0,0.0,0.0,0.0,0.0,0.0,0.0,0.0,0.0,0.0,0.0,0.0,0.0,0.0,0.0,0.0,0.0,0.0,-0.7321,-0.7607,-0.7822,-0.7895,-0.7901,-0.7888,-0.7957,-0.7951,-0.7934,0.0,0.0,0.0,0.0,0.0,0.0,0.0,0.0,0.0,0.0,0.0,0.0,0.0,0.0,0.0,0.0,0.0,0.0,0.0,0.0,0.0,0.0,0.0,0.0,0.0,0.0,0.0,0.0,0.0,0.0,0.0,0.0,0.0,0.0,0.0,0.0,0.0,0.0,0.0,0.0,-0.6499,-0.6561,-0.7039,0.0,0.0,0.0,0.0,0.0,0.0,-0.8764,-0.8904,0.0,0.0,0.0,0.0,0.0,0.0,0.0,0.0,0.0,0.0,0.0,0.0,0.0,0.0,0.0,0.0,0.0,0.0,0.0,0.0,0.0,0.0,0.0,0.0,0.0,0.0,0.0,0.0,0.0,0.0,0.0,0.0,0.0,0.0,0.0,0.0,0.0,0.0,0.0,0.0,0.0,0.0,0.0,0.0,0.0,0.0,0.0,0.0,0.0,0.0,0.0,0.0,0.0,0.0,0.0,-0.7352,-0.7707,-0.7901,-0.7901,-0.7901,-0.7852,-0.7795,-0.7833,-0.7785,0.0,0.0,0.0,0.0,0.0,0.0,0.0,0.0,0.0,0.0,0.0,0.0,0.0,0.0,0.0,0.0,0.0,0.0,0.0,0.0,0.0,0.0,0.0,0.0,0.0,0.0,0.0,0.0,0.0,0.0,0.0,0.0,0.0,0.0,0.0,0.0,0.0,0.0,0.0,0.0,0.0,-0.6848,-0.7241,-0.749,0.0,0.0,0.0,0.0,-0.8658,-0.8771,0.0,0.0,0.0,0.0,0.0,0.0,0.0,0.0,0.0,0.0,0.0,0.0,0.0,0.0,0.0,0.0,0.0,0.0,0.0,0.0,0.0,0.0,0.0,0.0,0.0,0.0,0.0,0.0,0.0,0.0,0.0,0.0,0.0,0.0,0.0,0.0,0.0,0.0,0.0,0.0,0.0,0.0,0.0,0.0,0.0,0.0,0.0,0.0,0.0,0.0,0.0,0.0,0.0,0.0,0.0,0.0,-0.7226,-0.7681,-0.7901,-0.7901,-0.7901,-0.799,-0.8119,-0.8271,-0.8357,0.0,0.0,0.0,0.0,0.0,0.0,0.0,0.0,0.0,0.0,0.0,0.0,0.0,0.0,0.0,0.0,0.0,0.0,0.0,0.0,0.0,0.0,0.0,0.0,0.0,0.0,0.0,0.0,0.0,0.0,0.0,0.0,0.0,0.0,0.0,0.0,0.0,0.0,0.0,0.0,0.0,-0.7311,-0.7379,-0.7702,-0.8044,0.0,0.0,-0.9233,-0.9658,-0.9756,0.0,0.0,0.0,0.0,0.0,0.0,0.0,0.0,0.0,0.0,0.0,0.0,0.0,0.0,0.0,0.0,0.0,0.0,0.0,0.0,0.0,0.0,0.0,0.0,0.0,0.0,0.0,0.0,0.0,0.0,0.0,0.0,0.0,0.0,0.0,0.0,0.0,0.0,0.0,0.0,0.0,0.0,0.0,0.0,0.0,0.0,0.0,0.0,0.0,0.0,0.0,0.0,0.0,0.0,0.0,-0.7538,-0.7437,-0.7757,-0.7901,-0.7901,-0.7901,-0.7935,-0.7939,-0.7984,-0.8005,0.0,0.0,0.0,0.0,0.0,0.0,0.0,0.0,0.0,0.0,0.0,0.0,0.0,0.0,0.0,0.0,0.0,0.0,0.0,0.0,0.0,0.0,0.0,0.0,0.0,0.0,0.0,0.0,0.0,0.0,0.0,0.0,0.0,0.0,0.0,0.0,0.0,0.0,0.0,0.0,0.0,0.0,-0.8138,-0.8349,0.0,0.0,0.0,-0.9482,-0.9717,0.0,0.0,0.0,0.0,0.0,0.0,0.0,0.0,0.0,0.0,0.0,0.0,0.0,0.0,0.0,0.0,0.0,0.0,0.0,0.0,0.0,0.0,0.0,0.0,0.0,0.0,0.0,0.0,0.0,0.0,0.0,0.0,0.0,0.0,0.0,0.0,0.0,0.0,0.0,0.0,0.0,0.0,0.0,0.0,0.0,0.0,0.0,0.0,0.0,0.0,0.0,0.0,0.0,0.0,0.0,0.0,0.0,-0.7698,-0.7852,-0.7901,-0.7901,-0.7901,-0.7858,-0.7768,-0.7807,0.0,0.0,0.0,0.0,0.0,0.0,0.0,0.0,0.0,0.0,0.0,0.0,0.0,0.0,0.0,0.0,0.0,0.0,0.0,0.0,0.0,0.0,0.0,0.0,0.0,0.0,0.0,-0.7352,0.0,0.0,0.0,0.0,0.0,0.0,0.0,0.0,0.0,0.0,0.0,0.0,0.0,0.0,-0.8469,-0.8786,-0.8959,-0.9195,0.0,0.0,-0.9794,-0.99,-0.99,-0.9831,0.0,0.0,0.0,0.0,0.0,0.0,0.0,0.0,0.0,0.0,0.0,0.0,0.0,0.0,0.0,0.0,0.0,0.0,0.0,0.0,0.0,0.0,0.0,0.0,0.0,0.0,0.0,0.0,0.0,0.0,0.0,0.0,0.0,0.0,0.0,0.0,0.0,0.0,0.0,0.0,0.0,0.0,0.0,0.0,0.0,0.0,0.0,0.0,0.0,0.0,0.0,0.0,0.0,0.0,0.0,-0.7871,-0.7889,-0.7901,-0.7901,-0.7901,-0.7889,-0.7877,-0.809,-0.8178,0.0,0.0,0.0,0.0,0.0,0.0,0.0,0.0,0.0,0.0,0.0,0.0,0.0,0.0,0.0,0.0,0.0,0.0,0.0,0.0,0.0,0.0,0.0,0.0,0.0,0.0,0.0,0.0,0.0,0.0,0.0,0.0,0.0,0.0,0.0,0.0,0.0,0.0,0.0,0.0,0.0,-0.8929,-0.8968,-0.948,-0.9825,0.0,0.0,-1.0501,-1.0564,-1.0564,-1.0369,-0.974,0.0,0.0,0.0,0.0,0.0,0.0,0.0,0.0,0.0,0.0,0.0,0.0,0.0,0.0,0.0,0.0,0.0,0.0,0.0,0.0,0.0,0.0,0.0,0.0,0.0,0.0,0.0,0.0,0.0,0.0,0.0,0.0,0.0,0.0,0.0,0.0,0.0,0.0,0.0,0.0,0.0,0.0,0.0,0.0,0.0,0.0,0.0,0.0,0.0,0.0,0.0,0.0,0.0,-0.7901,-0.7901,-0.7901,-0.7901,-0.7901,-0.7901,-0.7901,-0.7901,-0.7955,-0.8062,0.0,0.0,0.0,0.0,0.0,0.0,0.0,0.0,0.0,0.0,0.0,0.0,0.0,0.0,0.0,0.0,0.0,0.0,0.0,0.0,0.0,0.0,0.0,0.0,0.0,0.0,0.0,0.0,-0.7152,-0.6984,-0.6757,0.0,0.0,0.0,0.0,0.0,0.0,0.0,0.0,0.0,0.0,-0.9153,-0.9516,-0.9816,0.0,0.0,-1.0801,-1.0877,-1.094,-1.0807,-1.0547,-0.989,-0.9795,0.0,0.0,0.0,0.0,0.0,0.0,0.0,0.0,0.0,0.0,0.0,0.0,0.0,0.0,0.0,0.0,0.0,0.0,0.0,0.0,0.0,0.0,0.0,0.0,0.0,0.0,0.0,0.0,0.0,0.0,0.0,0.0,0.0,0.0,0.0,0.0,0.0,0.0,0.0,0.0,0.0,0.0,0.0,0.0,0.0,0.0,0.0,0.0,0.0,0.0,0.0,0.0,-0.7788,-0.7901,-0.7848,-0.7848,-0.7901,-0.7901,-0.7848,-0.7842,-0.7842,-0.7895,0.0,0.0,0.0,0.0,0.0,0.0,0.0,0.0,0.0,0.0,0.0,0.0,0.0,0.0,0.0,0.0,0.0,0.0,0.0,0.0,0.0,0.0,0.0,0.0,0.0,0.0,0.0,0.0,-0.7123,-0.6872,-0.68,0.0,0.0,0.0,0.0,0.0,0.0,0.0,0.0,0.0,0.0,-0.9323,-0.9886,-1.0154,-1.0457,-1.1044,-1.1129,-1.1129,-1.1129,-1.0933,-1.0636,-1.0123,0.0,0.0,0.0,0.0,0.0,0.0,0.0,0.0,0.0,0.0,0.0,0.0,0.0,0.0,0.0,0.0,0.0,0.0,0.0,0.0,0.0,0.0,0.0,0.0,0.0,0.0,0.0,0.0,0.0,0.0,0.0,0.0,0.0,0.0,0.0,0.0,0.0,0.0,0.0,0.0,0.0,0.0,0.0,0.0,0.0,0.0,0.0,0.0,0.0,0.0,0.0,0.0,0.0,-0.7628,-0.7901,-0.7788,-0.7788,-0.7907,-0.7907,-0.786,-0.7741,-0.7729,-0.7681,-0.7532,0.0,0.0,0.0,0.0,0.0,0.0,0.0,0.0,0.0,0.0,0.0,0.0,0.0,0.0,0.0,0.0,0.0,0.0,0.0,0.0,0.0,0.0,0.0,0.0,0.0,0.0,-0.7551,-0.7004,-0.677,0.0,0.0,0.0,0.0,0.0,0.0,0.0,0.0,0.0,0.0,-0.9194,-0.9549,-1.0029,-1.0387,-1.0735,-1.1073,-1.1129,-1.1129,-1.1122,-1.0933,-1.0705,0.0,0.0,0.0,0.0,0.0,0.0,0.0,0.0,0.0,0.0,0.0,0.0,0.0,0.0,0.0,0.0,0.0,0.0,0.0,0.0,0.0,0.0,0.0,0.0,0.0,0.0,0.0,-1.0818,-1.0607,0.0,0.0,0.0,0.0,0.0,0.0,0.0,0.0,0.0,0.0,0.0,-0.7857,-0.7704,0.0,0.0,0.0,0.0,0.0,0.0,0.0,0.0,0.0,0.0,0.0,0.0,-0.7568,-0.7794,-0.7899,-0.8049,-0.8159,-0.822,-0.8309,-0.8246,-0.8075,-0.8017,-0.7966,0.0,0.0,0.0,0.0,0.0,0.0,0.0,0.0,0.0,0.0,0.0,0.0,0.0,0.0,0.0,0.0,0.0,0.0,0.0,0.0,0.0,0.0,0.0,0.0,0.0,-0.7822,0.0,0.0,0.0,0.0,0.0,0.0,0.0,0.0,0.0,0.0,0.0,-0.8811,-0.8857,-0.9097,-0.95,-1.0065,-1.0451,-1.0768,0.0,0.0,0.0,0.0,0.0,0.0,0.0,0.0,0.0,0.0,0.0,0.0,0.0,0.0,-0.984,-0.9679,-0.9629,-0.9583,-0.9418,0.0,0.0,0.0,0.0,0.0,0.0,0.0,0.0,0.0,0.0,0.0,0.0,0.0,0.0,0.0,0.0,-1.0383,0.0,0.0,0.0,0.0,0.0,0.0,0.0,0.0,-0.8175,-0.7974,-0.7804,-0.7578,-0.7328,0.0,-0.7072,-0.7067,0.0,0.0,0.0,0.0,0.0,0.0,0.0,0.0,-0.7592,-0.7761,-0.8016,-0.8212,-0.8384,-0.8428,-0.8451,-0.8333,-0.8156,-0.8038,-0.8038,-0.8172,-0.8211,0.0,0.0,0.0,0.0,0.0,0.0,0.0,0.0,0.0,0.0,0.0,0.0,0.0,0.0,0.0,0.0,0.0,0.0,0.0,0.0,0.0,0.0,0.0,-0.7704,0.0,0.0,0.0,0.0,0.0,0.0,0.0,0.0,0.0,-0.8804,-0.8804,-0.8804,-0.8956,-0.9106,-0.9447,-1.0073,0.0,0.0,0.0,0.0,0.0,0.0,0.0,-1.078,-1.0684,-1.0428,-1.0147,-1.0168,-1.0212,-1.0339,-1.0536,0.0,0.0,-1.0208,-1.0067,-0.9951,-0.9775,-0.9531,-0.9345,-0.9101,-0.8919,-0.8703,0.0,0.0,0.0,0.0,0.0,0.0,0.0,0.0,-1.0379,-1.0437,0.0,-1.0343,0.0,0.0,0.0,0.0,0.0,0.0,0.0,0.0,-0.8182,-0.8032,-0.7866,-0.7614,-0.7352,-0.7173,-0.6782,-0.6613,-0.6542,-0.6827,0.0,0.0,0.0,0.0,0.0,0.0,-0.7559,-0.7892,-0.8154,-0.8351,-0.8522,-0.854,-0.8362,-0.806,-0.7882,-0.7833,-0.7822,-0.799,-0.7991,-0.7926,-0.8241,0.0,0.0,0.0,0.0,0.0,0.0,0.0,0.0,0.0,0.0,0.0,0.0,0.0,0.0,0.0,0.0,0.0,0.0,0.0,0.0,-0.8191,0.0,0.0,0.0,0.0,0.0,0.0,0.0,0.0,0.0,0.0,-0.8804,-0.8811,-0.891,-0.9159,0.0,0.0,0.0,0.0,-1.0704,-1.1055,-1.1232,-1.1303,-1.131,-1.1003,-1.0853,-1.1125,0.0,0.0,-1.0767,-1.0817,-1.0899,-1.1106,-1.1119,-1.1086,-1.0755,-1.0698,-1.0639,-1.0454,-1.0301,-1.0164,-0.984,-0.961,-0.9433,-0.9478,0.0,0.0,0.0,0.0,-1.0115,-1.0408,-1.085,-1.0981,-1.0809,-1.0486,-1.0362,0.0,0.0,0.0,0.0,0.0,0.0,-0.8696,-0.8743,-0.8244,-0.8014,-0.7955,-0.7502,-0.7172,-0.6992,-0.6858,-0.6698,-0.6453,-0.6766,-0.6864,-0.6736,0.0,0.0,0.0,0.0,-0.7559,-0.7915,-0.8379,-0.867,-0.8786,-0.8838,-0.8685,-0.837,-0.8433,-0.8502,-0.8491,-0.8572,-0.8624,-0.8609,-0.8235,0.0,0.0,0.0,0.0,0.0,0.0,0.0,0.0,0.0,0.0,0.0,0.0,0.0,0.0,0.0,0.0,0.0,0.0,0.0,-0.8381,-0.8199,-0.7973,0.0,0.0,0.0,0.0,0.0,0.0,0.0,0.0,0.0,-0.8804,-0.891,-0.8956,0.0,0.0,-0.9713,-1.0375,-1.0642,-1.0952,-1.1517,0.0,0.0,0.0,-1.0921,-1.0758,-1.085,-1.0989,-1.1083,-1.0947,-1.1194,-1.1537,-1.1682,-1.1937,-1.2103,-1.2138,-1.1517,-1.1002,-1.0772,-1.0554,-1.0333,-1.0061,-0.9857,-0.9701,-0.9947,-0.9467,-0.9376,-0.9682,-1.024,-1.0377,-1.0635,-1.1011,-1.108,-1.0946,-1.0634,-1.0574,-1.0251,-0.9875,-0.9687,0.0,0.0,0.0,-0.9177,-0.9325,-0.8724,-0.8384,-0.8255,-0.7774,-0.74,-0.7132,-0.706,-0.6898,-0.6578,-0.6898,-0.6987,-0.6909,0.0,0.0,-0.6949,-0.7424,-0.7816,-0.8057,-0.8659,-0.8919,-0.8919,-0.8942,-0.8829,-0.8705,-0.8829,-0.8899,-0.8894,-0.8937,-0.8935,-0.8892,-0.8545,-0.8381,0.0,0.0,0.0,0.0,0.0,0.0,0.0,0.0,0.0,0.0,0.0,-0.9614,0.0,0.0,0.0,0.0,-0.885,-0.854,-0.8221,-0.8109,0.0,0.0,0.0,0.0,0.0,0.0,0.0,-0.8971,-0.9032,-0.9133,-0.935,-0.9535,-0.9587,-0.9414,-0.976,-1.0203,-1.0699,0.0,-1.1152,-1.1548,-1.1348,-1.1164,-1.122,-1.1005,-1.0863,-1.1038,-1.1301,-1.1518,-1.1319,-1.1531,-1.1774,-1.1961,-1.2326,-1.2682,-1.2905,-1.2547,-1.2138,-1.1773,-1.1407,-1.112,-1.0972,-1.0736,-1.0586,-1.0318,-1.0231,-1.0353,-1.0469,-1.0641,-1.0571,-1.0647,-1.0805,-1.0805,-1.0786,-1.0773,-1.0767,-1.0691,-1.0534,-1.0396,0.0,0.0,-0.9991,-0.9846,-0.9788,-0.9287,-0.8936,-0.873,-0.8292,-0.7915,-0.7537,-0.7377,-0.7203,-0.6973,-0.7143,-0.7228,-0.7212,-0.7131,-0.7038,-0.6997,-0.7742,-0.8151,-0.8322,-0.8941,-0.9204,-0.9017,-0.8894,-0.8899,-0.9022,-0.9,-0.8988,-0.8982,-0.9035,-0.8989,-0.8959,-0.9022,-0.8939,-0.8602,0.0,0.0,0.0,0.0,0.0,0.0,0.0,0.0,0.0,0.0,0.0,0.0,0.0,0.0,0.0,-0.8738,0.0,-0.8253,-0.8092,0.0,0.0,0.0,-0.8391,-0.8491,-0.8645,-0.8857,-0.9307,0.0,0.0,0.0,0.0,-1.0521,-1.0111,-1.0419,-1.083,-1.1081,-1.129,-1.1376,-1.1436,-1.1276,-1.1263,-1.1444,-1.124,-1.1154,-1.1507,-1.1833,-1.1903,-1.1761,-1.1774,-1.1855,-1.2003,-1.247,-1.2898,-1.3058,-1.3502,-1.3708,-1.3114,-1.2705,-1.2374,-1.2324,-1.1942,-1.1744,-1.1408,-1.1175,-1.1175,-1.1003,-1.07,-1.07,-1.0809,-1.0991,-1.0991,-1.0882,-1.0694,-1.0694,-1.0584,-1.0396,-1.0333,-1.0333,-1.0327,-1.013,-0.9921,-0.9788,-0.9421,-0.9146,-0.8936,-0.8503,-0.8197,-0.7929,-0.7642,-0.7473,-0.7351,-0.7404,-0.7416,-0.7404,-0.7726,-0.7715,-0.7335,-0.783,-0.821,-0.8451,-0.9009,-0.9274,-0.9204,-0.9022,-0.8952,-0.9022,-0.908,-0.9098,-0.9098,-0.9102,-0.9186,-0.9254,-0.9337,-0.9188,-0.8695,-0.8524,0.0,0.0,0.0,0.0,0.0,0.0,0.0,0.0,0.0,-0.9832,-0.9825,0.0,-0.9302,0.0,-0.8738,-0.8558,-0.8508,-0.8521,0.0,0.0,-0.9168,-0.9289,-0.9586,-0.9642,-0.9726,-0.9966,-1.0087,-1.0229,-1.0358,-1.0923,-1.1409,-1.1441,-1.1321,-1.1363,-1.162,-1.1721,-1.1877,-1.202,-1.1888,-1.1747,-1.1673,-1.1506,-1.1488,-1.1627,-1.1883,-1.2003,-1.1935,-1.2224,-1.2378,-1.2472,-1.2845,-1.3175,-1.3279,-1.3789,-1.4219,-1.4167,-1.3753,-1.3279,-1.3107,-1.2726,-1.2599,-1.1842,-1.1697,-1.1582,-1.1359,-1.1069,-1.0948,-1.0979,-1.1111,-1.1117,-1.1027,-1.0894,-1.0894,-1.081,-1.0677,-1.0677,-1.0677,-1.0605,-1.0467,-1.0329,-1.0252,-0.9957,-0.9741,-0.9529,-0.9301,-0.9026,-0.8786,-0.8589,-0.8364,-0.8107,-0.8122,-0.8088,-0.8054,-0.8199,-0.8199,-0.8075,-0.8312,-0.856,-0.8686,-0.9068,-0.9338,-0.9408,-0.921,-0.9145,-0.9215,-0.9328,-0.9444,-0.9438,-0.9481,-0.9604,-0.9681,-0.9556,-0.933,-0.9016,-0.8865,-0.8792,0.0,0.0,0.0,0.0,0.0,0.0,0.0,0.0,0.0,0.0,0.0,-0.9534,0.0,-0.9137,0.0,-0.9016,-0.9193,-0.9486,-0.9768,-0.9897,-1.0027,-1.0257,-1.0315,-1.043,-1.0682,-1.0865,-1.0975,-1.1241,-1.1773,-1.2205,-1.2386,-1.2378,-1.238,-1.2322,-1.2438,-1.245,-1.2536,-1.2411,-1.2226,-1.2208,-1.2256,-1.2335,-1.2265,-1.2298,-1.2372,-1.2378,-1.2599,-1.2746,-1.2847,-1.3301,-1.3665,-1.3755,-1.4277,-1.4815,-1.5035,-1.4954,-1.4649,-1.4261,-1.3944,-1.3705,-1.1999,-1.195,-1.1721,-1.1594,-1.151,-1.1268,-1.1141,-1.1117,-1.1117,-1.1117,-1.1117,-1.1117,-1.1117,-1.1117,-1.1117,-1.1117,-1.1111,-1.0893,-1.0812,-1.0812,-1.0663,-1.0443,-1.0293,-1.0293,-1.0101,-0.9745,-0.9717,-0.9493,-0.9094,-0.9034,-0.8959,-0.8874,-0.8622,-0.8685,-0.8939,-0.8945,-0.9001,-0.8945,-0.9225,-0.9402,-0.9478,-0.9408,-0.9402,-0.9478,-0.9703,-0.9748,-0.9748,-0.9901,-0.9964,-0.9983,-0.9729,-0.9467,-0.9425,-0.9419,-0.933,0.0,-0.9615,0.0,0.0,0.0,0.0,0.0,0.0,0.0,0.0,-0.9983,-0.9795,-0.9512,-0.9686,-0.9751,-0.9655,-0.9945,-1.0256,-1.0429,-1.061,-1.0784,-1.09,-1.0957,-1.1069,-1.1473,-1.1682,-1.1918,-1.2296,-1.2674,-1.292,-1.3086,-1.3356,-1.3391,-1.3208,-1.3086,-1.3025,-1.2875,-1.2767,-1.2808,-1.2906,-1.3143,-1.3178,-1.3039,-1.2973,-1.2973,-1.2973,-1.3039,-1.3119,-1.336,-1.3704,-1.4119,-1.4276,-1.4835,-1.542,-1.5819,-1.6063,-1.6014,-1.5553,-1.512,-1.4909,-1.2433,-1.2234,-1.2192,-1.1926,-1.1528,-1.1473,-1.1323,-1.1117,-1.1117,-1.1117,-1.1117,-1.1117,-1.1117,-1.1117,-1.1117,-1.1117,-1.1117,-1.1037,-1.0962,-1.0812,-1.0962,-1.0887,-1.0663,-1.0893,-1.0789,-1.0576,-1.0391,-1.0174,-0.9939,-0.9593,-0.9371,-0.9314,-0.9197,-0.9134,0.0,0.0,0.0,0.0,-0.946,-0.9478,-0.9478,-0.9478,-0.9478,-0.9478,-0.9587,0.0,-0.9648,-0.9734,-0.9774,-0.9936,-0.9761,0.0,0.0,0.0,0.0,0.0,0.0,0.0,0.0,0.0,0.0,0.0,-1.139,-1.1311,-1.0402,-1.0055,-0.9853,-0.9686,-1.0027,-1.0298,-1.0485,-1.0863,-1.1271,-1.1715,-1.1867,-1.1989,-1.2163,-1.2155,-1.2195,-1.231,-1.2456,-1.2655,-1.2842,-1.3155,-1.3459,-1.3649,-1.395,-1.4019,-1.383,-1.3709,-1.3528,-1.3258,-1.334,-1.3442,-1.3787,-1.3795,-1.3695,-1.3411,-1.3346,-1.3419,-1.3419,-1.3695,-1.384,-1.3985,-1.4263,-1.4535,-1.4607,-1.5014,-1.5581,-1.6089,-1.6624,-1.6776,-1.6198,-1.5897,-1.5755,-1.2626,0.0,-1.2367,-1.2161,0.0,-1.1642,-1.1449,-1.131,-1.1172,-1.1117,-1.1117,-1.1117,-1.1117,-1.1117,-1.1117,-1.1265,-1.1474,-1.1474,-1.1542,-1.167,-1.1895,-1.1897,-1.1614,-1.1841,-1.184,-1.1558,-1.1346,-1.1137,-1.0857,-1.0453,-1.0185,-0.9985,-0.9729,-0.9598,-0.9592,-0.9544,-0.9478,-0.9478,-0.9478,-0.9478,-0.9478,-0.9478,-0.9478,-0.9478,0.0,0.0,0.0,0.0,0.0,0.0,0.0,0.0,0.0,0.0,0.0,-1.0092,-1.0342,-1.0601,-1.0884,-1.1104,-1.1313,-1.1471,-1.1885,-1.1854,-1.1247,-1.1136,-1.0989,-1.0773,-1.1189,-1.1433,-1.138,-1.1813,-1.2179,-1.2528,-1.2674,-1.2842,-1.2964,-1.2964,-1.3025,-1.3155,-1.3285,-1.3467,-1.3588,-1.3821,-1.4052,-1.424,-1.4309,-1.4378,-1.43,-1.4189,-1.4004,-1.4061,-1.4157,-1.4354,-1.4678,-1.4633,-1.4482,-1.4346,-1.4266,-1.4274,-1.4353,-1.4489,-1.4697,-1.4776,-1.4919,-1.507,-1.5292,-1.5648,-1.6029,-1.6598,-1.7072,-1.7203,-1.6901,-1.6826,-1.6648,-1.2705,-1.2687,-1.2475,-1.2361,-1.2282,-1.1848,-1.1648,-1.166,0.0,0.0,0.0,-1.1166,-1.1259,-1.1265,-1.1307,-1.1612,-1.2067,-1.2073,-1.227,-1.2724,-1.2949,-1.2896,-1.2749,-1.2903,-1.2851,-1.254,-1.233,-1.2111,-1.1801,-1.1344,-1.0966,-1.0672,-1.0208,-1.0013,-0.9922,-0.9682,-0.955,-0.955,-0.9508,-0.9478,-0.9478,-0.9478,-0.9478,-0.9478,-0.967,-0.9862,-0.9989,-1.0226,-1.0443,-1.0635,-1.0681,-1.0644,-1.0528,-1.1166,-1.1375,-1.0949,-1.1289,-1.1587,-1.1847,-1.1923,-1.2012,-1.2336,-1.2618,-1.2567,-1.2194,-1.2323,-1.2349,-1.208,-1.2535,-1.2631,-1.236,-1.2707,-1.3042,-1.3164,-1.3338,-1.3511,-1.3631,-1.37,-1.3752,-1.3941,-1.4061,-1.4276,-1.4478,-1.4607,-1.4796,-1.492,-1.4935,-1.48,-1.4861,-1.468,-1.4576,-1.4967,-1.5085,-1.5268,-1.5574,-1.5559,-1.5417,-1.5401,-1.5259,-1.5188,-1.5338,-1.5409,-1.5488,-1.5638,-1.5709,-1.5921,-1.6202,-1.6421,-1.6686,-1.7279,-1.7576,-1.771,-1.7657,-1.7688,-1.7559,-1.2705,-1.2699,-1.2662,-1.2524,-1.2306,-1.2234,-1.2164,-1.2153,-1.1411,-1.1117,-1.1123,-1.16,-1.1787,-1.18,-1.2186,-1.2542,-1.2726,-1.2811,-1.291,0.0,-1.343,-1.3482,-1.3447,-1.3682,-1.374,-1.3677,-1.3355,-1.3044,-1.2572,-1.1893,-1.1345,-1.0926,-1.0475,-1.0272,-1.0254,-0.9952,-0.9814,-0.9814,-0.9598,-0.9478,-0.9478,-0.9478,-0.9478,-0.9548,-0.9682,-0.9804,-0.9868,-1.0347,-1.0666,-1.0673,-1.0881,-1.108,-1.1235,-1.171,-1.188,-1.1574,-1.1826,-1.2164,-1.2649,-1.267,-1.2989,-1.3746,-1.4119,-1.3871,-1.2901,-1.2908,-1.3027,-1.3173,-1.3396,-1.3435,-1.3424,-1.3549,-1.3761,-1.3856,-1.4019,-1.413,-1.4396,-1.4524,-1.4584,-1.4653,-1.4706,-1.5072,-1.5546,-1.5543,-1.5676,-1.6042,-1.5951,-1.5911,-1.5826,-1.5408,-1.523,-1.5679,-1.5982,-1.6156,-1.6356,-1.6394,-1.6315,-1.6167,-1.6167,-1.6097,-1.6167,-1.6324,-1.6403,-1.6464,-1.6612,-1.6751,-1.7028,-1.7166,-1.7464,-1.7925,-1.8213,-1.8383,-1.8373,-1.8469,-1.8392,-1.2705,-1.2705,-1.2705,-1.2632,-1.2512,-1.2545,-1.25,-1.2473,-1.2207,-1.2016,-1.1952,-1.2311,-1.244,-1.2452,-1.2818,-1.32,-1.3501,-1.3501,-1.3756,-1.4239,-1.4476,-1.4553,-1.4562,-1.4706,-1.4705,-1.4365,-1.4142,-1.3669,-1.3113,-1.239,-1.1816,-1.1363,-1.0814,-1.0472,-1.0327,-1.0212,-1.0152,-1.0071,-0.9688,-0.9478,-0.9484,-0.9622,-0.9694,-0.9694,-0.9959,-1.0177,-1.0371,-1.0693,-1.0892,-1.1094,-1.1431,-1.1635,-1.1567,-1.2386,-1.2702,-1.2381,-1.2733,-1.3097,-1.3465,-1.3899,-1.4387,-1.4966,-1.5321,-1.5295,-1.4703,-1.4591,-1.4542,-1.4412,-1.4703,-1.4867,-1.4667,-1.4809,-1.4961,-1.5201,-1.5272,-1.5448,-1.5695,-1.593,-1.6052,-1.6113,-1.6225,-1.6426,-1.6757,-1.6663,-1.6661,-1.6888,-1.6709,-1.6519,-1.6411,-1.6322,-1.626,-1.6402,-1.6524,-1.6719,-1.6936,-1.7019,-1.7097,-1.7176,-1.7157,-1.7079,-1.7157,-1.7304,-1.7373,-1.7373,-1.7451,-1.7588,-1.7725,-1.7852,-1.8027,-1.8252,-1.8488,-1.8567,-1.8577,-1.8724,-1.8634,-1.2705,-1.2705,-1.279,-1.279,-1.2857,-1.2918,-1.2953,-1.2924,-1.3139,-1.322,-1.3146,-1.316,-1.3121,-1.3207,-1.3513,-1.3918,-1.4274,-1.4377,-1.4682,-1.5325,-1.5484,-1.5517,-1.5463,-1.561,-1.5473,-1.4986,-1.4739,-1.4272,-1.3586,-1.2956,-1.2241,-1.1658,-1.1089,-1.0707,-1.0578,-1.0518,-1.0487,-1.0457,-1.0031,-0.9788,-0.9729,-0.9922,-1.0092,-1.0178,-1.0355,-1.0604,-1.0955,-1.1082,-1.1253,-1.1606,-1.2033,-1.2283,-1.2131,-1.3023,-1.3454,-1.3219,-1.369,-1.4194,-1.4553,-1.5196,-1.5754,-1.6105,-1.6446,-1.6618,-1.6537,-1.654,-1.6269,-1.5848,-1.6044,-1.6147,-1.5928,-1.5919,-1.6147,-1.6465,-1.6529,-1.6607,-1.6961,-1.7222,-1.7399,-1.7523,-1.7709,-1.7771,-1.7833,-1.7874,-1.7748,-1.7661,-1.7322,-1.7076,-1.6986,-1.7183,-1.7282,-1.7321,-1.7264,-1.7312,-1.7522,-1.7579,-1.7735,-1.8105,-1.7949,-1.793,-1.7998,-1.8076,-1.8076,-1.8076,-1.8076,-1.8144,-1.8337,-1.8395,-1.8482,-1.859,-1.8667,-1.8637,-1.8724,-1.8782,-1.8895,-1.2705,-1.2705,-1.2966,-1.3143,-1.3392,-1.3529,-1.3756,-1.3981,-1.4149,-1.4483,-1.4774,-1.4199,-1.3913,-1.4035,-1.4606,-1.5065,-1.5253,-1.5433,-1.5711,-1.5997,-1.6004,-1.6072,-1.6026,-1.6034,-1.5936,-1.5591,-1.5102,-1.4699,-1.4132,-1.326,-1.238,-1.1563,-1.1214,-1.1131,-1.1224,-1.1087,-1.1041,-1.1177,-1.0956,-1.0666,-1.0529,-1.0485,-1.0642,-1.0848,-1.0805,-1.0949,-1.1201,-1.155,-1.1901,-1.2134,-1.2734,-1.3107,-1.3092,-1.3708,-1.4091,-1.4148,-1.4601,-1.5108,-1.5762,-1.6376,-1.6793,-1.7001,-1.7491,-1.7823,-1.7813,-1.824,-1.8202,-1.7552,-1.7178,-1.7034,-1.6948,-1.6854,-1.6933,-1.7269,-1.7302,-1.7336,-1.7709,-1.8027,-1.8211,-1.8222,-1.8574,-1.874,-1.8942,-1.8839,-1.8742,-1.8568,-1.8258,-1.8058,-1.8088,-1.8071,-1.814,-1.8247,-1.82,-1.8133,-1.8202,-1.8337,-1.8347,-1.8424,-1.8414,-1.8414,-1.8472,-1.8482,-1.8482,-1.8472,-1.8482,-1.8549,-1.8684,-1.8741,-1.8808,-1.8875,-1.9008,-1.8998,-1.9075,-1.9008,-1.9075,-1.3039,-1.313,-1.3398,-1.3646,-1.3984,-1.4237,-1.4412,-1.4755,-1.4985,-1.5235,-1.5394,-1.527,-1.5129,-1.5047,-1.5448,-1.5748,-1.5824,-1.5914,-1.6079,-1.6245,-1.6237,-1.6327,-1.6409,-1.6492,-1.6245,-1.5997,-1.5696,-1.5123,-1.4258,-1.334,-1.2589,-1.1939,-1.1796,-1.174,-1.1719,-1.1672,-1.1687,-1.1906,-1.1795,-1.1807,-1.1852,-1.1423,-1.1262,-1.1499,-1.1644,-1.1872,-1.2172,-1.236,-1.2704,-1.3143,-1.3548,-1.3833,-1.4042,-1.4561,-1.4991,-1.5196,-1.5745,-1.6376,-1.7139,-1.7491,-1.791,-1.824,-1.8721,-1.8988,-1.9044,-1.9386,-1.9473,-1.9285,-1.8721,-1.8258,-1.8304,-1.8228,-1.8322,-1.8581,-1.8645,-1.8763,-1.9137,-1.9412,-1.9561,-1.9665,-1.9813,-1.992,-1.9971,-1.9705,-1.9392,-1.9121,-1.8808,-1.8741,-1.8549,-1.8482,-1.8414,-1.8482,-1.8539,-1.8549,-1.8559,-1.8617,-1.8694,-1.8849,-1.8828,-1.8875,-1.8875,-1.8875,-1.8885,-1.8875,-1.8808,-1.8875,-1.8942,-1.8942,-1.9008,-1.9131,-1.9131,-1.9131,-1.9131,-1.9131,-1.9131,-1.3385,-1.3652,-1.3906,-1.423,-1.4566,-1.4908,-1.5075,-1.5333,-1.5658,-1.5824,-1.5899,-1.6072,-1.6072,-1.5989,-1.6162,-1.6162,-1.6177,-1.6353,-1.6474,-1.664,-1.6711,-1.6841,-1.7016,-1.7016,-1.6773,-1.653,-1.6369,-1.5686,-1.4517,-1.3649,-1.2975,-1.2635,-1.2538,-1.2503,-1.2384,-1.2432,-1.2452,-1.2599,-1.2599,-1.282,-1.3077,-1.2597,-1.2271,-1.237,-1.2549,-1.2893,-1.3185,-1.3331,-1.3615,-1.4194,-1.441,-1.476,-1.5029,-1.5542,-1.6044,-1.6455,-1.707,-1.7755,-1.8297,-1.8586,-1.8931,-1.933,-1.9671,-1.9933,-2.0042,-2.0237,-2.0453,-2.0562,-2.0085,-1.9649,-1.9396,-1.9396,-1.9528,-1.9736,-1.9878,-1.9998,-2.0279,-2.0518,-2.0624,-2.0775,-2.0685,-2.0786,-2.0582,-2.0172,-1.9726,-1.9341,-1.9142,-1.9008,-1.8741,-1.8607,-1.8617,-1.8684,-1.8808,-1.8828,-1.8771,-1.8828,-1.8972,-1.905,-1.9096,-1.9065,-1.9131,-1.9075,-1.9075,-1.8998,-1.9065,-1.9065,-1.9065,-1.9065,-1.9142,-1.9142,-1.9142,-1.9208,-1.9274,-1.9274,-1.9274,-1.3828,-1.4179,-1.4503,-1.486,-1.5097,-1.5506,-1.5658,-1.5688,-1.6004,-1.6162,-1.6312,-1.6394,-1.6484,-1.6672,-1.6523,-1.6402,-1.6448,-1.6936,-1.7254,-1.7278,-1.754,-1.7707,-1.7731,-1.7731,-1.7628,-1.7305,-1.6855,-1.6111,-1.494,-1.431,-1.3852,-1.3649,-1.3386,-1.3338,-1.3307,-1.332,-1.3344,-1.3477,-1.3528,-1.3652,-1.4,-1.3977,-1.3848,-1.3645,-1.3615,-1.3833,-1.4049,-1.4402,-1.4752,-1.5125,-1.5542,-1.5895,-1.6237,-1.6655,-1.7207,-1.7833,-1.8586,-1.9054,-1.9243,-1.9594,-1.9857,-2.0107,-2.0366,-2.0571,-2.0635,-2.0903,-2.1094,-2.1158,-2.1042,-2.0775,-2.0237,-2.0096,-2.0172,-2.0335,-2.0518,-2.0646,-2.0828,-2.1019,-2.1169,-2.1169,-2.1158,-2.0978,-2.0722,-2.0205,-1.9878,-1.9539,-1.9274,-1.9065,-1.8998,-1.8875,-1.8875,-1.9008,-1.9075,-1.9008,-1.8875,-1.8942,-1.9075,-1.9085,-1.9085,-1.9131,-1.9131,-1.9131,-1.9131,-1.9131,-1.9131,-1.9131,-1.9131,-1.9142,-1.9208,-1.9285,-1.9285,-1.9351,-1.9417,-1.955,-1.955,-1.5175,-1.5597,-1.5864,-1.6203,-1.6346,-1.6492,-1.6477,-1.6454,-1.6495,-1.6492,-1.6566,-1.6566,-1.6775,-1.7088,-1.6996,-1.6996,-1.7036,-1.7429,-1.7596,-1.7604,-1.7715,-1.7763,-1.7763,-1.7763,-1.7692,-1.7445,-1.7262,-1.6858,-1.6184,-1.5497,-1.5097,-1.4875,-1.45,-1.4439,-1.4451,-1.429,-1.4268,-1.4541,-1.4673,-1.4893,-1.5194,-1.5692,-1.5972,-1.5856,-1.4985,-1.4689,-1.5196,-1.5401,-1.5745,-1.6237,-1.6655,-1.7001,-1.7413,-1.7959,-1.8519,-1.8998,-1.9396,-1.9791,-2.0107,-2.0237,-2.0506,-2.088,-2.1008,-2.1146,-2.1296,-2.1434,-2.1498,-2.1498,-2.1498,-2.136,-2.1169,-2.0967,-2.0828,-2.1008,-2.1083,-2.1158,-2.136,-2.1348,-2.1411,-2.1423,-2.136,-2.1042,-2.0593,-2.0194,-1.9922,-1.9671,-1.9407,-1.9208,-1.9142,-1.8998,-1.9008,-1.9065,-1.9142,-1.9075,-1.8998,-1.9065,-1.9131,-1.9131,-1.9131,-1.9131,-1.9131,-1.9131,-1.9131,-1.9131,-1.9131,-1.9208,-1.9208,-1.9341,-1.9417,-1.9473,-1.9483,-1.955,-1.9615,-1.9745,-1.9724,-1.6183,-1.6617,-1.6911,-1.7094,-1.7224,-1.718,-1.7102,-1.7077,-1.6925,-1.6905,-1.6913,-1.6913,-1.7104,-1.7421,-1.7556,-1.7604,-1.7628,-1.7842,-1.7938,-1.7962,-1.8057,-1.8201,-1.829,-1.829,-1.8209,-1.8112,-1.8001,-1.7697,-1.7297,-1.6809,-1.6382,-1.6058,-1.5816,-1.574,-1.5654,-1.5465,-1.5535,-1.5873,-1.5989,-1.6211,-1.6607,-1.7138,-1.7569,-1.7712,-1.6872,-1.6401,-1.6553,-1.6785,-1.7064,-1.7533,-1.7832,-1.8162,-1.8576,-1.9198,-1.9671,-1.9922,-2.0183,-2.0453,-2.0828,-2.0892,-2.1094,-2.1474,-2.1526,-2.1612,-2.1761,-2.1812,-2.1886,-2.1886,-2.1886,-2.1886,-2.1812,-2.1675,-2.1549,-2.1537,-2.1537,-2.1612,-2.1698,-2.1549,-2.1474,-2.136,-2.1106,-2.0786,-2.0388,-2.0194,-1.9857,-1.9539,-1.9341,-1.9274,-1.9142,-1.9131,-1.9131,-1.9131,-1.9131,-1.9131,-1.9065,-1.9065,-1.9131,-1.9131,-1.9131,-1.9131,-1.9131,-1.9131,-1.9131,-1.9131,-1.9208,-1.9274,-1.9341,-1.955,-1.9615,-1.9671,-1.9671,-1.9747,-1.9811,-1.9985,-2.0049,-1.6812,-1.7205,-1.7365,-1.7523,-1.7619,-1.7715,-1.7588,-1.7382,-1.7302,-1.7278,-1.727,-1.7278,-1.7469,-1.7787,-1.8057,-1.8247,-1.8263,-1.8287,-1.8295,-1.8327,-1.8613,-1.8932,-1.9099,-1.9074,-1.9174,-1.9372,-1.8995,-1.8572,-1.8287,-1.8034,-1.769,-1.7387,-1.7267,-1.713,-1.6926,-1.6843,-1.6995,-1.7188,-1.7336,-1.7635,-1.8109,-1.8332,-1.8592,-1.9081,-1.9224,-1.8976,-1.8313,-1.8562,-1.8744,-1.8815,-1.9053,-1.9362,-1.9813,-2.0249,-2.0497,-2.0714,-2.1012,-2.1279,-2.1481,-2.1678,-2.1811,-2.1938,-2.1895,-2.204,-2.2151,-2.2241,-2.2303,-2.2327,-2.2303,-2.2306,-2.233,-2.2279,-2.2106,-2.1761,-2.1812,-2.1812,-2.1761,-2.1722,-2.1521,-2.1111,-2.0781,-2.0368,-2.0151,-2.0084,-1.9951,-1.9607,-1.94,-1.9302,-1.9235,-1.9193,-1.9131,-1.9131,-1.9131,-1.9131,-1.9131,-1.9131,-1.9131,-1.9131,-1.9131,-1.9131,-1.9142,-1.9142,-1.9208,-1.9208,-1.9407,-1.9473,-1.9539,-1.9681,-1.9747,-1.9802,-1.9868,-2.0009,-2.0171,-2.04,-2.074,-1.7753,-1.8055,-1.832,-1.8419,-1.8379,-1.824,-1.8073,-1.7954,-1.7731,-1.762,-1.762,-1.762,-1.7811,-1.8097,-1.8263,-1.843,-1.8653,-1.8661,-1.8661,-1.8684,-1.8964,-1.912,-1.9304,-1.9396,-1.9496,-1.9571,-1.9381,-1.9397,-1.9315,-1.9115,-1.8837,-1.859,-1.8297,-1.8175,-1.8099,-1.7918,-1.8,-1.8464,-1.8655,-1.8958,-1.9437,-2.001,-2.0394,-2.0783,-2.1223,-2.1373,-2.1097,-2.0463,-2.0069,-1.9906,-2.0283,-2.0533,-2.0705,-2.1285,-2.1652,-2.1774,-2.2294,-2.2678,-2.2787,-2.2852,-2.2971,-2.3072,-2.3191,-2.3203,-2.3215,-2.3244,-2.3232,-2.3244,-2.328,-2.3345,-2.3397,-2.3462,-2.3019,-2.2145,-2.2061,-2.2059,-2.1942,-2.1836,-2.1675,-2.1361,-2.1196,-2.1101,-2.0896,-2.0679,-2.0339,-2.018,-1.9865,-1.9619,-1.9578,-1.9313,-1.9075,-1.9131,-1.9131,-1.9162,-1.9142,-1.9208,-1.9198,-1.9198,-1.9198,-1.9142,-1.9142,-1.9208,-1.9274,-1.9417,-1.955,-1.9681,-1.9802,-1.9868,-1.9944,-2.0031,-2.0053,-2.0281,-2.0577,-2.0906,-2.1327,-1.8336,-1.8643,-1.8743,-1.8827,-1.8812,-1.8581,-1.8414,-1.8279,-1.8065,-1.8057,-1.8153,-1.8057,-1.8249,-1.8528,-1.8675,-1.8704,-1.902,-1.914,-1.9297,-1.9297,-1.9398,-1.9548,-1.9824,-2.0012,-2.0071,-2.0044,-2.0036,-2.0119,-2.0266,-2.0231,-2.0017,-1.9808,-1.9498,-1.9359,-1.9361,-1.8979,-1.909,-1.9793,-2.0013,-2.0308,-2.0803,-2.1339,-2.1741,-2.2025,-2.2553,-2.2863,-2.2798,-2.2379,-2.1854,-2.1487,-2.162,-2.1754,-2.1843,-2.2294,-2.2643,-2.278,-2.3069,-2.3416,-2.3561,-2.358,-2.3694,-2.3827,-2.3893,-2.3893,-2.3971,-2.3971,-2.3959,-2.3959,-2.3935,-2.4025,-2.4079,-2.4079,-2.3685,-2.301,-2.2938,-2.2711,-2.2362,-2.2062,-2.1845,-2.153,-2.1432,-2.1328,-2.108,-2.0938,-2.0634,-2.0511,-2.0253,-2.0006,-1.9955,-1.9779,-1.9572,-1.9474,-1.9453,-1.9448,-1.9239,-1.9208,-1.9274,-1.9274,-1.9274,-1.9208,-1.9208,-1.9341,-1.9473,-1.9605,-1.9802,-1.9878,-1.9944,-2.0009,-2.0085,-2.0194,-2.0402,-2.0743,-2.1096,-2.1674,-2.2054,-1.8526,-1.8812,-1.8827,-1.8827,-1.8827,-1.8804,-1.8629,-1.8375,-1.8327,-1.8425,-1.8612,-1.8514,-1.8675,-1.9123,-1.9131,-1.9163,-1.9336,-1.9723,-2.0083,-2.014,-2.0198,-2.0417,-2.0872,-2.0832,-2.081,-2.0698,-2.0654,-2.0835,-2.0997,-2.1239,-2.1273,-2.0889,-2.0704,-2.0569,-2.0529,-2.0229,-2.042,-2.1058,-2.1165,-2.1527,-2.2048,-2.2306,-2.2553,-2.2767,-2.3298,-2.3593,-2.3644,-2.4002,-2.3867,-2.3055,-2.2857,-2.2919,-2.3179,-2.3317,-2.3396,-2.3542,-2.3633,-2.3807,-2.3893,-2.4092,-2.4123,-2.428,-2.428,-2.4176,-2.448,-2.4541,-2.4529,-2.4516,-2.4467,-2.4497,-2.4509,-2.4521,-2.4394,-2.4122,-2.3796,-2.3394,-2.2954,-2.2446,-2.209,-2.1684,-2.1426,-2.1268,-2.1068,-2.0976,-2.0833,-2.073,-2.0627,-2.0544,-2.0492,-2.0438,-2.0242,-2.0146,-2.0096,-2.0002,-1.9855,-1.9681,-1.9748,-1.9628,-1.9544,-1.9417,-1.9417,-1.955,-1.9681,-1.9813,-2.0042,-2.0096,-2.0238,-2.038,-2.0556,-2.0842,-2.1041,-2.123,-2.1744,-2.2351,-2.284,-1.8748,-1.8827,-1.8827,-1.8827,-1.8827,-1.8827,-1.8788,-1.8692,-1.8684,-1.8851,-1.8959,-1.8959,-1.9182,-1.9479,-1.9487,-1.9487,-1.957,-1.9951,-2.0557,-2.1103,-2.1374,-2.1266,-2.1268,-2.1392,-2.1221,-2.1068,-2.1212,-2.1293,-2.1553,-2.183,-2.1882,-2.1807,-2.1769,-2.1665,-2.152,-2.1392,-2.1565,-2.1849,-2.2025,-2.2262,-2.2703,-2.3075,-2.3372,-2.3593,-2.4043,-2.4261,-2.4273,-2.4694,-2.459,-2.3781,-2.3497,-2.3361,-2.3578,-2.3931,-2.4258,-2.4442,-2.4812,-2.5099,-2.5237,-2.5306,-2.5318,-2.5399,-2.5301,-2.5411,-2.548,-2.548,-2.548,-2.5492,-2.548,-2.5512,-2.5673,-2.5661,-2.5524,-2.5095,-2.421,-2.3431,-2.3061,-2.2729,-2.2522,-2.2248,-2.2223,-2.2134,-2.1997,-2.1934,-2.1797,-2.1755,-2.1502,-2.1292,-2.125,-2.106,-2.0881,-2.0815,-2.0726,-2.0684,-2.0546,-2.026,-2.0101,-2.0105,-1.9924,-1.9758,-1.9692,-1.9747,-1.9878,-2.002,-2.0325,-2.0489,-2.0787,-2.103,-2.1241,-2.1442,-2.1891,-2.223,-2.2651,-2.3258,-2.371,-1.8827,-1.8827,-1.892,-1.9012,-1.9012,-1.9112,-1.9112,-1.9112,-1.9112,-1.9288,-1.9471,-1.9379,-1.9487,-1.9662,-1.9762,-1.9762,-1.9912,-2.0568,-2.1199,-2.1848,-2.262,-2.2629,-2.2289,-2.2142,-2.1996,-2.1708,-2.1814,-2.1928,-2.2185,-2.253,-2.2737,-2.2859,-2.2824,-2.2702,-2.2582,-2.2453,-2.2397,-2.2488,-2.2703,-2.3001,-2.3372,-2.3677,-2.3909,-2.42,-2.4562,-2.4766,-2.4981,-2.5277,-2.5168,-2.4728,-2.451,-2.441,-2.4502,-2.4824,-2.5144,-2.5306,-2.5599,-2.5746,-2.584,-2.5923,-2.591,-2.598,-2.5992,-2.605,-2.6082,-2.6176,-2.6188,-2.6151,-2.6176,-2.6188,-2.6258,-2.6201,-2.5898,-2.5344,-2.4493,-2.3723,-2.3375,-2.3236,-2.2928,-2.2725,-2.2583,-2.2617,-2.2542,-2.2478,-2.2402,-2.2339,-2.2147,-2.1967,-2.1893,-2.169,-2.1538,-2.141,-2.1386,-2.1332,-2.1171,-2.0962,-2.0849,-2.0773,-2.0649,-2.0379,-2.0161,-2.0129,-2.0129,-2.0358,-2.0599,-2.0918,-2.1352,-2.1677,-2.1981,-2.2241,-2.2743,-2.3202,-2.363,-2.4108,-2.4578,-1.8827,-1.892,-1.9104,-1.9279,-1.9279,-1.9479,-1.9579,-1.9671,-1.9671,-1.9762,-1.9936,-1.9754,-1.9936,-2.0019,-2.011,-2.0201,-2.0425,-2.131,-2.2081,-2.2907,-2.3818,-2.4143,-2.374,-2.3324,-2.3094,-2.2756,-2.2659,-2.2694,-2.2911,-2.3319,-2.3667,-2.3796,-2.3662,-2.3701,-2.364,-2.3387,-2.3197,-2.3198,-2.3342,-2.353,-2.3886,-2.4189,-2.4406,-2.4622,-2.4981,-2.5324,-2.5548,-2.5758,-2.5804,-2.5664,-2.5676,-2.5578,-2.5767,-2.5886,-2.5886,-2.5861,-2.5873,-2.598,-2.5992,-2.605,-2.605,-2.6201,-2.6213,-2.6339,-2.6383,-2.6452,-2.6452,-2.6396,-2.6571,-2.6666,-2.6652,-2.6355,-2.5908,-2.5528,-2.5052,-2.4548,-2.3982,-2.3666,-2.3372,-2.2852,-2.2777,-2.2628,-2.2553,-2.2478,-2.2488,-2.2628,-2.252,-2.2488,-2.2456,-2.2327,-2.2144,-2.2015,-2.1991,-2.1988,-2.1843,-2.1653,-2.1592,-2.1541,-2.145,-2.1208,-2.0908,-2.0798,-2.0621,-2.0751,-2.1273,-2.1687,-2.2082,-2.2377,-2.2731,-2.3317,-2.4001,-2.4303,-2.456,-2.509,-2.5578,-1.9196,-1.9396,-1.9487,-1.9571,-1.9745,-1.9837,-1.9936,-2.011,-2.0119,-2.0292,-2.0473,-2.0482,-2.0555,-2.0727,-2.0727,-2.0817,-2.1013,-2.1999,-2.3044,-2.4375,-2.5063,-2.5664,-2.5478,-2.5012,-2.4243,-2.3774,-2.381,-2.3742,-2.3757,-2.3927,-2.4282,-2.4584,-2.4639,-2.464,-2.4735,-2.4317,-2.4127,-2.4122,-2.4028,-2.4055,-2.425,-2.4611,-2.4969,-2.5111,-2.5477,-2.5688,-2.5828,-2.6037,-2.6164,-2.6151,-2.6013,-2.5955,-2.598,-2.598,-2.605,-2.6119,-2.6201,-2.6201,-2.6327,-2.6383,-2.6408,-2.6527,-2.6553,-2.6465,-2.6452,-2.6596,-2.6571,-2.6622,-2.6841,-2.7185,-2.7269,-2.7127,-2.6542,-2.5827,-2.5354,-2.4784,-2.3937,-2.3615,-2.3372,-2.3075,-2.2927,-2.2927,-2.2863,-2.2852,-2.2852,-2.2852,-2.2852,-2.2841,-2.2852,-2.2852,-2.2722,-2.2611,-2.2589,-2.2564,-2.2528,-2.2441,-2.244,-2.2414,-2.2331,-2.223,-2.1913,-2.171,-2.1718,-2.1809,-2.2014,-2.2478,-2.2991,-2.3591,-2.4068,-2.4677,-2.5126,-2.546,-2.5797,-2.6171,-2.6483,-1.9654,-1.9762,-2.0027,-2.0209,-2.0292,-2.0473,-2.0663,-2.0843,-2.0925,-2.1015,-2.1105,-2.1195,-2.1195,-2.1365,-2.1365,-2.1374,-2.1735,-2.2741,-2.4127,-2.5431,-2.6081,-2.6562,-2.6935,-2.6574,-2.595,-2.4987,-2.4852,-2.4702,-2.4471,-2.4615,-2.4956,-2.538,-2.5369,-2.5341,-2.5418,-2.5103,-2.4814,-2.4612,-2.4453,-2.4418,-2.4694,-2.4969,-2.5324,-2.5535,-2.5898,-2.605,-2.6176,-2.6314,-2.6508,-2.6564,-2.6458,-2.6402,-2.6371,-2.6371,-2.6371,-2.6533,-2.6546,-2.6615,-2.6739,-2.6752,-2.6866,-2.7119,-2.7063,-2.7227,-2.7284,-2.7301,-2.7243,-2.7293,-2.7448,-2.7543,-2.7484,-2.7211,-2.6731,-2.6237,-2.5744,-2.524,-2.4589,-2.3981,-2.3446,-2.315,-2.3001,-2.3001,-2.3001,-2.3108,-2.3075,-2.3075,-2.3075,-2.315,-2.3298,-2.3298,-2.3298,-2.3209,-2.3243,-2.322,-2.3261,-2.3189,-2.3228,-2.3322,-2.3282,-2.3237,-2.3132,-2.2991,-2.294,-2.3021,-2.308,-2.3609,-2.4098,-2.4719,-2.5294,-2.5672,-2.6083,-2.6569,-2.6947,-2.7217,-2.7484,-2.0119,-2.0201,-2.0654,-2.0925,-2.1015,-2.1383,-2.1571,-2.175,-2.183,-2.1909,-2.19,-2.1909,-2.1998,-2.1909,-2.1909,-2.2115,-2.2664,-2.365,-2.5051,-2.6225,-2.6809,-2.7326,-2.7683,-2.767,-2.7349,-2.6256,-2.5889,-2.5525,-2.5253,-2.5285,-2.5538,-2.5968,-2.5979,-2.6052,-2.5923,-2.5588,-2.529,-2.5107,-2.4804,-2.4766,-2.504,-2.5241,-2.5535,-2.591,-2.6188,-2.6314,-2.644,-2.6645,-2.6863,-2.7066,-2.6925,-2.7069,-2.7211,-2.6998,-2.6892,-2.7024,-2.7011,-2.7033,-2.7161,-2.7173,-2.7421,-2.7991,-2.7844,-2.7893,-2.8198,-2.8104,-2.7946,-2.79,-2.7853,-2.7705,-2.7442,-2.7308,-2.6919,-2.6459,-2.6217,-2.5873,-2.5335,-2.445,-2.3932,-2.3522,-2.3533,-2.3477,-2.3378,-2.3345,-2.3279,-2.3309,-2.3405,-2.3479,-2.3638,-2.3689,-2.3785,-2.3677,-2.3677,-2.3801,-2.3841,-2.4036,-2.4042,-2.4236,-2.4319,-2.4364,-2.4396,-2.4643,-2.4584,-2.4133,-2.4285,-2.4755,-2.5314,-2.5945,-2.6362,-2.6663,-2.7082,-2.7471,-2.7881,-2.8208,-2.8403,-2.0916,-2.1212,-2.1374,-2.1731,-2.2078,-2.2176,-2.2432,-2.2784,-2.2872,-2.2872,-2.2872,-2.2882,-2.2872,-2.2872,-2.2872,-2.3232,-2.385,-2.4605,-2.5564,-2.6682,-2.7327,-2.7964,-2.8272,-2.8265,-2.7997,-2.7613,-2.6998,-2.6368,-2.6026,-2.603,-2.6124,-2.6385,-2.6479,-2.6532,-2.6425,-2.6097,-2.5793,-2.5687,-2.5295,-2.5218,-2.5336,-2.5535,-2.5816,-2.6188,-2.6465,-2.6589,-2.6726,-2.6985,-2.7255,-2.7377,-2.7352,-2.784,-2.8303,-2.7904,-2.7652,-2.7478,-2.7449,-2.7631,-2.7777,-2.7798,-2.8081,-2.8395,-2.8405,-2.8346,-2.8413,-2.8245,-2.8175,-2.799,-2.8024,-2.8025,-2.8276,-2.7775,-2.7419,-2.6892,-2.6549,-2.6198,-2.562,-2.5304,-2.5068,-2.4891,-2.4534,-2.4133,-2.4066,-2.3977,-2.3996,-2.4123,-2.4186,-2.4237,-2.4363,-2.4356,-2.4338,-2.4196,-2.4116,-2.4311,-2.4492,-2.4707,-2.4945,-2.5228,-2.5399,-2.5721,-2.589,-2.6319,-2.6274,-2.5883,-2.5829,-2.6186,-2.6713,-2.7139,-2.7459,-2.7736,-2.8103,-2.8468,-2.8839,-2.9156,-2.9407,-2.1811,-2.1919,-2.2264,-2.2608,-2.2969,-2.3057,-2.3309,-2.3647,-2.382,-2.382,-2.382,-2.382,-2.382,-2.382,-2.381,-2.4236,-2.4808,-2.5112,-2.5962,-2.6923,-2.7441,-2.7924,-2.833,-2.8221,-2.802,-2.776,-2.7409,-2.6937,-2.644,-2.6373,-2.655,-2.6715,-2.6869,-2.7033,-2.7059,-2.6734,-2.6445,-2.6375,-2.5922,-2.5636,-2.5642,-2.5873,-2.6233,-2.6533,-2.6739,-2.693,-2.7121,-2.7268,-2.7536,-2.7749,-2.7815,-2.8265,-2.8932,-2.9592,-2.9469,-2.882,-2.8591,-2.8559,-2.8721,-2.8799,-2.8976,-2.9326,-2.9125,-2.9206,-2.9223,-2.9063,-2.8599,-2.824,-2.8183,-2.821,-2.8143,-2.7869,-2.7567,-2.7243,-2.7002,-2.6714,-2.6542,-2.6462,-2.6484,-2.6368,-2.5695,-2.5264,-2.5085,-2.4971,-2.4888,-2.4894,-2.5073,-2.5113,-2.5215,-2.5389,-2.5441,-2.5241,-2.5206,-2.5217,-2.5417,-2.5627,-2.5836,-2.6208,-2.6483,-2.6756,-2.7069,-2.7458,-2.7788,-2.7758,-2.7814,-2.771,-2.7855,-2.822,-2.8515,-2.8807,-2.9115,-2.947,-2.978,-3.0101,-3.0343,-2.2696,-2.2696,-2.3222,-2.357,-2.3754,-2.3927,-2.4166,-2.4423,-2.4594,-2.4584,-2.4669,-2.4584,-2.4584,-2.4669,-2.4711,-2.4964,-2.5591,-2.5654,-2.6399,-2.7031,-2.7525,-2.7822,-2.7964,-2.7981,-2.7962,-2.7872,-2.7577,-2.7288,-2.6888,-2.6798,-2.6891,-2.7044,-2.7267,-2.7429,-2.7556,-2.7129,-2.7114,-2.6887,-2.6396,-2.6078,-2.6193,-2.644,-2.6714,-2.713,-2.7262,-2.7475,-2.7785,-2.8035,-2.8344,-2.8465,-2.8411,-2.8624,-2.9767,-3.1282,-3.1543,-3.0575,-3.0097,-2.9864,-2.9773,-2.9742,-2.9836,-3.0095,-2.9851,-2.9945,-2.9821,-2.9412,-2.8954,-2.859,-2.8327,-2.8143,-2.7857,-2.7615,-2.751,-2.7499,-2.7418,-2.7348,-2.751,-2.7601,-2.7794,-2.7443,-2.6738,-2.6469,-2.6405,-2.6013,-2.589,-2.608,-2.6193,-2.6526,-2.6576,-2.6882,-2.6956,-2.6621,-2.6466,-2.6352,-2.6458,-2.6595,-2.6879,-2.7149,-2.7417,-2.7683,-2.8065,-2.8441,-2.8757,-2.9094,-2.9199,-2.9129,-2.9219,-2.9219,-2.9442,-2.9737,-3.0133,-3.0404,-3.0703,-3.094,-3.119,-2.3667,-2.3657,-2.4166,-2.4509,-2.469,-2.4786,-2.4861,-2.5115,-2.5105,-2.5115,-2.5115,-2.5105,-2.5189,-2.5189,-2.5369,-2.5581,-2.5912,-2.6354,-2.6722,-2.7059,-2.7704,-2.8046,-2.8252,-2.8071,-2.8057,-2.7995,-2.7754,-2.7393,-2.7219,-2.7278,-2.736,-2.7441,-2.7696,-2.795,-2.8004,-2.7526,-2.7083,-2.7201,-2.668,-2.6483,-2.6914,-2.7211,-2.7385,-2.7691,-2.8101,-2.8581,-2.8701,-2.909,-2.9617,-2.9753,-2.8781,-2.9289,-3.0922,-3.1833,-3.2148,-3.1616,-3.0926,-3.0107,-3.0275,-3.0322,-3.0348,-3.0449,-3.0277,-3.0152,-2.9729,-2.9365,-2.8803,-2.8498,-2.8203,-2.795,-2.7777,-2.7592,-2.751,-2.7684,-2.7788,-2.7938,-2.8087,-2.8383,-2.8633,-2.9003,-2.8488,-2.8086,-2.794,-2.7388,-2.6899,-2.7124,-2.736,-2.773,-2.805,-2.8419,-2.8622,-2.8363,-2.7834,-2.7663,-2.7589,-2.7788,-2.7894,-2.817,-2.8403,-2.8661,-2.9093,-2.947,-2.978,-3.0058,-3.0269,-3.0329,-3.0283,-3.0283,-3.0404,-3.0584,-3.0807,-3.1175,-3.148,-3.1724,-3.1951,-2.5274,-2.4775,-2.5115,-2.5454,-2.5611,-2.5549,-2.5559,-2.5728,-2.5717,-2.5801,-2.5801,-2.5968,-2.5957,-2.5968,-2.6135,-2.6218,-2.6368,-2.6629,-2.678,-2.6886,-2.7386,-2.774,-2.7805,-2.781,-2.7871,-2.8023,-2.801,-2.7904,-2.7765,-2.7672,-2.7777,-2.7903,-2.8099,-2.8351,-2.8409,-2.8126,-2.7877,-2.7777,-2.7582,-2.7636,-2.8085,-2.8512,-2.8902,-2.9093,-2.9496,-2.9685,-2.9929,-3.0092,-3.0364,-3.0515,-2.9818,-3.0167,-3.1192,-3.1697,-3.1879,-3.1915,-3.1288,-3.091,-3.1023,-3.0816,-3.0751,-3.0581,-3.0318,-2.9767,-2.93,-2.8961,-2.8645,-2.8339,-2.8271,-2.8099,-2.8007,-2.8007,-2.8075,-2.8247,-2.8407,-2.8712,-2.8937,-2.9094,-2.9406,-2.9871,-3.0241,-2.9985,-2.9718,-2.9365,-2.9024,-2.9062,-2.9249,-2.9548,-2.9839,-3.0112,-3.0228,-3.0147,-2.9578,-2.8984,-2.9005,-2.9026,-2.8935,-2.9149,-2.9421,-2.9747,-3.0101,-3.0478,-3.0644,-3.0896,-3.1131,-3.1146,-3.1161,-3.1146,-3.1116,-3.1291,-3.1522,-3.1781,-3.2079,-3.2327,-3.2617,-2.6869,-2.6279,-2.6218,-2.629,-2.6373,-2.6229,-2.6229,-2.6324,-2.6313,-2.6313,-2.6313,-2.6479,-2.655,-2.6715,-2.6715,-2.6798,-2.6809,-2.6891,-2.6985,-2.7149,-2.7138,-2.7359,-2.765,-2.765,-2.7812,-2.8018,-2.8001,-2.8088,-2.8052,-2.7992,-2.7896,-2.8112,-2.83,-2.8463,-2.8488,-2.835,-2.8157,-2.8017,-2.83,-2.8649,-2.9161,-2.9807,-3.0215,-3.0556,-3.0815,-3.0925,-3.1075,-3.1295,-3.1351,-3.1295,-3.1182,-3.1273,-3.1612,-3.1672,-3.1729,-3.169,-3.1336,-3.114,-3.1132,-3.0996,-3.0836,-3.0457,-3.0088,-2.9534,-2.904,-2.8882,-2.8803,-2.8566,-2.8578,-2.8566,-2.8566,-2.8724,-2.8949,-2.9094,-2.925,-2.9626,-2.9999,-3.0228,-3.0519,-3.1057,-3.1442,-3.1796,-3.1589,-3.1496,-3.1249,-3.1066,-3.1206,-3.1442,-3.1581,-3.17,-3.1625,-3.1571,-3.1082,-3.0569,-3.0479,-3.0369,-3.0247,-3.015,-3.0427,-3.0642,-3.0955,-3.1102,-3.1248,-3.1552,-3.1796,-3.1853,-3.1781,-3.1781,-3.1781,-3.1879,-3.1992,-3.2373,-3.2664,-3.2888,-3.3245,-2.8351,-2.8259,-2.7429,-2.7033,-2.6891,-2.6798,-2.6727,-2.6561,-2.6561,-2.6561,-2.6561,-2.6633,-2.6798,-2.6891,-2.7115,-2.7278,-2.7441,-2.7708,-2.7719,-2.78,-2.7881,-2.7765,-2.7799,-2.7844,-2.8004,-2.8215,-2.8059,-2.8086,-2.8142,-2.8049,-2.8022,-2.8053,-2.8344,-2.835,-2.8262,-2.8248,-2.8156,-2.826,-2.8746,-2.9416,-3.0006,-3.0604,-3.1126,-3.1548,-3.1937,-3.2164,-3.2054,-3.2417,-3.2485,-3.2345,-3.2091,-3.1918,-3.1924,-3.1648,-3.1583,-3.1556,-3.1211,-3.1061,-3.0999,-3.0836,-3.0533,-3.0152,-2.9754,-2.9443,-2.9118,-2.9131,-2.9052,-2.904,-2.9197,-2.9263,-2.9328,-2.9561,-2.9935,-3.0165,-3.0456,-3.082,-3.1193,-3.1502,-3.1796,-3.2245,-3.2605,-3.2946,-3.3283,-3.3115,-3.2706,-3.2492,-3.2492,-3.272,-3.2891,-3.3041,-3.2922,-3.2797,-3.2442,-3.2155,-3.2133,-3.1956,-3.1707,-3.1479,-3.1529,-3.1589,-3.1629,-3.1757,-3.1724,-3.1894,-3.2135,-3.2231,-3.2287,-3.2247,-3.2191,-3.2272,-3.2508,-3.2757,-3.3187,-3.3575,-3.3917,-2.9184,-2.904,-2.87,-2.8235,-2.7696,-2.7278,-2.7033,-2.6951,-2.6798,-2.6903,-2.6974,-2.7126,-2.7196,-2.7278,-2.7545,-2.7777,-2.7926,-2.8018,-2.8087,-2.8111,-2.8099,-2.7921,-2.787,-2.7825,-2.7783,-2.7904,-2.7851,-2.7977,-2.8164,-2.8084,-2.8066,-2.8107,-2.8235,-2.8445,-2.832,-2.826,-2.8276,-2.8557,-2.9222,-3.0041,-3.0912,-3.1601,-3.2323,-3.2979,-3.3078,-3.3223,-3.3058,-3.3227,-3.3044,-3.2761,-3.255,-3.2318,-3.1982,-3.1556,-3.1349,-3.1334,-3.1061,-3.0836,-3.0685,-3.0444,-3.0152,-2.9831,-2.9599,-2.9534,-2.9431,-2.9509,-2.9586,-2.9741,-3.0037,-3.0254,-3.033,-3.0758,-3.1119,-3.1368,-3.1663,-3.2015,-3.2362,-3.2733,-3.3003,-3.3437,-3.3782,-3.407,-3.4394,-3.4714,-3.4259,-3.3865,-3.3934,-3.3973,-3.4143,-3.4287,-3.42,-3.4076,-3.3765,-3.3623,-3.3583,-3.3309,-3.308,-3.2856,-3.2691,-3.2491,-3.2361,-3.2099,-3.2079,-3.2247,-3.2413,-3.2468,-3.2539,-3.2539,-3.2594,-3.2578,-3.2796,-3.3134,-3.3642,-3.4184,-3.4497,-2.9642,-2.9651,-2.9586,-2.904,-2.8259,-2.7765,-2.751,-2.7371,-2.7301,-2.7231,-2.7394,-2.7534,-2.7696,-2.7777,-2.795,-2.8036,-2.81,-2.8198,-2.8126,-2.8029,-2.7885,-2.7866,-2.7673,-2.7682,-2.7636,-2.7607,-2.7665,-2.7846,-2.7931,-2.8112,-2.7947,-2.7818,-2.7934,-2.8062,-2.8151,-2.8402,-2.8572,-2.8998,-2.9758,-3.0746,-3.1744,-3.2554,-3.3303,-3.4008,-3.4138,-3.3948,-3.3728,-3.3577,-3.3213,-3.286,-3.2547,-3.2286,-3.1836,-3.1429,-3.118,-3.1084,-3.0911,-3.0622,-3.0457,-3.0228,-2.9921,-2.9677,-2.9998,-2.9908,-2.9883,-3.0101,-3.0406,-3.0696,-3.1071,-3.1368,-3.1516,-3.2015,-3.2492,-3.2733,-3.2875,-3.3227,-3.3644,-3.3988,-3.4327,-3.4595,-3.4942,-3.5204,-3.5449,-3.577,-3.5499,-3.5059,-3.5008,-3.5059,-3.524,-3.534,-3.5454,-3.5353,-3.5157,-3.5085,-3.4964,-3.4529,-3.4152,-3.4167,-3.3891,-3.3233,-3.2966,-3.2655,-3.2419,-3.2554,-3.2664,-3.2664,-3.2718,-3.2773,-3.2827,-3.2881,-3.3187,-3.3555,-3.4,-3.4497,-3.4787,-2.9843,-3.0279,-2.9883,-2.925,-2.8481,-2.851,-2.8191,-2.7869,-2.7742,-2.773,-2.7706,-2.7775,-2.7888,-2.8036,-2.8167,-2.8198,-2.8163,-2.8166,-2.8084,-2.7789,-2.7789,-2.7668,-2.7557,-2.7508,-2.7557,-2.7667,-2.7582,-2.7493,-2.7589,-2.7606,-2.7475,-2.7491,-2.7621,-2.7689,-2.7494,-2.8027,-2.8624,-2.9331,-3.0193,-3.1162,-3.2147,-3.2948,-3.3784,-3.4347,-3.4587,-3.4361,-3.4074,-3.373,-3.3297,-3.2775,-3.2588,-3.2241,-3.1743,-3.1542,-3.1307,-3.1136,-3.0924,-3.0773,-3.0698,-3.0305,-3.0152,-2.9998,-3.0394,-3.0583,-3.0709,-3.0996,-3.1455,-3.1809,-3.2232,-3.2662,-3.303,-3.3381,-3.3782,-3.3988,-3.4138,-3.4409,-3.481,-3.5073,-3.5335,-3.5642,-3.6039,-3.6368,-3.6554,-3.6677,-3.6538,-3.6352,-3.6196,-3.6196,-3.6258,-3.6258,-3.6383,-3.6337,-3.6137,-3.6029,-3.583,-3.5492,-3.5248,-3.5292,-3.4966,-3.4133,-3.3496,-3.3058,-3.2936,-3.2905,-3.2935,-3.2973,-3.2989,-3.3043,-3.3187,-3.3382,-3.3694,-3.4101,-3.4448,-3.4739,-3.5041,-2.9509,-2.9606,-2.9353,-2.891,-2.8311,-2.8379,-2.8443,-2.8211,-2.7699,-2.7443,-2.7415,-2.7335,-2.7375,-2.7593,-2.7959,-2.8087,-2.8139,-2.8225,-2.8086,-2.8024,-2.7936,-2.7748,-2.7598,-2.7519,-2.7452,-2.7348,-2.7181,-2.7306,-2.743,-2.7468,-2.7429,-2.7469,-2.7669,-2.7736,-2.7947,-2.8379,-2.8867,-2.9324,-3.0092,-3.0883,-3.183,-3.2737,-3.3574,-3.4301,-3.4582,-3.4438,-3.4128,-3.373,-3.3297,-3.2775,-3.2588,-3.2255,-3.1904,-3.1703,-3.1556,-3.1434,-3.1299,-3.1299,-3.1286,-3.1123,-3.0898,-3.0836,-3.0973,-3.132,-3.1429,-3.2015,-3.2475,-3.2903,-3.3367,-3.3728,-3.4016,-3.4528,-3.4861,-3.4993,-3.5204,-3.5514,-3.5849,-3.5976,-3.6165,-3.6538,-3.6921,-3.7266,-3.7519,-3.7637,-3.7562,-3.7445,-3.7266,-3.7118,-3.7118,-3.7042,-3.7042,-3.7058,-3.6951,-3.6906,-3.6675,-3.629,-3.6167,-3.6242,-3.5605,-3.4747,-3.4135,-3.3536,-3.3224,-3.3112,-3.3187,-3.3293,-3.3398,-3.3555,-3.3745,-3.4,-3.425,-3.4415,-3.4707,-3.4947,-3.5245,-2.9153,-2.9306,-2.9119,-2.8833,-2.8455,-2.8359,-2.8268,-2.8053,-2.7519,-2.7287,-2.7356,-2.7218,-2.7322,-2.7619,-2.7816,-2.7921,-2.8062,-2.8096,-2.7868,-2.7939,-2.7933,-2.7678,-2.7487,-2.748,-2.7396,-2.7266,-2.7335,-2.7482,-2.7522,-2.7683,-2.7736,-2.7802,-2.7921,-2.8131,-2.8327,-2.8624,-2.9058,-2.9512,-3.0211,-3.0884,-3.1743,-3.2485,-3.3232,-3.3908,-3.4229,-3.422,-3.4056,-3.3716,-3.3227,-3.2846,-3.2503,-3.2314,-3.2096,-3.195,-3.1863,-3.1803,-3.1803,-3.179,-3.185,-3.1982,-3.1763,-3.1763,-3.1909,-3.2001,-3.2321,-3.2904,-3.3465,-3.3977,-3.4423,-3.4758,-3.5023,-3.5529,-3.5706,-3.5849,-3.6087,-3.6415,-3.6738,-3.686,-3.7027,-3.7401,-3.7695,-3.8059,-3.8343,-3.8511,-3.8567,-3.8455,-3.8327,-3.8189,-3.7976,-3.7844,-3.7695,-3.7653,-3.7551,-3.7433,-3.7254,-3.7011,-3.6995,-3.7121,-3.6244,-3.5237,-3.4595,-3.4014,-3.3666,-3.3346,-3.3503,-3.3694,-3.3848,-3.405,-3.425,-3.4448,-3.4611,-3.4804,-3.4947,-3.5152,-3.5383,-2.8736,-2.9368,-2.9267,-2.9015,-2.8853,-2.8265,-2.7877,-2.7545,-2.7446,-2.7496,-2.7484,-2.757,-2.764,-2.7946,-2.8116,-2.8041,-2.787,-2.7875,-2.7631,-2.7417,-2.7647,-2.7478,-2.752,-2.7615,-2.7681,-2.7709,-2.7723,-2.7921,-2.7855,-2.8,-2.8066,-2.8197,-2.8392,-2.8587,-2.8702,-2.8944,-2.9247,-2.9747,-3.0294,-3.0964,-3.1691,-3.2242,-3.2941,-3.3499,-3.3789,-3.3871,-3.3743,-3.3575,-3.3129,-3.2775,-3.2561,-3.2372,-3.2314,-3.2241,-3.2155,-3.2214,-3.22,-3.2345,-3.2503,-3.2717,-3.3016,-3.31,-3.3085,-3.2975,-3.3156,-3.3711,-3.4288,-3.4802,-3.5249,-3.5574,-3.5973,-3.6196,-3.6415,-3.6662,-3.6829,-3.7222,-3.761,-3.7786,-3.787,-3.8173,-3.8399,-3.8694,-3.8914,-3.9131,-3.9185,-3.9131,-3.8952,-3.8843,-3.8639,-3.8432,-3.8303,-3.8173,-3.8075,-3.7934,-3.7759,-3.7567,-3.7464,-3.748,-3.6564,-3.5568,-3.5023,-3.4546,-3.4186,-3.3941,-3.3947,-3.405,-3.4349,-3.4497,-3.4643,-3.4851,-3.4994,-3.5088,-3.5228,-3.5321,-3.552,-2.8478,-2.8518,-2.829,-2.802,-2.776,-2.7429,-2.7369,-2.7496,-2.7225,-2.7172,-2.7242,-2.7092,-2.7265,-2.729,-2.761,-2.7657,-2.7715,-2.7826,-2.7907,-2.7842,-2.7921,-2.7973,-2.8039,-2.8183,-2.8262,-2.8327,-2.8314,-2.8379,-2.8379,-2.8471,-2.8471,-2.8522,-2.8844,-2.8958,-2.9198,-2.9373,-2.9623,-2.9946,-3.0433,-3.0953,-3.15,-3.2065,-3.2599,-3.2936,-3.3445,-3.3543,-3.3513,-3.3449,-3.3185,-3.3002,-3.2704,-3.2646,-3.2789,-3.2789,-3.2775,-3.2917,-3.2988,-3.3072,-3.341,-3.3889,-3.4284,-3.4582,-3.4752,-3.4524,-3.4525,-3.4706,-3.5302,-3.5874,-3.6277,-3.6626,-3.677,-3.694,-3.7136,-3.7358,-3.7578,-3.787,-3.8246,-3.8472,-3.8623,-3.8788,-3.9077,-3.9239,-3.9468,-3.9556,-3.9609,-3.9625,-3.9573,-3.9398,-3.9239,-3.8985,-3.8821,-3.8694,-3.8583,-3.8432,-3.8205,-3.8033,-3.7876,-3.7616,-3.6749,-3.6055,-3.5668,-3.5235,-3.4764,-3.4544,-3.4448,-3.4594,-3.4851,-3.4994,-3.5071,-3.5211,-3.535,-3.5396,-3.5487,-3.5594,-3.5684,-2.7615,-2.7373,-2.7245,-2.6973,-2.6582,-2.6464,-2.6498,-2.6684,-2.6904,-2.7024,-2.7113,-2.7097,-2.7066,-2.732,-2.7655,-2.7895,-2.7895,-2.8185,-2.8289,-2.8341,-2.8495,-2.856,-2.8702,-2.8894,-2.8972,-2.8972,-2.8972,-2.9035,-2.8972,-2.8972,-2.9035,-2.9035,-2.9289,-2.9449,-2.9623,-2.987,-3.0068,-3.0326,-3.0582,-3.0895,-3.1383,-3.1886,-3.2242,-3.2608,-3.3141,-3.3347,-3.3523,-3.3518,-3.3409,-3.3297,-3.3143,-3.3199,-3.3339,-3.3479,-3.3563,-3.3813,-3.4125,-3.4404,-3.477,-3.5372,-3.5786,-3.6164,-3.6485,-3.6537,-3.6349,-3.6381,-3.6854,-3.7376,-3.7527,-3.7639,-3.7668,-3.7783,-3.7891,-3.8065,-3.8319,-3.8511,-3.8805,-3.9094,-3.9239,-3.9451,-3.9609,-3.9781,-3.9935,-3.9969,-3.9969,-3.9986,-3.9935,-3.9884,-3.9713,-3.9451,-3.9309,-3.9148,-3.904,-3.8931,-3.8711,-3.8472,-3.8327,-3.7923,-3.7122,-3.6513,-3.6194,-3.5671,-3.5005,-3.4903,-3.5011,-3.5118,-3.5258,-3.5367,-3.5458,-3.5577,-3.5667,-3.5756,-3.5756,-3.5817,-3.5905,-2.6479,-2.6409,-2.6307,-2.609,-2.556,-2.5625,-2.56,-2.5537,-2.6567,-2.6938,-2.6899,-2.7233,-2.738,-2.7486,-2.7904,-2.8271,-2.8403,-2.8651,-2.878,-2.8716,-2.9085,-2.9212,-2.9275,-2.9477,-2.9665,-2.9665,-2.9665,-2.9651,-2.9665,-2.9665,-2.9665,-2.9665,-2.9837,-3.0007,-3.0129,-3.0326,-3.0507,-3.0702,-3.0836,-3.1028,-3.1353,-3.1857,-3.2418,-3.2779,-3.3135,-3.3498,-3.384,-3.3948,-3.3813,-3.373,-3.3785,-3.3825,-3.4045,-3.4317,-3.4467,-3.4777,-3.5219,-3.5628,-3.6126,-3.685,-3.7459,-3.7855,-3.8126,-3.8361,-3.8181,-3.7671,-3.8003,-3.851,-3.8701,-3.8731,-3.8772,-3.9038,-3.9231,-3.9357,-3.9614,-3.9709,-3.9797,-3.9859,-3.9782,-3.9986,-4.0154,-4.0271,-4.0337,-4.037,-4.0337,-4.0337,-4.0288,-4.0238,-4.0138,-3.9867,-3.9729,-3.959,-3.9415,-3.9255,-3.9094,-3.8898,-3.869,-3.8194,-3.7445,-3.6809,-3.6368,-3.5778,-3.5124,-3.5211,-3.5396,-3.5532,-3.5667,-3.5711,-3.5773,-3.5905,-3.5975,-3.6062,-3.6062,-3.6062,-3.6062,-2.6586,-2.6627,-2.6246,-2.5985,-2.5861,-2.5874,-2.5972,-2.6246,-2.6436,-2.6406,-2.6229,-2.6585,-2.7,-2.7474,-2.8021,-2.8387,-2.8848,-2.9087,-2.9324,-2.9463,-2.9713,-2.9884,-2.9931,-3.0205,-3.0326,-3.0341,-3.0326,-3.0387,-3.0326,-3.0326,-3.0401,-3.0401,-3.0551,-3.0669,-3.0744,-3.0938,-3.1145,-3.1264,-3.119,-3.1249,-3.1427,-3.1617,-3.2009,-3.243,-3.2745,-3.3419,-3.3801,-3.3994,-3.4124,-3.4196,-3.4356,-3.4558,-3.4839,-3.5234,-3.5365,-3.5564,-3.627,-3.6799,-3.7456,-3.8213,-3.897,-3.9222,-3.9448,-3.9797,-3.9752,-3.9074,-3.8966,-3.9487,-3.9848,-3.9875,-4.0003,-4.0296,-4.0574,-4.071,-4.084,-4.0849,-4.0761,-4.0578,-4.0387,-4.0514,-4.0676,-4.0693,-4.0776,-4.0728,-4.0697,-4.0648,-4.06,-4.0551,-4.0485,-4.0288,-4.0138,-3.9935,-3.9729,-3.9573,-3.9415,-3.9163,-3.8944,-3.8526,-3.7814,-3.7169,-3.6538,-3.6011,-3.5503,-3.5622,-3.5756,-3.5844,-3.5932,-3.5932,-3.5975,-3.6105,-3.6165,-3.6191,-3.6233,-3.6233,-3.6216,-2.6191,-2.6113,-2.57,-2.5522,-2.5475,-2.5522,-2.57,-2.5937,-2.5968,-2.5982,-2.594,-2.6511,-2.7019,-2.738,-2.7894,-2.8545,-2.9083,-2.9519,-2.9825,-3.0165,-3.0418,-3.0613,-3.0747,-3.0851,-3.097,-3.097,-3.097,-3.097,-3.097,-3.097,-3.1043,-3.1028,-3.1265,-3.1516,-3.1575,-3.1827,-3.1989,-3.2078,-3.1869,-3.1869,-3.1869,-3.2115,-3.2273,-3.2577,-3.3214,-3.382,-3.4215,-3.4507,-3.4714,-3.4986,-3.527,-3.5529,-3.5864,-3.6117,-3.6228,-3.6644,-3.7357,-3.8213,-3.8841,-3.961,-4.0558,-4.0737,-4.0944,-4.139,-4.1628,-4.1132,-4.1038,-4.1464,-4.1604,-4.1659,-4.153,-4.17,-4.1677,-4.1758,-4.1876,-4.1885,-4.1577,-4.1188,-4.1034,-4.0967,-4.1111,-4.1226,-4.1244,-4.1226,-4.1152,-4.0995,-4.0901,-4.0871,-4.0776,-4.0728,-4.0534,-4.0436,-4.0221,-4.002,-3.9918,-3.9496,-3.9042,-3.8573,-3.7986,-3.716,-3.6359,-3.6118,-3.5905,-3.5993,-3.6019,-3.6062,-3.6105,-3.6088,-3.6148,-3.6233,-3.6233,-3.6276,-3.6318,-3.6402,-3.6402,-2.5757,-2.5412,-2.5174,-2.5018,-2.4892,-2.5032,-2.5215,-2.5369,-2.5495,-2.5743,-2.6131,-2.6846,-2.7162,-2.7418,-2.781,-2.8467,-2.9145,-2.9799,-3.0294,-3.0734,-3.1203,-3.1306,-3.1437,-3.1552,-3.1552,-3.161,-3.1552,-3.1552,-3.1495,-3.1509,-3.1539,-3.1687,-3.2077,-3.2526,-3.2706,-3.299,-3.3214,-3.2986,-3.2847,-3.2871,-3.2912,-3.2952,-3.2966,-3.3422,-3.4147,-3.4876,-3.5213,-3.5329,-3.5524,-3.5816,-3.618,-3.6492,-3.6738,-3.6982,-3.7304,-3.7707,-3.8787,-3.9575,-4.0286,-4.1369,-4.2042,-4.2504,-4.271,-4.288,-4.3047,-4.3136,-4.3026,-4.3131,-4.3207,-4.3119,-4.2991,-4.3015,-4.3014,-4.2943,-4.298,-4.2925,-4.2458,-4.1858,-4.1593,-4.1446,-4.1587,-4.1675,-4.1728,-4.171,-4.1587,-4.1391,-4.1255,-4.118,-4.1088,-4.1105,-4.1012,-4.0965,-4.0853,-4.0614,-4.0234,-3.9793,-3.9168,-3.8306,-3.7661,-3.6894,-3.6293,-3.6268,-3.6208,-3.6208,-3.6251,-3.6233,-3.6216,-3.6199,-3.6259,-3.6301,-3.636,-3.6377,-3.6502,-3.6544,-3.6585,-2.5825,-2.5398,-2.5356,-2.53,-2.53,-2.5495,-2.577,-2.6068,-2.6136,-2.6336,-2.6727,-2.6963,-2.7277,-2.7523,-2.7923,-2.8492,-2.93,-3.0033,-3.0528,-3.0925,-3.1617,-3.1901,-3.2064,-3.2176,-3.212,-3.212,-3.2079,-3.2023,-3.2023,-3.1966,-3.1925,-3.197,-3.2637,-3.2985,-3.3076,-3.3442,-3.3878,-3.3739,-3.36,-3.3538,-3.3487,-3.3495,-3.3726,-3.4174,-3.4703,-3.529,-3.5733,-3.5846,-3.61,-3.6523,-3.6921,-3.7298,-3.7626,-3.7982,-3.8364,-3.9046,-4.0112,-4.0981,-4.1845,-4.2703,-4.3343,-4.3588,-4.3764,-4.3823,-4.3997,-4.4169,-4.4232,-4.4478,-4.4495,-4.4305,-4.4224,-4.4568,-4.4612,-4.4438,-4.4411,-4.4008,-4.3585,-4.2635,-4.1892,-4.1931,-4.2074,-4.2181,-4.2347,-4.2252,-4.2086,-4.1899,-4.1788,-4.1701,-4.1552,-4.1525,-4.1471,-4.1426,-4.1408,-4.0574,-3.9903,-3.9765,-3.925,-3.8277,-3.7425,-3.6904,-3.6559,-3.6589,-3.6579,-3.6437,-3.6419,-3.6402,-3.6385,-3.6385,-3.6385,-3.6444,-3.6461,-3.6502,-3.6626,-3.6748,-3.6829]},{"header":{"parameterUnit":"m.s-1","parameterCategory":1,"la1":31.0,"la2":29.5877,"lo1":-88.7671,"lo2":-86.6584,"dy":0.0162,"dx":0.0185,"nx":115,"ny":88,"refTime":"2024-02-16T18:00:00:Z","depth":0,"parameterNumber":3,"parameterNumberName":"V-component_of_WINDS"},"data":[0.0,0.0,0.0,0.0,0.0,0.0,0.0,0.0,0.0,0.0,0.0,0.0,0.0,0.0,0.0,0.0,0.0,0.0,0.0,0.0,0.0,0.0,0.0,0.0,0.0,0.0,0.0,0.0,0.0,0.0,0.0,0.0,0.0,0.0,0.0,0.0,0.0,0.0,0.0,0.0,0.0,0.0,0.0,0.0,0.0,0.0,0.0,0.0,0.0,0.0,0.0,0.0,0.0,0.0,0.0,0.0,0.0,0.0,0.0,0.0,0.0,0.0,0.0,0.0,0.0,0.0,0.0,0.0,0.0,0.0,0.0,0.0,0.0,0.0,0.0,0.0,0.0,0.0,0.0,0.0,0.0,0.0,0.0,0.0,0.0,0.0,0.0,0.0,0.0,0.0,0.0,0.0,0.0,0.0,0.0,0.0,0.0,0.0,0.0,0.0,0.0,0.0,0.0,0.0,0.0,0.0,0.0,0.0,0.0,0.0,0.0,0.0,0.0,0.0,0.0,0.0,0.0,0.0,0.0,0.0,0.0,0.0,0.0,0.0,0.0,0.0,0.0,0.0,0.0,0.0,0.0,0.0,0.0,0.0,0.0,0.0,0.0,0.0,0.0,0.0,0.0,0.0,0.0,0.0,0.0,0.0,0.0,0.0,0.0,0.0,0.0,0.0,0.0,0.0,0.0,0.0,0.0,0.0,0.0,0.0,0.0,0.0,0.0,0.0,0.0,0.0,0.0,0.0,0.0,0.0,0.0,0.0,0.0,0.0,0.0,0.0,0.0,0.0,0.0,0.0,0.0,0.0,0.0,0.0,0.0,0.0,0.0,0.0,0.0,0.0,0.0,0.0,0.0,0.0,0.0,0.0,0.0,0.0,0.0,0.0,0.0,0.0,0.0,0.0,0.0,0.0,0.0,0.0,0.0,0.0,0.0,0.0,0.0,0.0,0.0,0.0,0.0,0.0,0.0,0.0,0.0,0.0,0.0,0.0,0.0,0.0,0.0,0.0,0.0,0.0,0.0,0.0,0.0,0.0,0.0,0.0,0.0,0.0,0.0,0.0,0.0,0.0,0.0,0.0,0.0,0.0,0.0,0.0,0.0,0.0,0.0,0.0,0.0,0.0,0.0,0.0,0.0,0.0,0.0,0.0,0.0,0.0,0.0,0.0,0.0,0.0,0.0,0.0,0.0,0.0,0.0,0.0,0.0,0.0,0.0,0.0,0.0,0.0,0.0,0.0,0.0,0.0,0.0,0.0,0.0,0.0,0.0,0.0,0.0,0.0,0.0,0.0,0.0,0.0,0.0,0.0,0.0,0.0,0.0,0.0,0.0,0.0,0.0,0.0,0.0,0.0,0.0,0.0,0.0,0.0,0.0,0.0,0.0,0.0,0.0,0.0,0.0,0.0,0.0,0.0,0.0,0.0,0.0,0.0,0.0,0.0,0.0,0.0,0.0,0.0,0.0,0.0,0.0,0.0,0.0,0.0,0.0,0.0,0.0,0.0,0.0,0.0,0.0,0.0,0.0,0.0,0.0,0.0,0.0,0.0,0.0,0.0,0.0,0.0,0.0,0.0,0.0,0.0,0.0,0.0,0.0,0.0,0.0,0.0,0.0,0.0,0.0,0.0,0.0,0.0,0.0,0.0,0.0,0.0,0.0,0.0,0.0,0.0,0.0,0.0,0.0,0.0,0.0,0.0,0.0,0.0,0.0,0.0,0.0,0.0,0.0,0.0,0.0,0.0,0.0,0.0,0.0,0.0,0.0,0.0,0.0,0.0,0.0,0.0,0.0,0.0,0.0,0.0,0.0,0.0,0.0,0.0,0.0,0.0,0.0,0.0,0.0,0.0,0.0,0.0,0.0,0.0,0.0,0.0,0.0,0.0,0.0,0.0,0.0,0.0,0.0,0.0,0.0,0.0,0.0,0.0,0.0,0.0,0.0,0.0,0.0,0.0,0.0,0.0,0.0,0.0,0.0,0.0,0.0,0.0,0.0,0.0,0.0,0.0,0.0,0.0,0.0,0.0,0.0,0.0,0.0,0.0,0.0,0.0,0.0,0.0,0.0,0.0,0.0,0.0,0.0,0.0,0.0,0.0,0.0,0.0,0.0,0.0,0.0,0.0,0.0,0.0,0.0,0.0,0.0,0.0,0.0,0.0,0.0,0.0,0.0,0.0,0.0,0.0,0.0,0.0,0.0,0.0,0.0,0.0,0.0,0.0,0.0,0.0,0.0,0.0,0.0,0.0,0.0,0.0,0.0,0.0,0.0,0.0,0.0,0.0,0.0,0.0,0.0,0.0,0.0,0.0,0.0,0.0,0.0,0.0,0.0,0.0,0.0,0.0,0.0,0.0,0.0,0.0,0.0,0.0,0.0,0.0,0.0,0.0,0.0,0.0,0.0,0.0,0.0,0.0,0.0,0.0,0.0,0.0,0.0,0.0,0.0,0.0,0.0,0.0,0.0,0.0,0.0,0.0,0.0,0.0,0.0,0.0,0.0,0.0,0.0,0.0,0.0,0.0,0.0,0.0,0.0,0.0,0.0,0.0,0.0,0.0,0.0,0.0,0.0,0.0,0.0,0.0,0.0,0.0,0.0,0.0,0.0,0.0,0.0,0.0,0.0,0.0,0.0,0.0,0.0,0.0,0.0,0.0,0.0,0.0,0.0,0.0,0.0,0.0,0.0,0.0,0.0,0.0,0.0,0.0,0.0,0.0,0.0,0.0,0.0,0.0,0.0,0.0,0.0,0.0,0.0,0.0,0.0,0.0,0.0,0.0,0.0,0.0,0.0,0.0,0.0,0.0,0.0,0.0,0.0,0.0,0.0,0.0,0.0,0.0,0.0,0.0,0.0,0.0,0.0,0.0,0.0,0.0,0.0,0.0,0.0,0.0,0.0,0.0,0.0,0.0,0.0,0.0,0.0,0.0,0.0,0.0,0.0,0.0,0.0,0.0,0.0,0.0,0.0,0.0,0.0,0.0,0.0,0.0,0.0,0.0,0.0,0.0,0.0,0.0,0.0,0.0,0.0,0.0,0.0,0.0,0.0,0.0,0.0,0.0,0.0,0.0,0.0,0.0,0.0,0.0,0.0,0.0,0.0,0.0,0.0,0.0,0.0,0.0,0.0,0.0,0.0,0.0,0.0,0.0,0.0,0.0,0.0,0.0,0.0,0.0,0.0,0.0,0.0,0.0,0.0,0.0,0.0,0.0,0.0,0.0,0.0,0.0,0.0,0.0,0.0,0.0,0.0,0.0,0.0,0.0,0.0,0.0,0.0,0.0,0.0,0.0,0.0,0.0,0.0,0.0,0.0,0.0,0.0,0.0,0.0,0.0,0.0,0.0,0.0,0.0,0.0,0.0,0.0,0.0,0.0,0.0,0.0,0.0,0.0,0.0,0.0,0.0,0.0,0.0,0.0,0.0,0.0,0.0,0.0,0.0,0.0,0.0,0.0,0.0,0.0,0.0,0.0,0.0,0.0,0.0,0.0,0.0,0.0,0.0,0.0,0.0,0.0,0.0,0.0,0.0,0.0,0.0,0.0,0.0,0.0,0.0,0.0,0.0,0.0,0.0,0.0,0.0,0.0,0.0,0.0,0.0,0.0,0.0,0.0,0.0,0.0,0.0,0.0,0.0,0.0,0.0,0.0,0.0,0.0,0.0,0.0,0.0,0.0,0.0,0.0,0.0,0.0,0.0,0.0,0.0,0.0,0.0,0.0,0.0,0.0,0.0,0.0,0.0,0.0,0.0,0.0,0.0,0.0,0.0,0.0,0.0,0.0,0.0,0.0,0.0,0.0,0.0,0.0,0.0,0.0,0.0,0.0,0.0,0.0,0.0,0.0,0.0,0.0,0.0,0.0,0.0,0.0,0.0,0.0,0.0,0.0,0.0,0.0,0.0,0.0,0.0,0.0,0.0,0.0,0.0,0.0,0.0,0.0,0.0,0.0,0.0,0.0,0.0,0.0,0.0,0.0,0.0,0.0,0.0,0.0,0.0,0.0,0.0,0.0,0.0,0.0,0.0,0.0,0.0,0.0,0.0,0.0,0.0,0.0,0.0,0.0,0.0,0.0,0.0,0.0,0.0,0.0,0.0,0.0,0.0,0.0,0.0,0.0,0.0,0.0,0.0,0.0,0.0,0.0,0.0,0.0,0.0,0.0,0.0,0.0,0.0,0.0,0.0,0.0,0.0,0.0,0.0,0.0,0.0,0.0,0.0,0.0,0.0,0.0,0.0,0.0,0.0,0.0,0.0,0.0,0.0,0.0,0.0,-1.6942,0.0,0.0,0.0,0.0,0.0,0.0,0.0,0.0,0.0,0.0,0.0,0.0,0.0,0.0,0.0,0.0,0.0,0.0,0.0,0.0,0.0,0.0,0.0,0.0,0.0,0.0,0.0,0.0,0.0,0.0,0.0,0.0,0.0,0.0,0.0,0.0,0.0,0.0,0.0,0.0,0.0,0.0,0.0,0.0,0.0,0.0,0.0,0.0,0.0,0.0,0.0,0.0,0.0,0.0,0.0,0.0,0.0,0.0,0.0,0.0,0.0,0.0,0.0,0.0,0.0,0.0,0.0,0.0,0.0,0.0,0.0,0.0,0.0,0.0,0.0,0.0,0.0,0.0,0.0,0.0,0.0,0.0,0.0,0.0,0.0,0.0,0.0,0.0,0.0,0.0,0.0,0.0,0.0,0.0,0.0,0.0,0.0,0.0,0.0,0.0,0.0,0.0,0.0,0.0,0.0,0.0,0.0,0.0,0.0,0.0,-1.7117,-1.6977,-1.7027,-1.7126,-1.7288,0.0,0.0,0.0,0.0,0.0,0.0,0.0,0.0,0.0,0.0,0.0,0.0,0.0,0.0,0.0,0.0,0.0,0.0,0.0,0.0,0.0,0.0,0.0,0.0,0.0,0.0,0.0,0.0,0.0,0.0,0.0,0.0,0.0,0.0,0.0,0.0,0.0,0.0,0.0,0.0,0.0,0.0,0.0,0.0,0.0,0.0,0.0,0.0,0.0,0.0,0.0,0.0,0.0,0.0,0.0,0.0,0.0,0.0,0.0,0.0,0.0,0.0,0.0,0.0,0.0,0.0,0.0,0.0,0.0,0.0,0.0,0.0,0.0,0.0,0.0,0.0,0.0,0.0,0.0,0.0,0.0,0.0,0.0,0.0,0.0,0.0,0.0,0.0,0.0,0.0,0.0,0.0,0.0,0.0,0.0,0.0,0.0,0.0,0.0,0.0,0.0,0.0,0.0,0.0,0.0,0.0,0.0,0.0,0.0,0.0,0.0,0.0,-1.7368,-1.7486,-1.7681,0.0,0.0,0.0,0.0,0.0,0.0,0.0,0.0,0.0,0.0,0.0,0.0,0.0,0.0,0.0,0.0,0.0,0.0,0.0,0.0,0.0,0.0,0.0,0.0,0.0,0.0,0.0,0.0,0.0,0.0,0.0,0.0,0.0,0.0,0.0,0.0,0.0,0.0,0.0,0.0,0.0,0.0,0.0,0.0,0.0,0.0,0.0,0.0,0.0,0.0,0.0,0.0,0.0,0.0,0.0,0.0,0.0,0.0,0.0,0.0,0.0,0.0,0.0,0.0,0.0,0.0,0.0,0.0,0.0,0.0,0.0,0.0,0.0,0.0,0.0,0.0,0.0,0.0,0.0,0.0,0.0,0.0,0.0,0.0,0.0,0.0,0.0,0.0,0.0,0.0,0.0,0.0,0.0,0.0,0.0,0.0,0.0,0.0,0.0,0.0,0.0,0.0,0.0,0.0,0.0,0.0,0.0,0.0,0.0,0.0,-1.7866,-1.7726,-1.7749,0.0,-1.81,0.0,0.0,0.0,0.0,0.0,0.0,0.0,0.0,0.0,0.0,0.0,0.0,0.0,0.0,0.0,0.0,0.0,0.0,0.0,0.0,0.0,0.0,0.0,0.0,0.0,0.0,0.0,0.0,0.0,0.0,0.0,0.0,0.0,0.0,0.0,0.0,0.0,0.0,0.0,0.0,0.0,0.0,0.0,0.0,0.0,0.0,0.0,0.0,0.0,0.0,0.0,0.0,0.0,0.0,0.0,0.0,0.0,0.0,0.0,0.0,0.0,0.0,0.0,0.0,0.0,0.0,0.0,0.0,0.0,0.0,0.0,0.0,0.0,0.0,0.0,0.0,0.0,0.0,0.0,0.0,0.0,0.0,0.0,0.0,0.0,0.0,0.0,0.0,0.0,0.0,0.0,0.0,0.0,0.0,0.0,0.0,0.0,0.0,0.0,0.0,0.0,0.0,0.0,0.0,0.0,0.0,0.0,0.0,0.0,0.0,-1.817,-1.8035,-1.8078,-1.8166,0.0,0.0,0.0,0.0,0.0,0.0,0.0,0.0,0.0,0.0,0.0,0.0,0.0,0.0,0.0,0.0,0.0,0.0,0.0,0.0,0.0,0.0,0.0,0.0,0.0,0.0,0.0,0.0,0.0,0.0,0.0,0.0,0.0,0.0,0.0,0.0,0.0,0.0,0.0,0.0,0.0,0.0,0.0,0.0,0.0,0.0,0.0,0.0,0.0,0.0,0.0,0.0,0.0,0.0,0.0,0.0,0.0,0.0,0.0,0.0,0.0,0.0,0.0,0.0,0.0,0.0,0.0,0.0,0.0,0.0,0.0,0.0,0.0,0.0,0.0,0.0,0.0,0.0,0.0,0.0,0.0,0.0,0.0,0.0,0.0,0.0,0.0,0.0,0.0,0.0,0.0,0.0,0.0,0.0,0.0,0.0,0.0,0.0,0.0,0.0,0.0,0.0,0.0,0.0,0.0,0.0,0.0,0.0,0.0,0.0,-1.8512,-1.8393,-1.827,-1.8348,-1.8428,-1.8544,0.0,0.0,0.0,0.0,0.0,0.0,0.0,0.0,0.0,0.0,0.0,0.0,0.0,0.0,0.0,0.0,0.0,0.0,0.0,0.0,0.0,0.0,0.0,0.0,0.0,0.0,0.0,0.0,0.0,0.0,0.0,0.0,0.0,0.0,0.0,0.0,0.0,0.0,0.0,0.0,0.0,0.0,0.0,0.0,0.0,0.0,0.0,0.0,0.0,0.0,0.0,0.0,0.0,0.0,0.0,0.0,0.0,0.0,0.0,0.0,0.0,0.0,0.0,0.0,0.0,0.0,0.0,0.0,0.0,0.0,0.0,0.0,0.0,0.0,0.0,0.0,0.0,0.0,0.0,0.0,0.0,0.0,0.0,0.0,0.0,0.0,0.0,0.0,0.0,0.0,0.0,0.0,0.0,0.0,0.0,0.0,0.0,0.0,0.0,0.0,0.0,0.0,0.0,0.0,0.0,0.0,0.0,0.0,-1.886,-1.8698,-1.8547,-1.8467,-1.8559,-1.8619,0.0,0.0,0.0,0.0,0.0,0.0,0.0,0.0,0.0,0.0,0.0,0.0,0.0,0.0,0.0,0.0,0.0,0.0,0.0,0.0,0.0,0.0,0.0,0.0,0.0,0.0,0.0,0.0,0.0,0.0,0.0,0.0,0.0,0.0,0.0,0.0,0.0,0.0,0.0,0.0,0.0,0.0,0.0,0.0,0.0,0.0,0.0,0.0,0.0,0.0,0.0,0.0,0.0,0.0,0.0,0.0,0.0,0.0,0.0,0.0,0.0,0.0,0.0,0.0,0.0,0.0,0.0,0.0,0.0,0.0,0.0,0.0,0.0,0.0,0.0,0.0,0.0,0.0,0.0,0.0,0.0,0.0,0.0,0.0,0.0,0.0,0.0,0.0,0.0,0.0,0.0,0.0,0.0,0.0,0.0,0.0,0.0,0.0,0.0,0.0,0.0,0.0,0.0,0.0,0.0,0.0,0.0,0.0,0.0,-1.9018,-1.8825,-1.8715,-1.8695,-1.8714,-1.8788,0.0,0.0,0.0,0.0,0.0,0.0,0.0,0.0,0.0,0.0,0.0,0.0,0.0,0.0,0.0,0.0,0.0,0.0,0.0,0.0,0.0,0.0,0.0,0.0,0.0,0.0,0.0,0.0,0.0,0.0,0.0,0.0,0.0,0.0,0.0,0.0,0.0,0.0,0.0,0.0,0.0,0.0,0.0,0.0,0.0,0.0,0.0,0.0,0.0,0.0,0.0,0.0,0.0,0.0,0.0,0.0,0.0,0.0,0.0,0.0,0.0,0.0,0.0,0.0,0.0,0.0,0.0,0.0,0.0,0.0,0.0,0.0,0.0,0.0,0.0,0.0,0.0,0.0,0.0,0.0,0.0,0.0,0.0,0.0,0.0,0.0,0.0,0.0,0.0,0.0,0.0,0.0,0.0,0.0,0.0,0.0,0.0,0.0,0.0,0.0,0.0,0.0,0.0,0.0,0.0,0.0,0.0,0.0,0.0,-1.9122,0.0,-1.8878,-1.8825,-1.8843,-1.8914,0.0,0.0,0.0,0.0,0.0,0.0,0.0,0.0,0.0,0.0,0.0,0.0,0.0,0.0,0.0,0.0,0.0,0.0,0.0,0.0,0.0,0.0,0.0,0.0,0.0,0.0,0.0,0.0,0.0,0.0,0.0,0.0,0.0,0.0,0.0,0.0,0.0,0.0,0.0,0.0,0.0,0.0,0.0,0.0,0.0,0.0,0.0,0.0,0.0,0.0,0.0,0.0,0.0,0.0,0.0,0.0,0.0,0.0,0.0,0.0,0.0,0.0,0.0,0.0,0.0,0.0,0.0,0.0,0.0,0.0,0.0,0.0,0.0,0.0,0.0,0.0,0.0,0.0,0.0,0.0,0.0,0.0,0.0,0.0,0.0,0.0,0.0,0.0,0.0,0.0,0.0,0.0,0.0,0.0,0.0,0.0,0.0,0.0,0.0,0.0,0.0,0.0,0.0,0.0,0.0,0.0,0.0,0.0,-1.9253,-1.9104,-1.9087,-1.9035,-1.8913,-1.8948,-1.9036,0.0,0.0,0.0,0.0,0.0,0.0,0.0,0.0,0.0,0.0,0.0,0.0,0.0,0.0,0.0,0.0,0.0,0.0,0.0,0.0,0.0,0.0,0.0,0.0,0.0,0.0,0.0,0.0,0.0,0.0,0.0,0.0,0.0,0.0,0.0,0.0,0.0,0.0,0.0,0.0,0.0,0.0,0.0,0.0,0.0,0.0,0.0,0.0,0.0,0.0,0.0,0.0,0.0,0.0,0.0,0.0,0.0,0.0,0.0,0.0,0.0,0.0,0.0,0.0,0.0,0.0,0.0,0.0,0.0,0.0,0.0,0.0,0.0,0.0,0.0,0.0,0.0,0.0,0.0,0.0,0.0,0.0,0.0,0.0,0.0,0.0,0.0,0.0,0.0,0.0,0.0,0.0,0.0,0.0,0.0,0.0,0.0,0.0,0.0,0.0,0.0,0.0,0.0,0.0,0.0,0.0,0.0,0.0,0.0,-1.923,-1.915,-1.9101,-1.9119,-1.9084,-1.9134,0.0,0.0,0.0,0.0,0.0,0.0,0.0,0.0,0.0,0.0,0.0,0.0,0.0,0.0,0.0,0.0,0.0,0.0,0.0,0.0,0.0,0.0,0.0,0.0,0.0,0.0,0.0,0.0,0.0,0.0,0.0,0.0,0.0,0.0,0.0,0.0,0.0,0.0,0.0,0.0,0.0,0.0,0.0,0.0,0.0,0.0,0.0,0.0,0.0,0.0,0.0,0.0,0.0,0.0,0.0,0.0,0.0,0.0,0.0,0.0,0.0,0.0,0.0,0.0,0.0,0.0,0.0,0.0,0.0,0.0,0.0,0.0,0.0,0.0,0.0,0.0,0.0,0.0,0.0,0.0,0.0,0.0,0.0,0.0,0.0,0.0,0.0,0.0,0.0,0.0,0.0,0.0,0.0,0.0,0.0,0.0,0.0,0.0,0.0,0.0,0.0,0.0,0.0,0.0,0.0,0.0,0.0,0.0,0.0,-1.9365,-1.9243,-1.9198,-1.9216,-1.9198,-1.9212,-1.9289,0.0,0.0,0.0,0.0,0.0,0.0,0.0,0.0,0.0,0.0,0.0,0.0,0.0,0.0,0.0,0.0,0.0,0.0,0.0,0.0,0.0,0.0,0.0,0.0,0.0,0.0,0.0,0.0,0.0,0.0,0.0,0.0,0.0,0.0,0.0,0.0,0.0,0.0,0.0,0.0,0.0,0.0,0.0,0.0,0.0,0.0,0.0,0.0,0.0,0.0,0.0,0.0,0.0,0.0,0.0,0.0,0.0,0.0,0.0,0.0,0.0,0.0,0.0,0.0,0.0,0.0,0.0,0.0,0.0,0.0,0.0,0.0,0.0,0.0,0.0,0.0,0.0,0.0,0.0,0.0,0.0,0.0,0.0,0.0,0.0,0.0,0.0,0.0,0.0,0.0,0.0,0.0,0.0,0.0,0.0,0.0,0.0,0.0,0.0,0.0,0.0,0.0,0.0,0.0,0.0,0.0,0.0,0.0,-1.9573,-1.9494,-1.9436,-1.9389,-1.9455,-1.9452,0.0,0.0,0.0,0.0,0.0,0.0,0.0,0.0,0.0,0.0,0.0,0.0,0.0,0.0,0.0,0.0,0.0,0.0,0.0,0.0,0.0,0.0,0.0,0.0,0.0,0.0,0.0,0.0,0.0,0.0,0.0,0.0,0.0,0.0,0.0,0.0,0.0,0.0,0.0,0.0,0.0,0.0,0.0,0.0,0.0,0.0,0.0,0.0,0.0,0.0,0.0,0.0,0.0,0.0,0.0,0.0,0.0,0.0,0.0,0.0,0.0,0.0,0.0,0.0,0.0,0.0,0.0,0.0,0.0,0.0,0.0,0.0,0.0,0.0,0.0,0.0,0.0,0.0,0.0,0.0,0.0,0.0,0.0,0.0,0.0,0.0,0.0,0.0,0.0,0.0,0.0,0.0,0.0,0.0,0.0,0.0,0.0,0.0,0.0,0.0,0.0,0.0,0.0,0.0,0.0,0.0,0.0,0.0,0.0,-2.0482,-2.1007,-2.1013,-2.036,-2.091,-2.1256,0.0,0.0,0.0,0.0,0.0,0.0,0.0,0.0,0.0,0.0,0.0,0.0,0.0,0.0,0.0,0.0,0.0,0.0,0.0,0.0,0.0,0.0,0.0,0.0,0.0,0.0,0.0,0.0,0.0,0.0,0.0,0.0,0.0,0.0,0.0,0.0,0.0,0.0,0.0,0.0,0.0,0.0,0.0,0.0,0.0,0.0,0.0,0.0,0.0,0.0,0.0,0.0,0.0,0.0,0.0,0.0,0.0,0.0,0.0,0.0,0.0,0.0,0.0,0.0,0.0,0.0,0.0,0.0,0.0,0.0,0.0,0.0,0.0,0.0,0.0,0.0,0.0,0.0,0.0,0.0,0.0,0.0,0.0,0.0,0.0,0.0,0.0,0.0,0.0,0.0,0.0,0.0,0.0,0.0,0.0,0.0,0.0,0.0,0.0,0.0,0.0,0.0,0.0,0.0,0.0,0.0,0.0,0.0,-2.096,-2.1316,-2.2076,-2.2261,-2.1763,-2.1877,-2.1967,0.0,0.0,0.0,0.0,0.0,0.0,0.0,0.0,0.0,0.0,0.0,0.0,0.0,0.0,0.0,0.0,0.0,0.0,0.0,0.0,0.0,0.0,0.0,0.0,0.0,0.0,0.0,0.0,0.0,0.0,0.0,0.0,0.0,0.0,0.0,0.0,0.0,0.0,0.0,0.0,0.0,0.0,0.0,0.0,0.0,0.0,0.0,0.0,0.0,0.0,0.0,0.0,0.0,0.0,0.0,0.0,0.0,0.0,0.0,0.0,0.0,0.0,0.0,0.0,0.0,0.0,0.0,0.0,0.0,0.0,0.0,0.0,0.0,0.0,0.0,0.0,0.0,0.0,0.0,0.0,0.0,0.0,0.0,0.0,0.0,0.0,0.0,0.0,0.0,0.0,0.0,0.0,0.0,0.0,0.0,0.0,0.0,0.0,0.0,0.0,0.0,0.0,0.0,0.0,0.0,0.0,0.0,0.0,-2.1313,-2.2099,-2.2926,-2.3333,-2.3314,-2.2629,-2.224,0.0,0.0,0.0,0.0,0.0,0.0,0.0,0.0,0.0,0.0,0.0,0.0,0.0,0.0,0.0,0.0,0.0,0.0,0.0,0.0,0.0,0.0,0.0,0.0,0.0,0.0,0.0,0.0,0.0,0.0,0.0,0.0,0.0,0.0,0.0,0.0,0.0,0.0,0.0,0.0,0.0,0.0,0.0,0.0,0.0,0.0,0.0,0.0,0.0,0.0,0.0,0.0,0.0,0.0,0.0,0.0,0.0,0.0,0.0,0.0,0.0,0.0,0.0,0.0,0.0,0.0,0.0,0.0,0.0,0.0,0.0,0.0,0.0,0.0,0.0,0.0,0.0,0.0,0.0,0.0,0.0,0.0,0.0,0.0,0.0,0.0,0.0,0.0,0.0,0.0,0.0,0.0,0.0,0.0,0.0,0.0,0.0,0.0,0.0,0.0,0.0,0.0,0.0,0.0,0.0,0.0,0.0,0.0,-2.2131,-2.2933,-2.378,-2.4221,-2.4239,-2.4036,-2.3944,0.0,0.0,0.0,0.0,0.0,0.0,0.0,0.0,0.0,0.0,0.0,0.0,0.0,0.0,0.0,0.0,0.0,0.0,0.0,0.0,0.0,0.0,0.0,0.0,0.0,0.0,0.0,0.0,0.0,0.0,0.0,0.0,0.0,0.0,0.0,0.0,0.0,0.0,0.0,0.0,0.0,0.0,0.0,0.0,0.0,0.0,0.0,0.0,-1.5888,0.0,0.0,0.0,0.0,0.0,0.0,0.0,0.0,0.0,0.0,0.0,0.0,0.0,0.0,0.0,0.0,0.0,0.0,0.0,0.0,0.0,0.0,0.0,0.0,0.0,0.0,0.0,0.0,0.0,0.0,0.0,0.0,0.0,0.0,0.0,0.0,0.0,0.0,0.0,0.0,0.0,0.0,0.0,0.0,0.0,0.0,0.0,0.0,0.0,0.0,0.0,0.0,0.0,0.0,0.0,0.0,0.0,0.0,0.0,-2.298,-2.3781,-2.4259,-2.45,-2.45,-2.45,-2.4517,0.0,0.0,0.0,0.0,0.0,0.0,0.0,0.0,0.0,0.0,0.0,0.0,0.0,0.0,0.0,0.0,0.0,0.0,0.0,0.0,0.0,0.0,0.0,0.0,0.0,0.0,0.0,0.0,0.0,0.0,0.0,0.0,0.0,0.0,0.0,0.0,0.0,0.0,0.0,0.0,0.0,0.0,0.0,0.0,0.0,0.0,0.0,0.0,0.0,0.0,0.0,0.0,0.0,0.0,0.0,0.0,0.0,0.0,0.0,0.0,0.0,0.0,0.0,0.0,0.0,0.0,0.0,0.0,0.0,0.0,0.0,0.0,0.0,0.0,0.0,0.0,0.0,0.0,0.0,0.0,0.0,0.0,0.0,0.0,0.0,0.0,0.0,0.0,0.0,0.0,0.0,0.0,0.0,0.0,0.0,0.0,0.0,0.0,0.0,0.0,0.0,0.0,0.0,0.0,0.0,0.0,0.0,-2.2784,-2.3611,-2.4462,-2.45,-2.45,-2.4482,-2.4482,-2.4481,-2.4442,0.0,0.0,0.0,0.0,0.0,0.0,0.0,0.0,0.0,0.0,0.0,0.0,0.0,0.0,0.0,0.0,0.0,0.0,0.0,0.0,0.0,0.0,0.0,0.0,0.0,0.0,0.0,0.0,0.0,0.0,0.0,0.0,0.0,0.0,0.0,0.0,0.0,0.0,-1.4934,-1.5668,0.0,0.0,0.0,0.0,0.0,0.0,0.0,0.0,-1.7506,0.0,0.0,0.0,0.0,0.0,0.0,0.0,0.0,0.0,0.0,0.0,0.0,0.0,0.0,0.0,0.0,0.0,0.0,0.0,0.0,0.0,0.0,0.0,0.0,0.0,0.0,0.0,0.0,0.0,0.0,0.0,0.0,0.0,0.0,0.0,0.0,0.0,0.0,0.0,0.0,0.0,0.0,0.0,0.0,0.0,0.0,0.0,0.0,0.0,0.0,0.0,0.0,0.0,0.0,0.0,0.0,-2.2006,-2.2792,-2.3628,-2.4481,-2.45,-2.4465,-2.4412,-2.4412,-2.4393,-2.4321,0.0,0.0,0.0,0.0,0.0,0.0,0.0,0.0,0.0,0.0,0.0,0.0,0.0,0.0,0.0,0.0,0.0,0.0,0.0,0.0,0.0,0.0,0.0,0.0,0.0,0.0,0.0,0.0,0.0,0.0,0.0,0.0,0.0,0.0,0.0,0.0,0.0,0.0,0.0,-1.7674,-1.8089,0.0,0.0,0.0,0.0,0.0,0.0,0.0,0.0,-2.0435,0.0,0.0,0.0,0.0,0.0,0.0,0.0,0.0,0.0,0.0,0.0,0.0,0.0,0.0,0.0,0.0,0.0,0.0,0.0,0.0,0.0,0.0,0.0,0.0,0.0,0.0,0.0,0.0,0.0,0.0,0.0,0.0,0.0,0.0,0.0,0.0,0.0,0.0,0.0,0.0,0.0,0.0,0.0,0.0,0.0,0.0,0.0,0.0,0.0,0.0,0.0,0.0,0.0,0.0,0.0,-2.2039,-2.324,-2.4074,-2.4481,-2.45,-2.4278,-2.3782,-2.3764,-2.3543,0.0,0.0,0.0,0.0,0.0,0.0,0.0,0.0,0.0,0.0,0.0,0.0,0.0,0.0,0.0,0.0,0.0,0.0,0.0,0.0,0.0,0.0,0.0,0.0,0.0,0.0,0.0,0.0,0.0,0.0,0.0,0.0,0.0,0.0,0.0,0.0,0.0,0.0,0.0,0.0,-1.8873,-1.9327,-2.0588,0.0,0.0,0.0,0.0,0.0,0.0,-2.1421,-2.1363,0.0,0.0,0.0,0.0,0.0,0.0,0.0,0.0,0.0,0.0,0.0,0.0,0.0,0.0,0.0,0.0,0.0,0.0,0.0,0.0,0.0,0.0,0.0,0.0,0.0,0.0,0.0,0.0,0.0,0.0,0.0,0.0,0.0,0.0,0.0,0.0,0.0,0.0,0.0,0.0,0.0,0.0,0.0,0.0,0.0,0.0,0.0,0.0,0.0,0.0,0.0,0.0,0.0,0.0,0.0,-2.2296,-2.3721,-2.45,-2.45,-2.45,-2.4166,-2.3466,-2.3412,-2.3098,0.0,0.0,0.0,0.0,0.0,0.0,0.0,0.0,0.0,0.0,0.0,0.0,0.0,0.0,0.0,0.0,0.0,0.0,0.0,0.0,0.0,0.0,0.0,0.0,0.0,0.0,0.0,0.0,0.0,0.0,0.0,0.0,0.0,0.0,0.0,0.0,0.0,0.0,0.0,0.0,0.0,-2.0467,-2.1798,-2.2064,0.0,0.0,0.0,0.0,-2.2555,-2.2554,0.0,0.0,0.0,0.0,0.0,0.0,0.0,0.0,0.0,0.0,0.0,0.0,0.0,0.0,0.0,0.0,0.0,0.0,0.0,0.0,0.0,0.0,0.0,0.0,0.0,0.0,0.0,0.0,0.0,0.0,0.0,0.0,0.0,0.0,0.0,0.0,0.0,0.0,0.0,0.0,0.0,0.0,0.0,0.0,0.0,0.0,0.0,0.0,0.0,0.0,0.0,0.0,0.0,0.0,0.0,0.0,-2.3095,-2.3996,-2.45,-2.45,-2.45,-2.4409,-2.4264,-2.4192,-2.41,0.0,0.0,0.0,0.0,0.0,0.0,0.0,0.0,0.0,0.0,0.0,0.0,0.0,0.0,0.0,0.0,0.0,0.0,0.0,0.0,0.0,0.0,0.0,0.0,0.0,0.0,0.0,0.0,0.0,0.0,0.0,0.0,0.0,0.0,0.0,0.0,0.0,0.0,0.0,0.0,0.0,-2.1692,-2.1895,-2.2528,-2.3196,0.0,0.0,-2.5197,-2.5832,-2.592,0.0,0.0,0.0,0.0,0.0,0.0,0.0,0.0,0.0,0.0,0.0,0.0,0.0,0.0,0.0,0.0,0.0,0.0,0.0,0.0,0.0,0.0,0.0,0.0,0.0,0.0,0.0,0.0,0.0,0.0,0.0,0.0,0.0,0.0,0.0,0.0,0.0,0.0,0.0,0.0,0.0,0.0,0.0,0.0,0.0,0.0,0.0,0.0,0.0,0.0,0.0,0.0,0.0,0.0,0.0,-2.3201,-2.3233,-2.4053,-2.45,-2.45,-2.45,-2.4242,-2.3727,-2.3691,-2.3415,0.0,0.0,0.0,0.0,0.0,0.0,0.0,0.0,0.0,0.0,0.0,0.0,0.0,0.0,0.0,0.0,0.0,0.0,0.0,0.0,0.0,0.0,0.0,0.0,0.0,0.0,0.0,0.0,0.0,0.0,0.0,0.0,0.0,0.0,0.0,0.0,0.0,0.0,0.0,0.0,0.0,0.0,-2.3803,-2.4247,0.0,0.0,0.0,-2.6229,-2.6518,0.0,0.0,0.0,0.0,0.0,0.0,0.0,0.0,0.0,0.0,0.0,0.0,0.0,0.0,0.0,0.0,0.0,0.0,0.0,0.0,0.0,0.0,0.0,0.0,0.0,0.0,0.0,0.0,0.0,0.0,0.0,0.0,0.0,0.0,0.0,0.0,0.0,0.0,0.0,0.0,0.0,0.0,0.0,0.0,0.0,0.0,0.0,0.0,0.0,0.0,0.0,0.0,0.0,0.0,0.0,0.0,0.0,-2.3518,-2.4166,-2.45,-2.45,-2.45,-2.4185,-2.3557,-2.3503,0.0,0.0,0.0,0.0,0.0,0.0,0.0,0.0,0.0,0.0,0.0,0.0,0.0,0.0,0.0,0.0,0.0,0.0,0.0,0.0,0.0,0.0,0.0,0.0,0.0,0.0,0.0,-1.6417,0.0,0.0,0.0,0.0,0.0,0.0,0.0,0.0,0.0,0.0,0.0,0.0,0.0,0.0,-2.4082,-2.5336,-2.5834,-2.6331,0.0,0.0,-2.7279,-2.72,-2.72,-2.683,0.0,0.0,0.0,0.0,0.0,0.0,0.0,0.0,0.0,0.0,0.0,0.0,0.0,0.0,0.0,0.0,0.0,0.0,0.0,0.0,0.0,0.0,0.0,0.0,0.0,0.0,0.0,0.0,0.0,0.0,0.0,0.0,0.0,0.0,0.0,0.0,0.0,0.0,0.0,0.0,0.0,0.0,0.0,0.0,0.0,0.0,0.0,0.0,0.0,0.0,0.0,0.0,0.0,0.0,0.0,-2.4407,-2.4462,-2.45,-2.45,-2.45,-2.4462,-2.4425,-2.4355,-2.4264,0.0,0.0,0.0,0.0,0.0,0.0,0.0,0.0,0.0,0.0,0.0,0.0,0.0,0.0,0.0,0.0,0.0,0.0,0.0,0.0,0.0,0.0,0.0,0.0,0.0,0.0,0.0,0.0,0.0,0.0,0.0,0.0,0.0,0.0,0.0,0.0,0.0,0.0,0.0,0.0,0.0,-2.539,-2.55,-2.6769,-2.7745,0.0,0.0,-2.8851,-2.8828,-2.8828,-2.8297,-2.6759,0.0,0.0,0.0,0.0,0.0,0.0,0.0,0.0,0.0,0.0,0.0,0.0,0.0,0.0,0.0,0.0,0.0,0.0,0.0,0.0,0.0,0.0,0.0,0.0,0.0,0.0,0.0,0.0,0.0,0.0,0.0,0.0,0.0,0.0,0.0,0.0,0.0,0.0,0.0,0.0,0.0,0.0,0.0,0.0,0.0,0.0,0.0,0.0,0.0,0.0,0.0,0.0,0.0,-2.45,-2.45,-2.45,-2.45,-2.45,-2.45,-2.45,-2.45,-2.4482,-2.4447,0.0,0.0,0.0,0.0,0.0,0.0,0.0,0.0,0.0,0.0,0.0,0.0,0.0,0.0,0.0,0.0,0.0,0.0,0.0,0.0,0.0,0.0,0.0,0.0,0.0,0.0,0.0,0.0,-1.851,-1.8804,-1.8949,0.0,0.0,0.0,0.0,0.0,0.0,0.0,0.0,0.0,0.0,-2.4977,-2.5968,-2.6606,0.0,0.0,-2.8699,-2.89,-2.8876,-2.8905,-2.8398,-2.6808,-2.6551,0.0,0.0,0.0,0.0,0.0,0.0,0.0,0.0,0.0,0.0,0.0,0.0,0.0,0.0,0.0,0.0,0.0,0.0,0.0,0.0,0.0,0.0,0.0,0.0,0.0,0.0,0.0,0.0,0.0,0.0,0.0,0.0,0.0,0.0,0.0,0.0,0.0,0.0,0.0,0.0,0.0,0.0,0.0,0.0,0.0,0.0,0.0,0.0,0.0,0.0,0.0,0.0,-2.4515,-2.45,-2.4517,-2.4517,-2.45,-2.45,-2.4517,-2.4498,-2.4498,-2.4481,0.0,0.0,0.0,0.0,0.0,0.0,0.0,0.0,0.0,0.0,0.0,0.0,0.0,0.0,0.0,0.0,0.0,0.0,0.0,0.0,0.0,0.0,0.0,0.0,0.0,0.0,0.0,0.0,-1.9439,-1.9405,-1.9472,0.0,0.0,0.0,0.0,0.0,0.0,0.0,0.0,0.0,0.0,-2.4935,-2.6267,-2.6626,-2.7242,-2.8585,-2.8804,-2.8804,-2.8804,-2.8858,-2.8448,-2.7076,0.0,0.0,0.0,0.0,0.0,0.0,0.0,0.0,0.0,0.0,0.0,0.0,0.0,0.0,0.0,0.0,0.0,0.0,0.0,0.0,0.0,0.0,0.0,0.0,0.0,0.0,0.0,0.0,0.0,0.0,0.0,0.0,0.0,0.0,0.0,0.0,0.0,0.0,0.0,0.0,0.0,0.0,0.0,0.0,0.0,0.0,0.0,0.0,0.0,0.0,0.0,0.0,0.0,-2.4566,-2.45,-2.4515,-2.4515,-2.4518,-2.4518,-2.4554,-2.4551,-2.4513,-2.4549,-2.4636,0.0,0.0,0.0,0.0,0.0,0.0,0.0,0.0,0.0,0.0,0.0,0.0,0.0,0.0,0.0,0.0,0.0,0.0,0.0,0.0,0.0,0.0,0.0,0.0,0.0,0.0,-2.0468,-1.9918,-1.9523,0.0,0.0,0.0,0.0,0.0,0.0,0.0,0.0,0.0,0.0,-2.4754,-2.5539,-2.6297,-2.7059,-2.7783,-2.8658,-2.8804,-2.8804,-2.8785,-2.8858,-2.8631,0.0,0.0,0.0,0.0,0.0,0.0,0.0,0.0,0.0,0.0,0.0,0.0,0.0,0.0,0.0,0.0,0.0,0.0,0.0,0.0,0.0,0.0,0.0,0.0,0.0,0.0,0.0,-2.4879,-2.4395,0.0,0.0,0.0,0.0,0.0,0.0,0.0,0.0,0.0,0.0,0.0,-2.674,-2.709,0.0,0.0,0.0,0.0,0.0,0.0,0.0,0.0,0.0,0.0,0.0,0.0,-2.4564,-2.4534,-2.5054,-2.5334,-2.5299,-2.5874,-2.6153,-2.6153,-2.6206,-2.6224,-2.626,0.0,0.0,0.0,0.0,0.0,0.0,0.0,0.0,0.0,0.0,0.0,0.0,0.0,0.0,0.0,0.0,0.0,0.0,0.0,0.0,0.0,0.0,0.0,0.0,0.0,-2.1346,0.0,0.0,0.0,0.0,0.0,0.0,0.0,0.0,0.0,0.0,0.0,-2.4208,-2.417,-2.4331,-2.491,-2.622,-2.6531,-2.7162,0.0,0.0,0.0,0.0,0.0,0.0,0.0,0.0,0.0,0.0,0.0,0.0,0.0,0.0,-2.7034,-2.5886,-2.5926,-2.6151,-2.6232,0.0,0.0,0.0,0.0,0.0,0.0,0.0,0.0,0.0,0.0,0.0,0.0,0.0,0.0,0.0,0.0,-2.538,0.0,0.0,0.0,0.0,0.0,0.0,0.0,0.0,-2.738,-2.7581,-2.7671,-2.8037,-2.8083,0.0,-2.7846,-2.7081,0.0,0.0,0.0,0.0,0.0,0.0,0.0,0.0,-2.5026,-2.4995,-2.5815,-2.6245,-2.6191,-2.673,-2.7009,-2.7046,-2.71,-2.7135,-2.7135,-2.6523,-2.6041,0.0,0.0,0.0,0.0,0.0,0.0,0.0,0.0,0.0,0.0,0.0,0.0,0.0,0.0,0.0,0.0,0.0,0.0,0.0,0.0,0.0,0.0,0.0,-2.2218,0.0,0.0,0.0,0.0,0.0,0.0,0.0,0.0,0.0,-2.419,-2.419,-2.419,-2.4113,-2.4036,-2.4449,-2.5736,0.0,0.0,0.0,0.0,0.0,0.0,0.0,-2.8832,-2.8576,-2.865,-2.8854,-2.9115,-2.9658,-3.0028,-2.9959,0.0,0.0,-2.7669,-2.7658,-2.7908,-2.7991,-2.8281,-2.8548,-2.8648,-2.8725,-2.8689,0.0,0.0,0.0,0.0,0.0,0.0,0.0,0.0,-2.6518,-2.6495,0.0,-2.6427,0.0,0.0,0.0,0.0,0.0,0.0,0.0,0.0,-2.807,-2.8479,-2.8606,-2.9441,-2.9488,-2.8768,-2.8802,-2.836,-2.7514,-2.6639,0.0,0.0,0.0,0.0,0.0,0.0,-2.5933,-2.5813,-2.6672,-2.7102,-2.7028,-2.7084,-2.7139,-2.721,-2.7262,-2.7317,-2.7279,-2.719,-2.6762,-2.5925,-2.5744,0.0,0.0,0.0,0.0,0.0,0.0,0.0,0.0,0.0,0.0,0.0,0.0,0.0,0.0,0.0,0.0,0.0,0.0,0.0,0.0,-2.362,0.0,0.0,0.0,0.0,0.0,0.0,0.0,0.0,0.0,0.0,-2.419,-2.4208,-2.4151,-2.4016,0.0,0.0,0.0,0.0,-2.6493,-2.7363,-2.8154,-2.8694,-2.8712,-2.8852,-2.9222,-2.9954,0.0,0.0,-3.1492,-3.1639,-3.1653,-3.1581,-3.1617,-3.109,-2.9549,-2.9798,-3.0254,-3.036,-3.101,-3.1753,-3.1936,-3.168,-3.1591,-2.9388,0.0,0.0,0.0,0.0,-2.8368,-2.8989,-3.0013,-2.9965,-2.93,-2.8233,-2.8278,0.0,0.0,0.0,0.0,0.0,0.0,-2.8222,-2.882,-2.9231,-2.9396,-2.9432,-2.9813,-2.9874,-2.9696,-2.9707,-2.9303,-2.8517,-2.8183,-2.7275,-2.5815,0.0,0.0,0.0,0.0,-2.5933,-2.5887,-2.7195,-2.7923,-2.7866,-2.8464,-2.8858,-2.8951,-2.8933,-2.8933,-2.8895,-2.826,-2.7774,-2.7513,-2.632,0.0,0.0,0.0,0.0,0.0,0.0,0.0,0.0,0.0,0.0,0.0,0.0,0.0,0.0,0.0,0.0,0.0,0.0,0.0,-2.434,-2.4154,-2.4003,0.0,0.0,0.0,0.0,0.0,0.0,0.0,0.0,0.0,-2.419,-2.4151,-2.4113,0.0,0.0,-2.4345,-2.5679,-2.6013,-2.6603,-2.7976,0.0,0.0,0.0,-2.9405,-2.9963,-3.0221,-3.1249,-3.2188,-3.2482,-3.2976,-3.3271,-3.322,-3.371,-3.3942,-3.3348,-3.2077,-3.1286,-3.1283,-3.1543,-3.1801,-3.1908,-3.1992,-3.1979,-3.1309,-2.9576,-2.9072,-2.9363,-3.0165,-3.0138,-3.0669,-3.1531,-3.1507,-3.0912,-3.0028,-3.007,-2.9562,-2.8679,-2.8743,0.0,0.0,0.0,-3.0015,-3.0501,-3.0678,-3.0753,-3.0808,-3.0892,-3.0823,-3.0586,-3.0582,-3.0179,-2.937,-2.9296,-2.8552,-2.7203,0.0,0.0,-2.4847,-2.589,-2.6386,-2.6354,-2.7886,-2.8725,-2.8725,-2.9249,-2.9569,-2.9626,-2.9569,-2.9569,-2.955,-2.9006,-2.8556,-2.8202,-2.6898,-2.5987,0.0,0.0,0.0,0.0,0.0,0.0,0.0,0.0,0.0,0.0,0.0,-2.3795,0.0,0.0,0.0,0.0,-2.4152,-2.4284,-2.4394,-2.4411,0.0,0.0,0.0,0.0,0.0,0.0,0.0,-2.4649,-2.4647,-2.4756,-2.5008,-2.5001,-2.4814,-2.4525,-2.462,-2.5095,-2.5989,0.0,-2.6922,-2.7879,-2.8445,-2.8895,-2.9229,-2.9831,-3.0465,-3.117,-3.2361,-3.3216,-3.3346,-3.3728,-3.3954,-3.4013,-3.4567,-3.5083,-3.4981,-3.4009,-3.3348,-3.3478,-3.3605,-3.3722,-3.377,-3.3538,-3.332,-3.2974,-3.2203,-3.2102,-3.1982,-3.1802,-3.1825,-3.1821,-3.1829,-3.1829,-3.1774,-3.1737,-3.1718,-3.1723,-3.1714,-3.176,0.0,0.0,-3.193,-3.1955,-3.2014,-3.2122,-3.2221,-3.2298,-3.2353,-3.2045,-3.1393,-3.1331,-3.089,-3.0202,-3.0041,-2.9539,-2.8657,-2.7085,-2.5816,-2.5017,-2.6347,-2.7081,-2.7009,-2.8575,-2.9414,-2.9492,-2.955,-2.9569,-2.9511,-2.9436,-2.9399,-2.938,-2.9323,-2.8949,-2.8201,-2.7359,-2.6522,-2.5708,0.0,0.0,0.0,0.0,0.0,0.0,0.0,0.0,0.0,0.0,0.0,0.0,0.0,0.0,0.0,-2.4172,0.0,-2.4487,-2.454,0.0,0.0,0.0,-2.4543,-2.4487,-2.4413,-2.4669,-2.5399,0.0,0.0,0.0,0.0,-2.6041,-2.5343,-2.5787,-2.6146,-2.6105,-2.6759,-2.7295,-2.7439,-2.8263,-2.915,-2.9813,-3.0265,-3.1066,-3.2495,-3.3416,-3.3847,-3.3917,-3.3954,-3.3947,-3.3895,-3.4495,-3.4962,-3.4924,-3.5403,-3.6182,-3.6277,-3.6381,-3.6453,-3.6305,-3.5692,-3.5099,-3.5374,-3.4649,-3.4649,-3.3863,-3.2688,-3.2688,-3.3022,-3.3579,-3.3579,-3.3245,-3.2669,-3.2669,-3.2335,-3.176,-3.1801,-3.1801,-3.1782,-3.1886,-3.1952,-3.2014,-3.2062,-3.2162,-3.2221,-3.2298,-3.2276,-3.2101,-3.1528,-3.1127,-3.0915,-3.026,-2.9472,-2.8628,-2.8098,-2.7127,-2.5794,-2.6647,-2.7063,-2.7009,-2.8574,-2.9412,-2.9414,-2.9511,-2.9512,-2.9511,-2.8798,-2.8423,-2.8423,-2.7806,-2.7655,-2.8064,-2.6737,-2.6127,-2.6562,-2.4931,0.0,0.0,0.0,0.0,0.0,0.0,0.0,0.0,0.0,-2.4802,-2.4784,0.0,-2.4714,0.0,-2.4172,-2.4506,-2.5245,-2.5282,0.0,0.0,-2.6072,-2.605,-2.5983,-2.5962,-2.6015,-2.6133,-2.6107,-2.6136,-2.6295,-2.67,-2.6878,-2.6631,-2.6193,-2.6133,-2.6724,-2.6956,-2.7315,-2.7976,-2.8879,-2.9631,-3.0017,-3.1187,-3.244,-3.3529,-3.3792,-3.3895,-3.3939,-3.3815,-3.378,-3.3808,-3.4357,-3.4775,-3.4819,-3.5921,-3.6802,-3.6906,-3.654,-3.6237,-3.6258,-3.569,-3.5092,-3.6445,-3.5999,-3.5646,-3.4959,-3.4067,-3.3696,-3.3788,-3.4197,-3.4216,-3.3937,-3.3528,-3.3528,-3.3268,-3.286,-3.286,-3.286,-3.2883,-3.2947,-3.3011,-3.3015,-3.3085,-3.3149,-3.3231,-3.3255,-3.3108,-3.2789,-3.2336,-3.1769,-3.1069,-3.058,-2.9922,-2.9041,-2.8594,-2.7902,-2.7043,-2.74,-2.7569,-2.755,-2.876,-2.9392,-2.939,-2.9433,-2.9453,-2.9451,-2.8924,-2.8639,-2.8621,-2.8133,-2.8091,-2.8519,-2.7364,-2.6905,-2.7341,-2.6114,-2.5355,0.0,0.0,0.0,0.0,0.0,0.0,0.0,0.0,0.0,0.0,0.0,-2.567,0.0,-2.5274,0.0,-2.6001,-2.5959,-2.6062,-2.6478,-2.6472,-2.6465,-2.6376,-2.6354,-2.6477,-2.6776,-2.6723,-2.6826,-2.7139,-2.7402,-2.7576,-2.7495,-2.7005,-2.6854,-2.7353,-2.745,-2.7638,-2.8156,-2.9062,-3.0071,-3.0793,-3.2137,-3.3213,-3.3697,-3.3788,-3.3762,-3.378,-3.3698,-3.3643,-3.3688,-3.4204,-3.4691,-3.4697,-3.5561,-3.6439,-3.675,-3.6552,-3.6485,-3.6911,-3.6091,-3.5241,-3.6928,-3.6779,-3.6073,-3.5683,-3.5423,-3.468,-3.429,-3.4216,-3.4216,-3.4216,-3.4216,-3.4216,-3.4216,-3.4216,-3.4216,-3.4216,-3.4197,-3.4288,-3.4293,-3.4293,-3.434,-3.4427,-3.4473,-3.4473,-3.4102,-3.3433,-3.3339,-3.257,-3.1202,-3.0995,-3.0488,-2.9719,-2.8877,-2.8409,-2.8351,-2.8369,-2.8331,-2.8369,-2.9038,-2.9372,-2.9388,-2.939,-2.9372,-2.9388,-2.9212,-2.9135,-2.9135,-2.896,-2.8938,-2.8993,-2.8255,-2.789,-2.7966,-2.7163,-2.6718,0.0,-2.6597,0.0,0.0,0.0,0.0,0.0,0.0,0.0,0.0,-2.6523,-2.6551,-2.6675,-2.6612,-2.6609,-2.6707,-2.66,-2.6545,-2.6645,-2.6594,-2.6524,-2.6477,-2.6453,-2.6724,-2.736,-2.7356,-2.7574,-2.8112,-2.8136,-2.8025,-2.7904,-2.7689,-2.7607,-2.7847,-2.7904,-2.7933,-2.8088,-2.9015,-3.0358,-3.1944,-3.2944,-3.3455,-3.353,-3.3577,-3.3577,-3.3577,-3.353,-3.352,-3.3488,-3.3918,-3.4297,-3.4253,-3.4738,-3.5464,-3.6164,-3.6291,-3.6612,-3.7318,-3.6504,-3.5555,-3.8265,-3.7652,-3.7522,-3.6705,-3.5479,-3.5312,-3.4847,-3.4216,-3.4216,-3.4216,-3.4216,-3.4216,-3.4216,-3.4216,-3.4216,-3.4216,-3.4216,-3.4221,-3.4245,-3.4293,-3.4245,-3.4269,-3.434,-3.4288,-3.4218,-3.406,-3.3463,-3.3019,-3.2764,-3.1379,-3.065,-3.0463,-2.962,-2.919,0.0,0.0,0.0,0.0,-2.9332,-2.9388,-2.9388,-2.9388,-2.9388,-2.9388,-2.8653,0.0,-2.822,-2.7488,-2.7411,-2.8058,-2.7374,0.0,0.0,0.0,0.0,0.0,0.0,0.0,0.0,0.0,0.0,0.0,-3.0063,-2.9466,-2.7638,-2.6893,-2.653,-2.6612,-2.6465,-2.6654,-2.7314,-2.7229,-2.738,-2.7936,-2.7957,-2.7905,-2.7808,-2.779,-2.7879,-2.7978,-2.7977,-2.7931,-2.8017,-2.7893,-2.7748,-2.7677,-2.7526,-2.7513,-2.7587,-2.7647,-2.7736,-2.7953,-2.9272,-3.0915,-3.2679,-3.31,-3.3268,-3.3404,-3.3452,-3.3422,-3.3422,-3.3268,-3.3208,-3.3147,-3.3198,-3.323,-3.3198,-3.3723,-3.4389,-3.5101,-3.565,-3.6183,-3.6595,-3.5916,-3.4975,-3.8859,0.0,-3.8061,-3.7429,0.0,-3.5832,-3.5237,-3.481,-3.4383,-3.4216,-3.4216,-3.4216,-3.4216,-3.4216,-3.4216,-3.4414,-3.4797,-3.4797,-3.5002,-3.5391,-3.5295,-3.5047,-3.471,-3.4633,-3.4386,-3.4049,-3.3667,-3.3284,-3.2924,-3.2172,-3.1582,-3.1195,-3.0395,-2.9986,-2.9967,-2.9593,-2.9388,-2.9388,-2.9388,-2.9388,-2.9388,-2.9388,-2.9388,-2.9388,0.0,0.0,0.0,0.0,0.0,0.0,0.0,0.0,0.0,0.0,0.0,-2.85,-2.8805,-2.9127,-2.9502,-2.9899,-3.0259,-3.068,-3.0961,-3.068,-2.9491,-2.901,-2.8627,-2.825,-2.8046,-2.7947,-2.799,-2.7831,-2.7843,-2.8138,-2.8136,-2.8017,-2.7961,-2.7961,-2.7933,-2.7893,-2.7853,-2.7766,-2.7707,-2.7569,-2.743,-2.7355,-2.7341,-2.7327,-2.7324,-2.7404,-2.7783,-2.8671,-2.9515,-3.0783,-3.2396,-3.2866,-3.2912,-3.2993,-3.3006,-3.3024,-3.3011,-3.293,-3.2816,-3.2802,-3.2737,-3.269,-3.2608,-3.2807,-3.3231,-3.3844,-3.4242,-3.4504,-3.4653,-3.4689,-3.4515,-3.9101,-3.9045,-3.8395,-3.8042,-3.7801,-3.6463,-3.585,-3.5621,0.0,0.0,0.0,-3.4364,-3.4396,-3.4414,-3.4544,-3.4958,-3.5547,-3.5565,-3.589,-3.6436,-3.6315,-3.5919,-3.5266,-3.521,-3.4834,-3.422,-3.4109,-3.3732,-3.3096,-3.2945,-3.2538,-3.1895,-3.1184,-3.0816,-3.0764,-3.002,-2.9611,-2.9611,-2.9481,-2.9388,-2.9388,-2.9388,-2.9388,-2.9388,-2.9326,-2.9262,-2.9218,-2.9281,-2.9287,-2.9219,-2.9347,-2.9444,-2.9527,-3.0064,-3.0423,-3.0496,-3.1017,-3.1407,-3.1477,-3.1469,-3.1498,-3.1519,-3.1429,-3.1302,-3.1156,-3.1084,-3.0758,-3.0087,-2.971,-2.9223,-2.8596,-2.8208,-2.7968,-2.7911,-2.7806,-2.7701,-2.7642,-2.763,-2.7582,-2.7509,-2.7448,-2.7425,-2.7518,-2.7471,-2.7392,-2.748,-2.765,-2.7545,-2.7513,-2.7609,-2.8149,-2.9375,-2.9929,-3.0623,-3.1932,-3.2438,-3.2506,-3.247,-3.2537,-3.257,-3.2521,-3.2488,-3.2472,-3.2422,-3.2387,-3.2284,-3.2144,-3.2054,-3.2225,-3.2841,-3.2882,-3.2788,-3.2861,-3.3442,-3.3731,-3.9101,-3.9082,-3.8971,-3.8544,-3.7875,-3.7652,-3.7161,-3.6321,-3.486,-3.4216,-3.4234,-3.4921,-3.5229,-3.5266,-3.5898,-3.6168,-3.6187,-3.6177,-3.6205,0.0,-3.6161,-3.6058,-3.5967,-3.5878,-3.5793,-3.5629,-3.502,-3.4658,-3.4541,-3.3353,-3.2718,-3.2654,-3.2001,-3.1615,-3.1559,-3.0857,-3.0429,-3.0429,-2.976,-2.9388,-2.9388,-2.9388,-2.9388,-2.9386,-2.9363,-2.9302,-2.928,-2.9839,-3.012,-3.0139,-3.0728,-3.1072,-3.1078,-3.1111,-3.1151,-3.1162,-3.1214,-3.1482,-3.211,-3.2165,-3.2353,-3.2781,-3.2665,-3.2092,-3.0954,-3.0782,-3.0689,-3.0478,-2.9739,-2.9142,-2.8953,-2.8247,-2.7752,-2.7639,-2.7513,-2.7434,-2.7362,-2.7316,-2.7284,-2.727,-2.7085,-2.7331,-2.776,-2.7896,-2.8135,-2.8646,-2.8629,-2.8853,-2.8699,-2.8527,-2.8644,-2.9334,-3.0058,-3.0872,-3.1758,-3.2002,-3.202,-3.2074,-3.2074,-3.2109,-3.2074,-3.2038,-3.202,-3.1966,-3.1912,-3.1839,-3.1691,-3.1617,-3.1833,-3.2337,-3.2355,-3.2326,-3.2309,-3.2479,-3.2343,-3.9101,-3.9101,-3.9101,-3.8878,-3.8507,-3.8044,-3.7359,-3.6481,-3.5705,-3.5399,-3.5462,-3.5752,-3.5873,-3.591,-3.6196,-3.6515,-3.6842,-3.6842,-3.704,-3.7338,-3.7226,-3.6944,-3.6499,-3.6399,-3.6168,-3.5779,-3.5447,-3.515,-3.484,-3.4274,-3.3836,-3.3475,-3.2794,-3.2228,-3.1782,-3.1429,-3.1244,-3.1229,-3.0039,-2.9388,-2.9407,-2.9834,-3.0057,-3.0057,-3.0423,-3.0639,-3.0553,-3.0835,-3.0973,-3.0901,-3.1194,-3.1327,-3.1352,-3.1647,-3.1837,-3.1837,-3.2119,-3.2415,-3.2708,-3.2547,-3.2505,-3.2651,-3.2486,-3.2066,-3.1352,-3.1469,-3.1363,-3.0906,-3.0314,-2.9819,-2.9417,-2.8908,-2.8587,-2.8438,-2.8422,-2.8305,-2.8169,-2.8014,-2.7944,-2.7909,-2.7822,-2.7885,-2.8166,-2.8289,-2.8426,-2.8814,-2.8941,-2.9049,-2.9155,-2.9295,-2.9486,-2.9898,-3.0276,-3.0793,-3.1519,-3.1674,-3.1654,-3.1634,-3.16,-3.162,-3.16,-3.1542,-3.1504,-3.1504,-3.1483,-3.1406,-3.1329,-3.1235,-3.1382,-3.1455,-3.1544,-3.152,-3.1537,-3.1472,-3.1321,-3.9101,-3.9101,-3.9073,-3.9073,-3.899,-3.8331,-3.7618,-3.7007,-3.6849,-3.682,-3.6867,-3.6654,-3.6544,-3.6534,-3.663,-3.6979,-3.7429,-3.7453,-3.7754,-3.8171,-3.8086,-3.7693,-3.7102,-3.6998,-3.6674,-3.6179,-3.6027,-3.5774,-3.5392,-3.5357,-3.5053,-3.4345,-3.3629,-3.2953,-3.2317,-3.2131,-3.2038,-3.1945,-3.0646,-2.9903,-2.9943,-3.0538,-3.0832,-3.0865,-3.1403,-3.1691,-3.1592,-3.1734,-3.1777,-3.1671,-3.1762,-3.1792,-3.1808,-3.2234,-3.248,-3.2513,-3.2847,-3.3037,-3.288,-3.2588,-3.23,-3.2127,-3.1932,-3.1754,-3.1598,-3.1773,-3.1759,-3.1272,-3.082,-3.0368,-2.9799,-2.9472,-2.928,-2.9102,-2.9066,-2.8909,-2.8794,-2.8661,-2.8531,-2.8455,-2.834,-2.8301,-2.8539,-2.8605,-2.8821,-2.9104,-2.9261,-2.9428,-2.957,-3.0065,-3.0391,-3.0459,-3.0513,-3.0755,-3.1287,-3.1389,-3.1346,-3.1202,-3.1247,-3.1213,-3.1173,-3.1151,-3.1151,-3.1151,-3.1151,-3.1112,-3.0975,-3.0918,-3.0912,-3.0938,-3.0914,-3.0864,-3.0857,-3.0799,-3.0684,-3.9101,-3.9101,-3.9036,-3.8997,-3.8892,-3.8741,-3.8578,-3.8414,-3.8352,-3.8227,-3.799,-3.7478,-3.7211,-3.729,-3.7804,-3.8002,-3.799,-3.7959,-3.7929,-3.7916,-3.7934,-3.7863,-3.7755,-3.7773,-3.7772,-3.7641,-3.7145,-3.6844,-3.6814,-3.6431,-3.5955,-3.5324,-3.4513,-3.4006,-3.379,-3.3136,-3.276,-3.2693,-3.1819,-3.1422,-3.1469,-3.1566,-3.1575,-3.1505,-3.1602,-3.1573,-3.163,-3.2169,-3.2478,-3.2454,-3.2958,-3.3273,-3.3237,-3.3094,-3.2996,-3.2929,-3.2795,-3.2586,-3.2318,-3.1967,-3.175,-3.164,-3.1393,-3.1184,-3.1167,-3.0965,-3.1055,-3.1181,-3.0674,-3.0262,-3.0108,-2.9488,-2.9036,-2.8883,-2.8795,-2.8569,-2.8478,-2.8162,-2.8043,-2.8059,-2.8062,-2.8046,-2.8755,-2.9009,-2.942,-3.0152,-3.0386,-3.0505,-3.0555,-3.0679,-3.0796,-3.0824,-3.0897,-3.0937,-3.1055,-3.0975,-3.0992,-3.0969,-3.0952,-3.0952,-3.0895,-3.0912,-3.0912,-3.0895,-3.0912,-3.0871,-3.079,-3.0733,-3.0692,-3.0651,-3.0568,-3.0551,-3.0526,-3.0568,-3.0526,-3.897,-3.896,-3.891,-3.8803,-3.8683,-3.859,-3.8546,-3.8437,-3.8285,-3.8186,-3.8101,-3.7794,-3.7682,-3.7715,-3.7995,-3.802,-3.7967,-3.7951,-3.7881,-3.781,-3.7792,-3.7775,-3.7739,-3.7703,-3.781,-3.7916,-3.7661,-3.7431,-3.7143,-3.6652,-3.6049,-3.5425,-3.4999,-3.4585,-3.4035,-3.3659,-3.3467,-3.339,-3.3077,-3.2886,-3.2787,-3.2483,-3.225,-3.2249,-3.2654,-3.2842,-3.2773,-3.3058,-3.3095,-3.2944,-3.3117,-3.319,-3.3081,-3.2898,-3.2705,-3.2588,-3.2283,-3.1967,-3.1565,-3.1393,-3.1179,-3.0965,-3.0699,-3.0535,-3.0477,-3.0284,-3.0274,-3.0417,-3.0401,-3.0386,-3.0312,-3.0039,-2.9752,-2.9591,-2.9551,-2.9453,-2.9188,-2.9053,-2.9,-2.8882,-2.8828,-2.8849,-2.9194,-2.9491,-2.9861,-3.0452,-3.0692,-3.0733,-3.0871,-3.0912,-3.0952,-3.0912,-3.0855,-3.0871,-3.0888,-3.0831,-3.0807,-3.0758,-3.0725,-3.0651,-3.0651,-3.0651,-3.0667,-3.0651,-3.0692,-3.0651,-3.0609,-3.0609,-3.0568,-3.0468,-3.0468,-3.0468,-3.0468,-3.0468,-3.0468,-3.8873,-3.8822,-3.8732,-3.8572,-3.8446,-3.8336,-3.8271,-3.8189,-3.8036,-3.7967,-3.7915,-3.7863,-3.7863,-3.7898,-3.7846,-3.7846,-3.7882,-3.8062,-3.8115,-3.8043,-3.8204,-3.8275,-3.8219,-3.8219,-3.8347,-3.8474,-3.8564,-3.8341,-3.7817,-3.6996,-3.6389,-3.5929,-3.5653,-3.5064,-3.4256,-3.4156,-3.3982,-3.3698,-3.3698,-3.3615,-3.3411,-3.3031,-3.282,-3.2866,-3.3342,-3.3587,-3.3473,-3.3415,-3.328,-3.3037,-3.2943,-3.2766,-3.2601,-3.2403,-3.2179,-3.1949,-3.1603,-3.1223,-3.0908,-3.0781,-3.0593,-3.0342,-3.0146,-2.9973,-2.9853,-2.9722,-2.9621,-2.964,-2.9918,-3.0113,-3.03,-3.03,-3.0215,-3.0103,-3.0033,-2.993,-2.9645,-2.9576,-2.9454,-2.9396,-2.9268,-2.9412,-2.9531,-2.9766,-3.0087,-3.0359,-3.0485,-3.0568,-3.0733,-3.0814,-3.0831,-3.079,-3.0692,-3.0725,-3.0783,-3.0725,-3.0659,-3.0634,-3.0559,-3.051,-3.0468,-3.0526,-3.0526,-3.0551,-3.051,-3.051,-3.051,-3.051,-3.0485,-3.0485,-3.0485,-3.0443,-3.0401,-3.0401,-3.0401,-3.878,-3.8695,-3.8533,-3.846,-3.8325,-3.814,-3.8036,-3.8108,-3.7934,-3.7846,-3.7739,-3.7703,-3.7685,-3.7667,-3.7775,-3.7721,-3.7829,-3.8489,-3.8754,-3.8808,-3.9397,-3.9771,-3.9825,-3.9825,-3.9828,-3.9799,-3.9949,-3.9876,-3.9433,-3.8021,-3.7296,-3.7246,-3.6531,-3.5674,-3.4892,-3.4699,-3.4313,-3.3567,-3.3484,-3.337,-3.3183,-3.3129,-3.3226,-3.3352,-3.328,-3.319,-3.3099,-3.2925,-3.2749,-3.2621,-3.2403,-3.2231,-3.2039,-3.1823,-3.1528,-3.1201,-3.0781,-3.0493,-3.0351,-3.0172,-3.0,-2.981,-2.9633,-2.9515,-2.947,-2.9305,-2.9167,-2.9121,-2.9229,-2.9396,-2.9722,-2.9793,-2.9766,-2.9726,-2.9576,-2.9486,-2.9335,-2.9198,-2.9137,-2.9137,-2.9121,-2.9275,-2.9457,-2.9814,-3.0033,-3.0231,-3.0401,-3.051,-3.0551,-3.0651,-3.0651,-3.0568,-3.0526,-3.0568,-3.0651,-3.0609,-3.0526,-3.0543,-3.0543,-3.0468,-3.0468,-3.0468,-3.0468,-3.0468,-3.0468,-3.0468,-3.0468,-3.0485,-3.0443,-3.0417,-3.0417,-3.0375,-3.0333,-3.0248,-3.0248,-3.9531,-3.9849,-3.9765,-3.9607,-3.9463,-3.8852,-3.8582,-3.8528,-3.7936,-3.7703,-3.7649,-3.7649,-3.7899,-3.838,-3.8399,-3.8399,-3.8488,-3.9147,-3.9521,-3.9539,-3.9789,-3.9896,-3.9896,-3.9896,-3.9971,-4.0121,-4.0179,-4.0202,-4.0057,-3.9091,-3.8325,-3.7762,-3.7048,-3.6191,-3.5322,-3.4713,-3.4235,-3.3844,-3.3745,-3.3648,-3.3535,-3.3844,-3.4058,-3.4004,-3.3265,-3.2798,-3.2588,-3.247,-3.2283,-3.2039,-3.1823,-3.164,-3.1414,-3.1106,-3.0821,-3.0551,-3.03,-3.0044,-2.981,-2.9722,-2.956,-2.9273,-2.9182,-2.9106,-2.9045,-2.8967,-2.892,-2.892,-2.892,-2.8998,-2.9137,-2.9259,-2.9335,-2.9182,-2.9152,-2.9121,-2.8998,-2.8982,-2.8936,-2.8951,-2.8998,-2.9229,-2.9547,-2.9798,-2.9957,-3.0146,-3.0316,-3.0443,-3.0485,-3.0551,-3.0568,-3.051,-3.0485,-3.0526,-3.0551,-3.051,-3.0468,-3.0468,-3.0468,-3.0468,-3.0468,-3.0468,-3.0468,-3.0468,-3.0468,-3.0443,-3.0443,-3.0359,-3.0333,-3.0274,-3.029,-3.0248,-3.0205,-3.026,-3.0228,-3.9805,-4.0366,-4.0328,-4.0272,-4.0089,-3.9512,-3.9099,-3.8811,-3.8238,-3.7969,-3.7987,-3.7987,-3.8415,-3.9129,-3.9432,-3.9539,-3.9593,-4.0075,-4.0289,-4.0342,-4.0556,-4.0642,-4.0602,-4.0602,-4.0659,-4.0681,-4.0431,-4.0459,-4.0504,-3.9841,-3.9067,-3.8293,-3.7716,-3.6858,-3.5789,-3.5146,-3.4688,-3.4234,-3.4093,-3.3988,-3.3862,-3.4187,-3.4297,-3.4025,-3.3293,-3.2896,-3.2841,-3.2416,-3.2093,-3.1794,-3.1359,-3.0988,-3.0764,-3.0426,-3.0146,-2.9957,-2.9782,-2.9621,-2.9335,-2.9289,-2.9167,-2.8889,-2.8826,-2.8811,-2.8747,-2.8684,-2.8652,-2.8652,-2.8652,-2.8652,-2.8684,-2.8763,-2.8858,-2.8842,-2.8842,-2.8811,-2.8794,-2.8858,-2.8889,-2.8998,-2.9183,-2.9412,-2.9665,-2.9798,-3.0,-3.0231,-3.0359,-3.0401,-3.0485,-3.0468,-3.0468,-3.0468,-3.0468,-3.0468,-3.051,-3.051,-3.0468,-3.0468,-3.0468,-3.0468,-3.0468,-3.0468,-3.0468,-3.0468,-3.0443,-3.0401,-3.0359,-3.0248,-3.0205,-3.0146,-3.0146,-3.0119,-3.0217,-3.0337,-3.0435,-3.9607,-4.0288,-4.0177,-4.03,-4.028,-4.0024,-3.9504,-3.904,-3.8861,-3.8808,-3.879,-3.8808,-3.9236,-3.995,-4.0556,-4.0985,-4.102,-4.1074,-4.1092,-4.1163,-4.1805,-4.2026,-4.1908,-4.1855,-4.1831,-4.1782,-4.1203,-4.0989,-4.1074,-4.0267,-3.9501,-3.8823,-3.8556,-3.7589,-3.6091,-3.5915,-3.5432,-3.4664,-3.4394,-3.4241,-3.4059,-3.4117,-3.4065,-3.3726,-3.3465,-3.3539,-3.3905,-3.2808,-3.2141,-3.1941,-3.1091,-3.0392,-3.0076,-2.9879,-2.9685,-2.9582,-2.9323,-2.9154,-2.903,-2.903,-2.9076,-2.8981,-2.8793,-2.8854,-2.8867,-2.8724,-2.8676,-2.8706,-2.8676,-2.855,-2.8581,-2.8645,-2.868,-2.8747,-2.8684,-2.8684,-2.8747,-2.8826,-2.8952,-2.9324,-2.9678,-2.9774,-2.9874,-3.0201,-3.043,-3.0629,-3.0599,-3.0591,-3.0634,-3.0567,-3.0468,-3.0468,-3.0468,-3.0468,-3.0468,-3.0468,-3.0468,-3.0468,-3.0468,-3.0468,-3.0485,-3.0485,-3.0443,-3.0443,-3.0316,-3.0274,-3.0231,-3.0162,-3.0119,-3.006,-3.0017,-3.0087,-3.0331,-3.053,-3.0749,-4.1074,-4.1773,-4.1636,-4.1614,-4.1524,-4.0967,-4.0592,-4.0324,-3.9825,-3.9575,-3.9575,-3.9575,-4.0003,-4.0646,-4.102,-4.1395,-4.1895,-4.1912,-4.1912,-4.1966,-4.2098,-4.2199,-4.2115,-4.2072,-4.2048,-4.197,-4.18,-4.1598,-4.1421,-4.076,-3.9941,-3.9194,-3.8576,-3.7681,-3.6501,-3.5937,-3.5327,-3.491,-3.4719,-3.4555,-3.4355,-3.4658,-3.4796,-3.4588,-3.4296,-3.4203,-3.4259,-3.3067,-3.2116,-3.155,-3.0936,-3.0299,-2.9707,-2.9704,-2.9801,-2.9832,-3.0129,-3.0232,-3.0102,-3.0052,-2.9937,-2.9933,-2.9816,-2.9832,-2.9847,-2.975,-2.9735,-2.975,-2.9797,-2.9746,-2.9679,-2.9628,-2.9331,-2.8601,-2.8493,-2.8618,-2.8855,-2.9375,-2.9832,-3.0225,-3.084,-3.1283,-3.1421,-3.154,-3.1621,-3.1677,-3.1483,-3.1246,-3.1179,-3.0907,-3.0526,-3.0468,-3.0468,-3.0518,-3.0485,-3.0443,-3.0426,-3.0426,-3.0426,-3.0485,-3.0485,-3.0443,-3.0401,-3.0333,-3.0248,-3.0162,-3.006,-3.0017,-2.9989,-2.9978,-3.0011,-3.021,-3.0506,-3.0849,-3.1177,-4.1672,-4.2369,-4.2346,-4.2287,-4.2251,-4.1734,-4.1359,-4.1056,-4.0574,-4.0321,-4.0299,-4.0321,-4.0749,-4.1372,-4.1457,-4.1765,-4.2222,-4.2489,-4.259,-4.259,-4.2565,-4.2647,-4.2757,-4.2432,-4.2079,-4.1789,-4.1771,-4.171,-4.1552,-4.1025,-4.0368,-3.9512,-3.8684,-3.7791,-3.68,-3.6074,-3.5528,-3.5163,-3.5016,-3.4823,-3.4621,-3.4822,-3.4963,-3.4739,-3.4399,-3.4217,-3.4119,-3.3178,-3.24,-3.1706,-3.1165,-3.0497,-2.9927,-3.0129,-3.0185,-3.023,-3.0476,-3.0654,-3.0567,-3.0454,-3.0464,-3.036,-3.0308,-3.0308,-3.0271,-3.0271,-3.0256,-3.0256,-3.0225,-3.0204,-3.0136,-3.0136,-2.9776,-2.9189,-2.9097,-2.92,-2.9541,-3.0227,-3.0768,-3.118,-3.1625,-3.2071,-3.2305,-3.2397,-3.2545,-3.2508,-3.2255,-3.2017,-3.1934,-3.1653,-3.1321,-3.1014,-3.0981,-3.0823,-3.0492,-3.0443,-3.0401,-3.0401,-3.0401,-3.0443,-3.0443,-3.0359,-3.0274,-3.0189,-3.006,-3.0033,-2.9989,-2.9946,-2.9918,-2.9939,-3.0105,-3.0322,-3.0695,-3.1389,-3.1791,-4.1609,-4.2251,-4.2287,-4.2287,-4.2287,-4.2234,-4.1841,-4.127,-4.1163,-4.1141,-4.1078,-4.11,-4.1457,-4.1961,-4.1979,-4.205,-4.2186,-4.2782,-4.3067,-4.3191,-4.3315,-4.3536,-4.3515,-4.2949,-4.2198,-4.1513,-4.1426,-4.1335,-4.1209,-4.1019,-4.0649,-3.9703,-3.8939,-3.8081,-3.7035,-3.6307,-3.5728,-3.522,-3.5224,-3.4958,-3.4609,-3.4513,-3.4399,-3.4234,-3.3899,-3.3694,-3.361,-3.3187,-3.285,-3.2472,-3.146,-3.0833,-3.076,-3.0803,-3.0767,-3.068,-3.066,-3.0747,-3.0582,-3.0698,-3.06,-3.0525,-3.0525,-3.0258,-3.0365,-3.0441,-3.0426,-3.0411,-3.035,-3.0251,-3.0266,-3.0281,-3.0259,-3.0326,-3.0186,-3.0351,-3.088,-3.1323,-3.1694,-3.1997,-3.2217,-3.2439,-3.2754,-3.2767,-3.2859,-3.2854,-3.285,-3.2718,-3.2635,-3.2392,-3.2238,-3.1929,-3.1545,-3.1396,-3.1166,-3.0744,-3.0701,-3.0662,-3.053,-3.0333,-3.0333,-3.0248,-3.0162,-3.0076,-2.9995,-2.9935,-3.0004,-3.0073,-3.019,-3.0325,-3.0473,-3.0603,-3.1054,-3.1773,-3.2169,-4.2109,-4.2287,-4.2287,-4.2287,-4.2287,-4.2287,-4.2198,-4.1984,-4.1966,-4.1848,-4.1843,-4.1843,-4.1848,-4.2012,-4.203,-4.203,-4.2207,-4.2784,-4.3341,-4.3751,-4.4314,-4.3845,-4.3127,-4.2672,-4.2102,-4.1348,-4.1186,-4.1123,-4.0965,-4.084,-4.0302,-3.9341,-3.9071,-3.8099,-3.6717,-3.6316,-3.5713,-3.4965,-3.4739,-3.4611,-3.43,-3.405,-3.3848,-3.3694,-3.3398,-3.324,-3.3256,-3.292,-3.2485,-3.1992,-3.1181,-3.0721,-3.0727,-3.1047,-3.1189,-3.1144,-3.1474,-3.1695,-3.1586,-3.153,-3.1546,-3.1506,-3.1384,-3.1521,-3.1465,-3.1465,-3.1465,-3.148,-3.1465,-3.1364,-3.1283,-3.1268,-3.1379,-3.1549,-3.1127,-3.0814,-3.1165,-3.1865,-3.2465,-3.2676,-3.3259,-3.3599,-3.3712,-3.3776,-3.3888,-3.3822,-3.359,-3.3261,-3.3195,-3.2899,-3.2619,-3.236,-3.2069,-3.2003,-3.179,-3.1347,-3.1101,-3.0959,-3.068,-3.0136,-3.0179,-3.0119,-3.0033,-2.9962,-2.9992,-2.9951,-3.0245,-3.0456,-3.0619,-3.0765,-3.0975,-3.1165,-3.1609,-3.2159,-3.2336,-4.2287,-4.2287,-4.2246,-4.2205,-4.2205,-4.2181,-4.2181,-4.2181,-4.2181,-4.2079,-4.1995,-4.2037,-4.203,-4.1927,-4.1902,-4.1902,-4.1982,-4.2881,-4.3465,-4.382,-4.4634,-4.4411,-4.351,-4.2992,-4.2254,-4.1479,-4.1026,-4.081,-4.0648,-4.0436,-3.9983,-3.9395,-3.8941,-3.7969,-3.6671,-3.6108,-3.5497,-3.4628,-3.43,-3.4101,-3.3848,-3.3658,-3.3519,-3.3309,-3.3043,-3.2866,-3.2703,-3.2499,-3.2213,-3.1936,-3.1512,-3.1243,-3.1221,-3.1489,-3.161,-3.153,-3.1896,-3.2079,-3.2053,-3.2012,-3.1996,-3.194,-3.1955,-3.1883,-3.1781,-3.1754,-3.1769,-3.1724,-3.1754,-3.1769,-3.1712,-3.1784,-3.1981,-3.2149,-3.192,-3.1768,-3.2025,-3.2727,-3.3205,-3.3533,-3.3958,-3.4333,-3.4382,-3.4448,-3.4497,-3.4399,-3.4104,-3.3988,-3.3873,-3.3399,-3.3008,-3.2812,-3.2618,-3.2537,-3.2292,-3.1821,-3.1499,-3.1385,-3.0904,-3.0356,-3.0173,-3.0124,-2.9983,-2.9899,-2.9971,-3.0154,-3.0494,-3.0815,-3.0959,-3.1181,-3.1446,-3.1643,-3.1934,-3.2138,-3.2322,-4.2287,-4.2246,-4.2163,-4.2061,-4.2061,-4.2012,-4.1987,-4.1945,-4.1945,-4.1902,-4.1797,-4.1884,-4.1797,-4.1736,-4.1692,-4.1648,-4.1648,-4.2975,-4.3572,-4.4004,-4.4561,-4.4697,-4.4182,-4.3408,-4.2533,-4.1694,-4.0878,-4.0523,-4.0289,-3.9986,-3.9781,-3.9408,-3.8803,-3.793,-3.6929,-3.6186,-3.5214,-3.4392,-3.3963,-3.3761,-3.3487,-3.3293,-3.3134,-3.2973,-3.2703,-3.2413,-3.2262,-3.2094,-3.2007,-3.212,-3.2135,-3.2013,-3.1962,-3.1966,-3.1966,-3.1936,-3.1951,-3.194,-3.1955,-3.1883,-3.1883,-3.1784,-3.1799,-3.167,-3.1582,-3.1524,-3.1524,-3.1597,-3.1526,-3.1779,-3.2045,-3.2113,-3.2425,-3.2675,-3.2796,-3.3175,-3.3466,-3.3642,-3.3848,-3.4201,-3.425,-3.4349,-3.4399,-3.4448,-3.4464,-3.4349,-3.4186,-3.4137,-3.4088,-3.3893,-3.3615,-3.342,-3.3225,-3.3063,-3.269,-3.2253,-3.2012,-3.1787,-3.121,-3.0714,-3.0422,-3.0261,-3.0003,-2.9913,-3.024,-3.0545,-3.0815,-3.1084,-3.1286,-3.151,-3.1706,-3.1672,-3.172,-3.1827,-3.2013,-4.2121,-4.2072,-4.203,-4.197,-4.1866,-4.1823,-4.1797,-4.1692,-4.171,-4.1604,-4.1515,-4.1533,-4.1453,-4.1346,-4.1346,-4.13,-4.1464,-4.2714,-4.38,-4.466,-4.4524,-4.4451,-4.413,-4.3542,-4.2632,-4.1595,-4.1034,-4.0508,-3.9932,-3.9625,-3.9432,-3.9152,-3.8863,-3.8307,-3.7194,-3.6393,-3.5602,-3.4611,-3.3841,-3.3414,-3.3224,-3.2958,-3.2687,-3.2578,-3.2318,-3.215,-3.2038,-3.1868,-3.1739,-3.1724,-3.1838,-3.191,-3.194,-3.194,-3.1883,-3.1826,-3.1784,-3.1784,-3.1655,-3.1582,-3.1612,-3.1614,-3.1644,-3.1539,-3.1524,-3.1556,-3.1526,-3.1586,-3.1988,-3.2541,-3.308,-3.3499,-3.3517,-3.3506,-3.3646,-3.3801,-3.3714,-3.3726,-3.3848,-3.405,-3.4151,-3.4151,-3.4217,-3.4201,-3.4201,-3.4201,-3.4201,-3.4184,-3.4201,-3.4201,-3.4006,-3.368,-3.3648,-3.3453,-3.3242,-3.2805,-3.2498,-3.2159,-3.1597,-3.1165,-3.0863,-3.0577,-3.0307,-3.0434,-3.072,-3.0939,-3.1071,-3.1306,-3.1508,-3.1728,-3.1873,-3.1582,-3.1434,-3.1607,-3.1422,-4.1909,-4.1902,-4.1754,-4.1666,-4.1604,-4.1515,-4.1443,-4.1353,-4.129,-4.1244,-4.1198,-4.1152,-4.1152,-4.1041,-4.1041,-4.1059,-4.1311,-4.2324,-4.3526,-4.427,-4.4276,-4.3989,-4.3739,-4.3365,-4.2555,-4.1381,-4.0754,-4.0113,-3.9545,-3.9202,-3.8985,-3.8711,-3.8694,-3.8105,-3.7157,-3.6355,-3.5438,-3.4504,-3.3656,-3.315,-3.292,-3.2687,-3.2413,-3.2247,-3.1981,-3.1883,-3.1754,-3.164,-3.1452,-3.1379,-3.1392,-3.1465,-3.1567,-3.1567,-3.1567,-3.1482,-3.1497,-3.1439,-3.1307,-3.1322,-3.1456,-3.1753,-3.1827,-3.202,-3.2229,-3.2393,-3.2467,-3.2527,-3.2856,-3.3412,-3.3939,-3.4208,-3.4214,-3.4348,-3.4476,-3.4581,-3.4473,-3.409,-3.3797,-3.4,-3.4101,-3.4101,-3.4101,-3.4099,-3.405,-3.405,-3.405,-3.4,-3.3899,-3.3899,-3.3899,-3.377,-3.3818,-3.3786,-3.3687,-3.3427,-3.3019,-3.2546,-3.2045,-3.1691,-3.1404,-3.1071,-3.072,-3.0829,-3.0908,-3.1047,-3.1263,-3.1497,-3.1515,-3.1561,-3.1501,-3.1246,-3.0999,-3.0763,-3.0524,-4.171,-4.1648,-4.1426,-4.129,-4.1244,-4.1076,-4.1,-4.0905,-4.084,-4.0776,-4.0758,-4.0776,-4.0728,-4.0776,-4.0776,-4.0731,-4.1098,-4.1801,-4.2955,-4.3645,-4.3748,-4.3519,-4.3246,-4.2813,-4.2114,-4.1214,-4.0638,-3.9874,-3.9073,-3.875,-3.8583,-3.8319,-3.8335,-3.7906,-3.7022,-3.6039,-3.5292,-3.4557,-3.352,-3.2866,-3.2633,-3.2453,-3.2247,-3.1996,-3.1769,-3.164,-3.1509,-3.1336,-3.1176,-3.0999,-3.0837,-3.0866,-3.1028,-3.1058,-3.1073,-3.1087,-3.1073,-3.1235,-3.1383,-3.1397,-3.1544,-3.2058,-3.2315,-3.2659,-3.3015,-3.3198,-3.3305,-3.3547,-3.3789,-3.4213,-3.4499,-3.4953,-3.5081,-3.5112,-3.5269,-3.5449,-3.5356,-3.4596,-3.4338,-3.4385,-3.4401,-3.432,-3.4175,-3.4127,-3.403,-3.3915,-3.3896,-3.3845,-3.3758,-3.3674,-3.3654,-3.3658,-3.3658,-3.3523,-3.3423,-3.3235,-3.294,-3.2604,-3.2126,-3.1896,-3.165,-3.1259,-3.0907,-3.0889,-3.0944,-3.1121,-3.1122,-3.1057,-3.114,-3.1218,-3.0881,-3.051,-3.0162,-2.9856,-2.967,-4.1272,-4.1186,-4.1059,-4.0871,-4.0662,-4.0631,-4.0468,-4.0271,-4.0221,-4.0221,-4.0221,-4.0238,-4.0221,-4.0221,-4.0221,-4.0443,-4.0897,-4.1564,-4.2128,-4.27,-4.2894,-4.2855,-4.2512,-4.1905,-4.112,-4.0554,-4.0215,-3.965,-3.8586,-3.823,-3.8189,-3.8033,-3.7992,-3.7716,-3.7218,-3.6251,-3.5338,-3.4713,-3.3568,-3.2717,-3.2428,-3.2247,-3.2023,-3.1769,-3.1539,-3.1409,-3.1292,-3.1043,-3.0807,-3.0673,-3.0511,-3.065,-3.0888,-3.0855,-3.0846,-3.0922,-3.1026,-3.1231,-3.1674,-3.1838,-3.2161,-3.2665,-3.2966,-3.3043,-3.3268,-3.3513,-3.3877,-3.4106,-3.4607,-3.5233,-3.603,-3.6197,-3.6222,-3.6178,-3.6043,-3.6058,-3.5752,-3.5474,-3.5307,-3.5384,-3.5038,-3.4627,-3.453,-3.4402,-3.427,-3.4133,-3.4064,-3.398,-3.3842,-3.3678,-3.3498,-3.3456,-3.3346,-3.3156,-3.2949,-3.2788,-3.2509,-3.229,-3.1931,-3.1622,-3.1407,-3.1228,-3.1036,-3.0574,-3.0645,-3.0932,-3.0866,-3.0675,-3.0363,-3.0136,-2.9875,-2.9608,-2.9219,-2.8903,-2.8648,-4.0806,-4.0793,-4.0583,-4.037,-4.0188,-4.0138,-3.9969,-3.9747,-3.9644,-3.9644,-3.9644,-3.9644,-3.9644,-3.9644,-3.9627,-3.994,-4.0484,-4.0779,-4.1147,-4.1458,-4.1656,-4.1594,-4.1413,-4.0871,-4.0203,-3.9646,-3.951,-3.9194,-3.8113,-3.8017,-3.7918,-3.7801,-3.7669,-3.7551,-3.7243,-3.6295,-3.5415,-3.4685,-3.363,-3.2665,-3.2237,-3.1951,-3.1682,-3.1482,-3.1307,-3.1117,-3.0925,-3.0821,-3.0582,-3.0416,-3.0488,-3.0711,-3.0891,-3.1047,-3.119,-3.1315,-3.1339,-3.1579,-3.2038,-3.2125,-3.2465,-3.3147,-3.3505,-3.3746,-3.4065,-3.4483,-3.4693,-3.5186,-3.5431,-3.6107,-3.6677,-3.6984,-3.6917,-3.6817,-3.6825,-3.6769,-3.6532,-3.6421,-3.6285,-3.6127,-3.553,-3.5094,-3.5006,-3.4848,-3.4571,-3.4422,-3.4195,-3.4093,-3.3921,-3.3692,-3.3457,-3.3044,-3.285,-3.2422,-3.2241,-3.2074,-3.1905,-3.1652,-3.1422,-3.119,-3.0866,-3.0495,-3.0061,-2.9636,-2.9958,-3.024,-3.0133,-2.9737,-2.94,-2.9059,-2.8862,-2.8583,-2.826,-2.7947,-2.7683,-4.032,-4.032,-4.002,-3.9816,-3.9729,-3.9625,-3.9435,-3.9276,-3.9169,-3.9152,-3.9098,-3.9152,-3.9152,-3.9098,-3.9164,-3.9374,-3.9785,-3.9884,-4.0074,-4.0264,-4.0425,-4.0293,-4.0123,-3.9777,-3.9383,-3.8896,-3.8483,-3.8257,-3.7871,-3.7743,-3.77,-3.7567,-3.7358,-3.7238,-3.6901,-3.6001,-3.5177,-3.4414,-3.3483,-3.2638,-3.1917,-3.1509,-3.1278,-3.1073,-3.1087,-3.1055,-3.0858,-3.1,-3.0797,-3.0659,-3.0735,-3.0965,-3.1095,-3.1418,-3.182,-3.2079,-3.1994,-3.2025,-3.2349,-3.2457,-3.2847,-3.3718,-3.4038,-3.4448,-3.4916,-3.5364,-3.5915,-3.6429,-3.6585,-3.6677,-3.6968,-3.715,-3.7178,-3.7163,-3.7222,-3.7298,-3.7008,-3.6794,-3.6551,-3.6253,-3.5806,-3.5446,-3.5201,-3.4836,-3.4513,-3.4296,-3.4136,-3.3952,-3.3863,-3.3796,-3.3437,-3.2728,-3.2249,-3.1685,-3.1392,-3.1276,-3.1058,-3.0822,-3.0584,-3.0343,-2.9964,-2.958,-2.9136,-2.8716,-2.8693,-2.8876,-2.8839,-2.8839,-2.8556,-2.822,-2.7855,-2.7617,-2.7284,-2.7015,-2.6756,-3.9781,-3.9764,-3.9435,-3.9222,-3.9131,-3.9094,-3.9023,-3.886,-3.8843,-3.886,-3.886,-3.8843,-3.8788,-3.8788,-3.8694,-3.8649,-3.878,-3.9072,-3.9247,-3.9371,-3.9566,-3.9684,-3.9609,-3.8994,-3.8618,-3.818,-3.7679,-3.7531,-3.7464,-3.7373,-3.7314,-3.7254,-3.7089,-3.6923,-3.6661,-3.555,-3.4509,-3.3891,-3.2654,-3.1702,-3.1235,-3.1028,-3.0953,-3.0889,-3.1072,-3.119,-3.1185,-3.1332,-3.1346,-3.1217,-3.1272,-3.1546,-3.1881,-3.1972,-3.243,-3.2596,-3.2447,-3.2145,-3.2895,-3.3091,-3.3411,-3.4266,-3.4677,-3.4993,-3.5429,-3.5782,-3.6211,-3.6476,-3.6754,-3.6923,-3.7029,-3.7118,-3.7178,-3.7074,-3.7044,-3.6907,-3.6769,-3.6492,-3.6321,-3.5976,-3.5337,-3.5309,-3.5126,-3.4741,-3.4429,-3.4252,-3.4089,-3.394,-3.3727,-3.357,-3.3217,-3.2485,-3.1599,-3.0993,-3.064,-3.0459,-3.0176,-2.9946,-2.967,-2.9421,-2.8967,-2.8583,-2.826,-2.7907,-2.7736,-2.767,-2.7749,-2.7749,-2.7617,-2.7417,-2.7136,-2.6744,-2.6414,-2.6151,-2.5873,-3.8733,-3.9077,-3.886,-3.8639,-3.8511,-3.86,-3.8616,-3.8504,-3.8488,-3.8432,-3.8432,-3.8319,-3.8303,-3.8319,-3.8205,-3.8148,-3.8187,-3.8386,-3.8424,-3.8398,-3.8571,-3.8534,-3.827,-3.7928,-3.7665,-3.7527,-3.7171,-3.703,-3.7013,-3.7058,-3.7029,-3.686,-3.6785,-3.6616,-3.6199,-3.5202,-3.4425,-3.3547,-3.2437,-3.1513,-3.1192,-3.1252,-3.1266,-3.1062,-3.1219,-3.1282,-3.1265,-3.1298,-3.1443,-3.1324,-3.1559,-3.1928,-3.23,-3.268,-3.3156,-3.3339,-3.326,-3.3293,-3.3561,-3.3778,-3.4153,-3.4566,-3.503,-3.5474,-3.5861,-3.6085,-3.6336,-3.66,-3.6677,-3.6785,-3.6831,-3.6831,-3.6754,-3.6646,-3.6523,-3.6258,-3.6054,-3.5928,-3.5672,-3.5285,-3.4942,-3.4646,-3.449,-3.4382,-3.4133,-3.4178,-3.4095,-3.3991,-3.3579,-3.3151,-3.27,-3.2188,-3.1168,-3.0277,-2.9905,-2.9666,-2.9317,-2.9022,-2.8661,-2.8352,-2.7947,-2.7564,-2.7351,-2.7095,-2.6824,-2.6837,-2.685,-2.6837,-2.6812,-2.6607,-2.6333,-2.6082,-2.5746,-2.537,-2.5028,-3.7669,-3.8059,-3.8148,-3.8075,-3.8017,-3.8164,-3.8164,-3.8123,-3.8107,-3.8107,-3.8107,-3.7992,-3.7918,-3.7801,-3.7801,-3.7743,-3.7759,-3.77,-3.7658,-3.7539,-3.7524,-3.7484,-3.7367,-3.7197,-3.7076,-3.6846,-3.6491,-3.6276,-3.623,-3.6152,-3.6029,-3.6307,-3.6061,-3.5783,-3.5337,-3.4391,-3.3408,-3.2372,-3.1707,-3.1128,-3.0864,-3.1273,-3.1288,-3.123,-3.1221,-3.1332,-3.1211,-3.1432,-3.1488,-3.1708,-3.201,-3.2384,-3.2736,-3.3085,-3.3435,-3.3687,-3.3751,-3.3984,-3.4124,-3.4274,-3.4549,-3.4883,-3.5228,-3.5668,-3.6022,-3.6148,-3.6211,-3.6399,-3.6414,-3.6399,-3.6399,-3.6274,-3.607,-3.5928,-3.58,-3.5464,-3.5124,-3.4927,-3.4647,-3.4192,-3.3865,-3.3506,-3.3433,-3.3628,-3.3805,-3.4052,-3.4056,-3.3865,-3.3279,-3.2541,-3.2041,-3.1433,-3.0678,-2.9779,-2.9562,-2.9199,-2.8704,-2.8238,-2.7881,-2.7469,-2.7146,-2.6918,-2.6688,-2.6358,-2.6094,-2.6025,-2.6082,-2.6082,-2.6082,-2.5931,-2.5791,-2.5407,-2.5064,-2.4671,-2.4154,-3.6616,-3.6662,-3.7238,-3.7551,-3.77,-3.7743,-3.7817,-3.7934,-3.7934,-3.7934,-3.7934,-3.786,-3.7743,-3.77,-3.7492,-3.7373,-3.7254,-3.7105,-3.7121,-3.706,-3.6999,-3.7013,-3.689,-3.6783,-3.6661,-3.6276,-3.5753,-3.5309,-3.5064,-3.4638,-3.4759,-3.511,-3.5002,-3.4391,-3.383,-3.3075,-3.1965,-3.1112,-3.0691,-3.0594,-3.0401,-3.0604,-3.0856,-3.0733,-3.0977,-3.1332,-3.15,-3.1856,-3.2203,-3.2345,-3.2514,-3.2765,-3.3059,-3.335,-3.3573,-3.3839,-3.421,-3.4346,-3.4428,-3.4549,-3.4817,-3.5148,-3.5459,-3.5718,-3.5958,-3.5973,-3.6037,-3.6022,-3.5894,-3.5816,-3.5737,-3.5544,-3.5204,-3.5008,-3.4728,-3.438,-3.4041,-3.3782,-3.3506,-3.3101,-3.2747,-3.2376,-3.2001,-3.2119,-3.2563,-3.2777,-3.2777,-3.2577,-3.2181,-3.1492,-3.1106,-3.0583,-2.9989,-2.9465,-2.9315,-2.89,-2.83,-2.7851,-2.7528,-2.698,-2.654,-2.6295,-2.6151,-2.5943,-2.5676,-2.5523,-2.5453,-2.5535,-2.5606,-2.5441,-2.517,-2.4909,-2.4334,-2.3728,-2.3202,-3.5879,-3.6022,-3.6243,-3.6631,-3.7089,-3.7373,-3.7551,-3.761,-3.7743,-3.7716,-3.7642,-3.7508,-3.7433,-3.7373,-3.7225,-3.7029,-3.6892,-3.6846,-3.6769,-3.68,-3.6785,-3.6552,-3.6321,-3.5936,-3.5721,-3.508,-3.4547,-3.4243,-3.4014,-3.3469,-3.3153,-3.3348,-3.3649,-3.36,-3.3013,-3.2082,-3.0993,-3.0225,-3.0129,-3.0173,-3.0377,-3.065,-3.0942,-3.1159,-3.1253,-3.1527,-3.1784,-3.1947,-3.2331,-3.2618,-3.2692,-3.303,-3.3409,-3.3545,-3.3765,-3.4045,-3.4346,-3.4549,-3.4683,-3.4868,-3.5148,-3.5394,-3.5589,-3.5668,-3.5703,-3.5638,-3.5574,-3.5444,-3.5169,-3.4957,-3.489,-3.4461,-3.4109,-3.3934,-3.3659,-3.3297,-3.2932,-3.2591,-3.229,-3.1869,-3.1502,-3.122,-3.0833,-3.0443,-3.0983,-3.1442,-3.1368,-3.1267,-3.0878,-3.0602,-3.0258,-3.0015,-2.9481,-2.9228,-2.9065,-2.8575,-2.788,-2.757,-2.7189,-2.6664,-2.6205,-2.5877,-2.5746,-2.5535,-2.5324,-2.5253,-2.5194,-2.5194,-2.5123,-2.5111,-2.4826,-2.4406,-2.3666,-2.2841,-2.2402,-3.517,-3.5494,-3.5574,-3.6022,-3.6662,-3.7013,-3.7178,-3.7329,-3.7405,-3.748,-3.7361,-3.721,-3.7089,-3.7029,-3.6923,-3.6538,-3.6291,-3.6091,-3.5999,-3.5876,-3.5691,-3.5507,-3.5262,-3.4957,-3.4743,-3.394,-3.3412,-3.3185,-3.3139,-3.2626,-3.2149,-3.2001,-3.2134,-3.2281,-3.21,-3.1406,-3.0372,-2.9638,-2.9628,-2.9821,-2.9992,-3.0357,-3.0785,-3.1027,-3.1145,-3.1381,-3.1589,-3.1863,-3.2214,-3.2574,-3.2832,-3.3143,-3.3548,-3.3851,-3.4027,-3.4221,-3.4481,-3.4765,-3.4883,-3.5082,-3.5344,-3.5524,-3.5279,-3.5329,-3.5299,-3.5088,-3.4824,-3.4543,-3.4206,-3.3934,-3.3796,-3.3297,-3.2777,-3.2591,-3.2448,-3.2087,-3.1649,-3.1281,-3.0908,-3.0607,-3.0241,-2.9935,-2.9614,-2.9225,-2.9524,-3.0075,-3.0165,-3.0075,-2.9833,-2.9654,-2.9487,-2.9272,-2.911,-2.8922,-2.8822,-2.8337,-2.7903,-2.7668,-2.7201,-2.6554,-2.6105,-2.5743,-2.5443,-2.5206,-2.5064,-2.5064,-2.4992,-2.4921,-2.4849,-2.4778,-2.4334,-2.3824,-2.315,-2.2402,-2.1949,-3.433,-3.4986,-3.5299,-3.58,-3.6291,-3.6492,-3.6739,-3.6984,-3.6982,-3.6966,-3.6935,-3.6859,-3.6675,-3.6538,-3.6215,-3.5769,-3.5248,-3.5095,-3.4836,-3.4471,-3.4471,-3.4167,-3.403,-3.397,-3.3728,-3.3563,-3.2871,-3.2333,-3.2302,-3.1617,-3.1055,-3.0937,-3.1083,-3.1023,-3.0804,-3.0187,-2.9512,-2.8949,-2.9157,-2.9186,-2.9329,-2.9666,-3.0021,-3.0387,-3.0735,-3.1075,-3.136,-3.173,-3.2155,-3.2632,-3.2874,-3.3241,-3.3744,-3.3825,-3.4016,-3.4278,-3.4496,-3.4631,-3.4698,-3.5016,-3.5148,-3.5279,-3.4964,-3.4721,-3.4558,-3.4274,-3.3879,-3.352,-3.3087,-3.2662,-3.2318,-3.1955,-3.1502,-3.1281,-3.1145,-3.0846,-3.0393,-3.0088,-2.9781,-2.9381,-2.8924,-2.8542,-2.8303,-2.8143,-2.8291,-2.853,-2.8791,-2.8791,-2.8712,-2.8712,-2.8554,-2.8518,-2.8488,-2.853,-2.8373,-2.8232,-2.7912,-2.7698,-2.7196,-2.6548,-2.5935,-2.5481,-2.5158,-2.4908,-2.4706,-2.4622,-2.4634,-2.4562,-2.4334,-2.4032,-2.3593,-2.3001,-2.2478,-2.2025,-2.1578,-3.3063,-3.3317,-3.3618,-3.3999,-3.4651,-3.5999,-3.6569,-3.66,-3.6426,-3.6253,-3.6053,-3.5623,-3.5197,-3.5002,-3.4836,-3.4531,-3.4135,-3.3937,-3.3621,-3.3546,-3.3441,-3.3216,-3.3036,-3.2796,-3.2572,-3.202,-3.1545,-3.1412,-3.1278,-3.0775,-3.0731,-3.0642,-3.0462,-3.0401,-3.0233,-2.9775,-2.9247,-2.8817,-2.8556,-2.8424,-2.866,-2.8964,-2.9314,-2.9817,-3.0327,-3.0872,-3.1272,-3.173,-3.2155,-3.2632,-3.2874,-3.3255,-3.3619,-3.3701,-3.3839,-3.4005,-3.4157,-3.4157,-3.4142,-3.4264,-3.4467,-3.4549,-3.4399,-3.4031,-3.3851,-3.3297,-3.2903,-3.2475,-3.1942,-3.1589,-3.1307,-3.0683,-3.0304,-3.0152,-2.9935,-2.9537,-2.916,-2.9003,-2.8767,-2.8291,-2.7822,-2.7325,-2.701,-2.6846,-2.6917,-2.708,-2.7325,-2.7592,-2.7592,-2.7661,-2.7661,-2.7672,-2.7718,-2.781,-2.7888,-2.7846,-2.7877,-2.7684,-2.7198,-2.6422,-2.584,-2.5271,-2.4809,-2.4502,-2.4334,-2.4189,-2.4043,-2.3824,-2.3519,-2.315,-2.2777,-2.2563,-2.2111,-2.1731,-2.1282,-3.2095,-3.2405,-3.2625,-3.2878,-3.3464,-3.4864,-3.5538,-3.5585,-3.5382,-3.5241,-3.5014,-3.4526,-3.4195,-3.3955,-3.3743,-3.3275,-3.3002,-3.2896,-3.2629,-3.2568,-3.2418,-3.2122,-3.1901,-3.1752,-3.1515,-3.0954,-3.0762,-3.0657,-3.07,-3.0476,-3.0401,-3.0341,-3.0205,-3.0036,-2.9851,-2.9512,-2.9058,-2.8624,-2.8172,-2.793,-2.8084,-2.8363,-2.8635,-2.9346,-3.0018,-3.0677,-3.1206,-3.1716,-3.2228,-3.2561,-3.2931,-3.3171,-3.3382,-3.3521,-3.3577,-3.366,-3.366,-3.3646,-3.3563,-3.3409,-3.3618,-3.3618,-3.3479,-3.3283,-3.289,-3.2335,-3.1896,-3.1408,-3.0859,-3.0482,-3.0177,-2.9549,-2.9303,-2.916,-2.8834,-2.845,-2.8063,-2.7903,-2.7649,-2.7174,-2.6764,-2.6279,-2.5863,-2.5611,-2.5527,-2.5695,-2.5852,-2.6124,-2.6467,-2.6622,-2.6764,-2.6857,-2.7033,-2.7196,-2.7441,-2.7637,-2.7626,-2.7719,-2.7065,-2.6193,-2.5716,-2.5055,-2.4572,-2.4116,-2.3897,-2.3593,-2.3372,-2.3075,-2.2777,-2.2478,-2.2262,-2.1959,-2.1731,-2.1436,-2.1051,-3.1498,-3.219,-3.2362,-3.2509,-3.2757,-3.324,-3.3668,-3.4015,-3.4045,-3.3955,-3.3939,-3.3743,-3.3382,-3.3305,-3.3212,-3.2687,-3.206,-3.1926,-3.1646,-3.1263,-3.1112,-3.0922,-3.0833,-3.0669,-3.0609,-3.0505,-3.0387,-3.0205,-3.0266,-3.0158,-3.0097,-2.9974,-2.9789,-2.9602,-2.9463,-2.9198,-2.8867,-2.8352,-2.7881,-2.7637,-2.767,-2.7659,-2.8134,-2.8864,-2.9632,-3.0364,-3.1056,-3.1723,-3.2273,-3.2632,-3.2846,-3.3086,-3.3171,-3.3241,-3.3297,-3.3213,-3.3199,-3.3058,-3.2931,-3.2717,-3.2444,-3.2386,-3.2513,-3.2263,-3.1879,-3.1436,-3.1009,-3.052,-2.9973,-2.9586,-2.9131,-2.8791,-2.845,-2.8131,-2.7879,-2.7418,-2.6951,-2.6704,-2.6517,-2.6113,-2.5779,-2.5369,-2.5031,-2.469,-2.4605,-2.469,-2.4935,-2.5105,-2.5454,-2.5801,-2.5957,-2.6113,-2.629,-2.6561,-2.6809,-2.7044,-2.7219,-2.7231,-2.6565,-2.5842,-2.5329,-2.4755,-2.4048,-2.3546,-2.3331,-2.3075,-2.2628,-2.2402,-2.2176,-2.1883,-2.1655,-2.1502,-2.1272,-2.1118,-2.0819,-3.0406,-3.0716,-3.0873,-3.1119,-3.1377,-3.1693,-3.2617,-3.3804,-3.347,-3.311,-3.29,-3.2287,-3.2065,-3.1812,-3.1483,-3.126,-3.1052,-3.0768,-3.0589,-3.0384,-3.0205,-3.0129,-3.0068,-2.996,-2.9913,-2.9851,-2.9837,-2.9775,-2.9775,-2.9741,-2.9741,-2.9665,-2.9352,-2.9212,-2.8944,-2.8739,-2.8481,-2.817,-2.7643,-2.7385,-2.7383,-2.7386,-2.7842,-2.838,-2.946,-3.0202,-3.0844,-3.1742,-3.2187,-3.2431,-3.2704,-3.2789,-3.2646,-3.2646,-3.2632,-3.2489,-3.2417,-3.2359,-3.2123,-3.23,-3.211,-3.1412,-3.1428,-3.136,-3.095,-3.057,-3.0151,-2.9836,-2.9376,-2.9003,-2.8599,-2.8217,-2.7731,-2.7267,-2.6928,-2.6517,-2.6041,-2.5706,-2.5443,-2.5189,-2.4775,-2.4519,-2.4186,-2.4003,-2.3917,-2.3927,-2.4013,-2.4262,-2.4519,-2.4956,-2.5211,-2.5369,-2.5538,-2.5801,-2.6135,-2.6385,-2.6644,-2.6707,-2.5971,-2.5363,-2.4859,-2.4216,-2.3449,-2.2864,-2.2585,-2.2252,-2.1883,-2.1655,-2.1492,-2.1262,-2.1031,-2.0954,-2.0799,-2.0654,-2.0498,-2.91,-2.9354,-2.9473,-2.9695,-3.0046,-3.0176,-3.1025,-3.1942,-3.2063,-3.2064,-3.1886,-3.1309,-3.0999,-3.088,-3.058,-3.0309,-3.0309,-3.0093,-2.9941,-2.9865,-2.9637,-2.9574,-2.9463,-2.9275,-2.9226,-2.9226,-2.9226,-2.9162,-2.9226,-2.9226,-2.9162,-2.9162,-2.8908,-2.8688,-2.8481,-2.8222,-2.8039,-2.7789,-2.7536,-2.7214,-2.7161,-2.7354,-2.7659,-2.8221,-2.945,-3.0157,-3.0718,-3.1669,-3.1982,-3.2155,-3.2286,-3.22,-3.2055,-3.1909,-3.185,-3.1669,-3.1822,-3.1664,-3.1583,-3.1849,-3.1383,-3.0887,-3.075,-3.0658,-3.0365,-2.999,-2.9843,-2.9597,-2.9056,-2.8621,-2.8128,-2.7577,-2.7028,-2.6407,-2.5968,-2.5611,-2.52,-2.4786,-2.4519,-2.4176,-2.3917,-2.3667,-2.3406,-2.3309,-2.3309,-2.3319,-2.3406,-2.3493,-2.3744,-2.4176,-2.4444,-2.47,-2.4871,-2.5041,-2.538,-2.5706,-2.5852,-2.5821,-2.5157,-2.4628,-2.4298,-2.3498,-2.2516,-2.2022,-2.1665,-2.1415,-2.1185,-2.1041,-2.0886,-2.0644,-2.0489,-2.0333,-2.0333,-2.0264,-2.0108,-2.7781,-2.8197,-2.8211,-2.8598,-2.889,-2.8963,-2.9063,-2.9119,-3.0294,-3.0852,-3.0808,-3.0513,-3.0276,-3.0127,-2.9793,-2.9662,-2.967,-2.954,-2.9415,-2.9477,-2.9085,-2.8958,-2.8894,-2.8716,-2.8522,-2.8522,-2.8522,-2.8509,-2.8522,-2.8522,-2.8522,-2.8522,-2.8314,-2.8105,-2.7973,-2.7789,-2.759,-2.7403,-2.7281,-2.7092,-2.7016,-2.7329,-2.7933,-2.862,-2.9574,-3.0427,-3.1008,-3.1381,-3.1669,-3.173,-3.1643,-3.1542,-3.1334,-3.1035,-3.0898,-3.0903,-3.1022,-3.0971,-3.0991,-3.1196,-3.1016,-3.0655,-3.0599,-3.0241,-2.9965,-2.9697,-2.9558,-2.9283,-2.8768,-2.8399,-2.7912,-2.7334,-2.6711,-2.6174,-2.5603,-2.5055,-2.4508,-2.4068,-2.3551,-2.3202,-2.295,-2.2784,-2.2706,-2.2608,-2.2706,-2.2706,-2.2794,-2.2882,-2.3057,-2.3484,-2.3754,-2.4024,-2.4272,-2.4529,-2.4786,-2.502,-2.5126,-2.4922,-2.4317,-2.379,-2.3393,-2.2574,-2.163,-2.1262,-2.0954,-2.0722,-2.0489,-2.0411,-2.0342,-2.0108,-1.9942,-1.9784,-1.9784,-1.9784,-1.9784,-2.7651,-2.7937,-2.8269,-2.8482,-2.8595,-2.861,-2.8468,-2.8269,-2.8598,-2.8944,-2.9131,-2.8886,-2.8954,-2.9206,-2.8764,-2.8761,-2.9101,-2.8834,-2.8817,-2.8702,-2.8444,-2.8235,-2.8157,-2.7921,-2.7789,-2.7802,-2.7789,-2.7723,-2.7789,-2.7789,-2.7736,-2.7736,-2.7629,-2.7615,-2.7561,-2.7372,-2.7314,-2.7297,-2.7352,-2.7284,-2.7199,-2.7606,-2.8195,-2.8692,-2.9483,-3.0223,-3.0703,-3.1014,-3.1132,-3.1198,-3.0934,-3.0709,-3.0419,-2.996,-2.9806,-2.9842,-3.0032,-3.0066,-3.0061,-3.0396,-3.0446,-2.996,-2.9726,-2.9717,-2.9549,-2.9444,-2.923,-2.8953,-2.8555,-2.8181,-2.7622,-2.7053,-2.6349,-2.5811,-2.5273,-2.4545,-2.389,-2.3192,-2.2618,-2.2227,-2.1971,-2.198,-2.1909,-2.1998,-2.2097,-2.2185,-2.2274,-2.2362,-2.2441,-2.2794,-2.3057,-2.3406,-2.3754,-2.4013,-2.4272,-2.4235,-2.4217,-2.4074,-2.3629,-2.3113,-2.25,-2.1638,-2.0809,-2.0566,-2.0333,-2.0177,-2.002,-2.002,-1.9942,-1.9706,-1.9636,-1.9548,-1.9469,-1.9469,-1.946,-2.6537,-2.6805,-2.7201,-2.7369,-2.7438,-2.7369,-2.7201,-2.6976,-2.6891,-2.6905,-2.7216,-2.7453,-2.7858,-2.8106,-2.7652,-2.7686,-2.8085,-2.7769,-2.7813,-2.7762,-2.763,-2.7443,-2.7323,-2.7175,-2.704,-2.704,-2.704,-2.704,-2.704,-2.704,-2.6985,-2.7092,-2.7058,-2.7276,-2.7327,-2.7423,-2.7564,-2.764,-2.7703,-2.7703,-2.7703,-2.8164,-2.8427,-2.8821,-2.9515,-3.0186,-3.0271,-3.053,-3.0443,-3.0279,-2.9858,-2.9549,-2.9172,-2.8858,-2.8688,-2.8759,-2.8925,-2.9189,-2.9136,-2.9444,-2.9739,-2.9327,-2.9071,-2.9116,-2.8878,-2.8668,-2.8735,-2.8497,-2.8327,-2.7967,-2.7099,-2.6438,-2.5665,-2.4967,-2.4421,-2.3818,-2.2928,-2.2131,-2.1589,-2.1212,-2.106,-2.1006,-2.1015,-2.1006,-2.1195,-2.1454,-2.1633,-2.1731,-2.1909,-2.1998,-2.2353,-2.253,-2.2872,-2.3222,-2.3396,-2.3381,-2.3228,-2.3062,-2.2825,-2.1998,-2.1204,-2.0643,-2.0108,-1.9951,-1.9863,-1.9784,-1.9706,-1.9696,-1.9627,-1.9469,-1.9469,-1.939,-1.9311,-1.9152,-1.9152,-2.5201,-2.5412,-2.5729,-2.5907,-2.6002,-2.5921,-2.5771,-2.5592,-2.5384,-2.5188,-2.5124,-2.6267,-2.6809,-2.6827,-2.6506,-2.6663,-2.6707,-2.6596,-2.6685,-2.6716,-2.665,-2.662,-2.6496,-2.6358,-2.6358,-2.6289,-2.6358,-2.6358,-2.6427,-2.644,-2.6465,-2.6471,-2.6797,-2.7172,-2.7444,-2.7805,-2.7994,-2.8172,-2.8303,-2.8574,-2.8736,-2.8898,-2.8911,-2.931,-2.9815,-3.0317,-3.0075,-2.9908,-2.9677,-2.9263,-2.8779,-2.8383,-2.8063,-2.7742,-2.7603,-2.7648,-2.7923,-2.8098,-2.8208,-2.8565,-2.876,-2.8669,-2.8538,-2.8247,-2.7955,-2.7746,-2.7808,-2.761,-2.7526,-2.7338,-2.6474,-2.5718,-2.4834,-2.4049,-2.358,-2.2944,-2.1985,-2.1098,-2.0624,-2.0215,-2.0059,-2.0102,-2.0127,-2.0119,-2.0283,-2.0637,-2.0907,-2.1096,-2.1275,-2.1284,-2.1463,-2.1553,-2.1722,-2.2167,-2.2532,-2.2399,-2.2273,-2.1894,-2.1525,-2.0661,-2.0014,-1.9692,-1.9557,-1.9557,-1.9478,-1.9469,-1.946,-1.945,-1.9381,-1.9301,-1.9231,-1.924,-1.9002,-1.8922,-1.8843,-2.5048,-2.5398,-2.5467,-2.5522,-2.5522,-2.5384,-2.5104,-2.4738,-2.4694,-2.4452,-2.4171,-2.4171,-2.4668,-2.5442,-2.5031,-2.5097,-2.5358,-2.5313,-2.539,-2.5493,-2.5603,-2.5718,-2.5734,-2.5594,-2.5664,-2.5664,-2.5746,-2.5816,-2.5816,-2.5886,-2.5968,-2.6005,-2.6547,-2.683,-2.6904,-2.7445,-2.8051,-2.831,-2.8445,-2.8518,-2.8727,-2.8988,-2.9318,-2.9576,-2.977,-2.9743,-2.9456,-2.9287,-2.8973,-2.8407,-2.7822,-2.7348,-2.6962,-2.6595,-2.649,-2.6461,-2.6802,-2.6868,-2.7045,-2.7336,-2.7348,-2.7105,-2.6819,-2.6723,-2.6436,-2.6147,-2.5925,-2.5421,-2.5431,-2.5838,-2.5276,-2.4704,-2.3971,-2.3257,-2.2629,-2.1822,-2.0906,-2.0222,-1.9646,-1.933,-1.9063,-1.9112,-1.9076,-1.9144,-1.918,-1.9538,-1.982,-2.0002,-2.0266,-2.0365,-2.0564,-2.0654,-2.0645,-2.1121,-2.1553,-2.1479,-2.12,-2.0782,-2.0426,-1.9829,-1.9439,-1.9047,-1.894,-1.917,-1.9161,-1.9152,-1.9143,-1.9143,-1.9143,-1.9073,-1.9082,-1.9002,-1.8763,-1.8523,-1.8362]}]]